ECMWFNIL_con_mucape_000.txt.gz
CAPE
963 675 670 598 608 548 507 450 349 436 454 448 543 582 622 820 854 937 758 580 585 534 479 566 696 909 1161 1020 796 613 698 879 692 521 576 508 574 585 880 837 714 503
989 756 596 508 412 520 504 572 492 470 565 730 699 594 693 945 1100 1056 698 611 663 536 385 356 662 590 478 616 482 537 848 944 819 740 861 780 708 757 862 825 654 452
914 724 601 537 415 478 474 496 410 364 476 611 708 715 784 994 1066 891 675 688 728 576 488 434 405 834 828 578 344 684 683 652 701 882 1003 949 1062 1106 947 773 598 367
996 858 729 711 688 693 734 786 756 696 755 807 830 866 883 876 948 976 924 820 764 763 894 821 564 560 733 632 423 440 632 638 626 540 413 498 714 1117 933 707 354 136
988 808 792 887 906 821 632 509 494 530 613 701 774 884 916 799 688 795 942 805 533 550 630 728 594 482 543 522 474 368 313 557 584 654 629 578 622 573 630 496 210 101
600 540 552 611 636 560 516 502 481 479 536 592 606 659 654 632 661 628 517 522 646 628 596 703 550 408 539 681 630 561 594 703 945 976 1029 845 685 488 572 506 223 133
323 206 199 328 494 505 476 427 424 472 507 624 646 573 546 538 468 435 455 540 606 695 761 693 620 536 436 517 564 566 534 566 794 950 772 708 466 737 711 456 292 137
113 78 74 138 304 304 261 259 323 416 541 694 715 576 471 470 499 575 656 636 594 513 607 588 491 537 594 425 468 462 445 459 471 587 634 587 417 439 342 545 329 150
70 40 32 69 90 71 67 106 253 443 601 713 660 548 626 659 698 689 630 548 482 424 442 370 332 370 433 478 533 555 521 500 482 356 280 268 170 126 284 333 460 350
1 5 6 4 11 25 52 108 263 437 667 788 685 595 654 694 758 716 629 551 440 465 361 371 448 378 397 366 421 444 354 308 316 259 146 119 164 183 286 365 468 433
0 13 23 11 10 36 87 172 350 512 745 882 766 704 752 806 790 645 556 439 414 469 486 359 202 215 246 404 415 379 442 386 405 432 346 228 158 180 221 268 270 308
5 19 40 146 86 125 119 205 364 702 849 956 897 967 1042 871 732 672 571 459 472 579 401 341 382 176 201 379 378 306 326 293 244 278 304 268 197 150 110 154 211 236
336 384 351 299 235 179 134 240 352 603 971 1066 1119 1272 1227 1051 834 725 540 455 454 492 532 335 356 254 214 242 332 280 246 198 195 196 197 204 235 220 158 104 120 133
528 601 586 483 353 292 238 238 354 567 811 1015 1224 1294 1270 1106 814 670 430 285 290 384 508 476 354 318 273 212 243 337 365 367 344 267 230 223 241 243 199 137 119 149
732 878 778 555 382 248 187 207 269 336 505 807 1046 1136 1218 1115 828 703 384 224 190 269 316 392 461 425 486 486 374 280 256 283 255 204 157 116 151 213 204 150 118 130
972 981 798 467 260 225 112 159 252 298 452 706 958 1106 1110 975 847 738 434 276 208 192 225 297 392 323 229 217 175 214 218 239 172 76 113 105 139 163 193 154 110 137
1130 1042 681 420 327 469 355 170 242 328 400 522 672 754 766 754 823 744 569 279 201 148 168 230 290 281 223 186 66 35 118 191 186 122 157 164 229 229 159 131 128 106
1196 1194 888 636 543 630 630 424 267 316 288 270 330 419 542 694 696 646 570 249 184 163 183 233 252 94 24 2 5 1 54 224 314 255 188 91 206 385 258 184 150 136
1124 1172 967 797 730 798 766 664 456 325 269 208 191 335 568 486 459 504 505 222 157 222 176 132 124 0 4 30 53 45 62 196 373 262 157 28 102 305 413 290 154 58
611 663 584 589 755 952 926 745 563 378 240 151 264 358 238 192 303 446 444 234 186 247 189 131 188 5 0 6 28 34 74 165 356 218 277 79 14 119 324 307 70 46
14 26 85 408 784 1046 1034 837 614 499 380 253 157 160 181 224 410 488 422 292 221 273 292 151 176 8 6 10 9 32 90 146 300 406 224 28 0 3 125 250 68 38
13 26 95 363 720 1025 1086 936 686 534 358 212 227 227 347 454 618 316 402 247 172 300 297 127 90 0 3 5 9 23 109 147 243 427 258 23 0 6 8 26 42 17
0 42 170 340 622 922 1051 985 748 544 329 220 172 202 363 630 606 250 368 203 178 233 210 251 116 24 0 0 1 14 102 140 160 380 211 96 64 32 32 30 41 19
0 70 113 195 507 824 1015 1013 792 491 278 186 156 157 229 534 536 290 350 192 210 157 189 271 214 70 0 0 0 8 36 114 206 342 120 109 44 38 31 36 65 31
26 42 67 204 601 863 1086 1040 755 498 300 99 42 64 190 454 505 412 365 168 178 214 256 248 278 123 25 0 0 5 11 87 265 309 180 110 149 137 50 37 62 73
31 106 150 640 765 1046 1192 1075 852 421 38 28 30 130 200 343 413 360 393 263 272 208 222 273 418 151 82 26 0 2 2 8 67 190 146 157 114 84 130 110 41 32

ECMWFNIL_con_mucape_003.txt.gz
CAPE
704 656 511 422 387 371 329 334 336 426 355 366 379 433 482 501 554 700 725 702 722 788 860 756 602 645 796 794 770 747 752 864 980 1024 1005 906 731 634 521 454 612 687
708 641 570 472 404 443 489 506 497 484 494 462 439 493 585 642 700 764 834 860 865 874 852 751 590 533 552 584 600 580 539 458 412 589 638 681 589 486 494 338 257 299
736 628 504 408 402 496 580 591 583 568 539 541 578 655 739 771 802 866 918 932 917 872 803 760 742 729 708 640 560 474 394 381 408 506 559 534 442 383 283 222 228 248
627 522 387 321 359 474 541 514 446 408 398 436 492 575 681 770 881 905 926 1011 911 846 807 794 760 714 662 606 562 509 516 484 459 459 439 518 446 330 242 230 258 288
387 292 152 141 220 309 368 386 363 223 220 310 397 484 636 642 612 580 582 627 694 719 686 612 527 436 378 379 473 496 503 471 496 529 476 446 485 431 319 268 266 265
69 58 63 48 84 201 242 238 212 154 209 270 336 448 577 613 565 534 550 506 504 498 489 495 450 444 427 388 368 402 444 432 430 458 483 438 386 323 246 194 170 122
13 7 4 1 9 28 98 59 40 148 172 370 477 578 633 630 544 509 532 528 572 638 571 555 545 540 571 520 494 459 442 437 426 366 331 378 391 327 252 174 97 66
0 0 0 0 0 0 6 5 4 17 281 414 535 636 686 643 544 528 577 691 725 655 531 440 418 442 464 471 493 471 463 454 466 464 440 484 512 507 456 300 212 194
0 0 0 0 0 0 0 0 3 23 246 471 640 753 759 737 634 619 663 674 628 557 458 370 330 330 331 308 339 386 364 351 369 388 414 502 628 672 636 534 362 259
0 0 0 0 0 0 0 0 4 36 189 477 731 824 854 822 826 877 845 738 638 553 429 325 302 328 338 303 268 232 313 337 368 371 366 373 370 402 426 438 352 268
0 0 0 0 2 0 7 12 18 70 196 504 688 839 931 975 1009 1000 952 902 765 615 436 320 309 370 392 351 237 294 305 310 332 330 343 359 380 352 334 286 244 212
0 0 0 57 62 192 44 13 48 108 202 375 710 876 982 1092 1137 1158 1015 981 866 665 448 334 322 406 426 368 304 254 222 214 222 232 232 248 214 215 230 170 121 60
0 0 343 490 414 297 146 70 78 98 211 402 638 851 1003 1124 1249 1225 1143 1038 888 683 460 364 346 400 374 416 369 294 207 226 218 218 250 272 233 200 168 127 76 102
0 0 458 656 591 428 310 296 32 54 136 236 492 685 859 946 1027 1128 1104 986 838 653 453 396 294 344 312 274 213 175 228 247 181 186 169 119 40 30 32 34 25 22
0 0 500 772 696 430 244 392 414 264 159 281 426 490 613 647 726 881 933 882 764 598 410 211 285 301 183 163 126 103 132 142 135 113 65 38 109 130 108 92 60 32
0 6 384 811 775 554 397 489 557 519 376 320 276 269 306 408 488 709 823 780 688 562 323 276 353 344 50 41 12 2 2 3 64 76 60 34 72 138 128 88 60 38
0 8 501 730 689 555 474 558 711 692 575 394 303 314 357 360 506 536 548 574 580 404 217 331 396 354 0 2 2 0 1 1 0 0 26 16 2 19 43 65 60 46
0 4 44 578 411 30 19 528 794 823 698 546 450 345 336 456 429 394 351 396 501 364 267 396 406 221 1 0 0 0 0 2 2 0 0 24 36 56 58 60 69 78
0 2 38 47 22 7 12 482 765 874 793 609 457 359 373 381 344 272 251 358 454 348 211 397 354 163 6 0 0 0 0 0 0 0 0 38 87 174 202 156 111 77
0 0 0 0 0 0 12 104 651 841 806 610 412 278 226 226 218 241 305 446 509 413 212 332 339 164 40 4 0 0 0 0 3 81 56 87 225 272 234 136 74 44
0 0 0 0 0 3 47 170 638 820 764 320 140 128 140 170 242 315 454 584 444 292 299 399 346 186 56 0 0 0 0 0 14 26 107 159 262 296 110 30 9 24
0 0 0 0 0 7 256 509 716 781 673 242 275 87 70 146 251 410 558 442 312 249 273 227 253 181 64 0 0 0 0 1 22 104 188 272 298 61 59 33 1 16
0 0 0 0 0 3 345 586 791 825 625 206 122 22 25 81 237 328 512 456 306 266 244 178 214 200 83 0 0 0 0 2 9 198 285 162 36 37 10 12 14 22
0 0 0 0 0 2 261 692 870 865 597 210 112 10 15 67 334 372 480 454 375 252 266 264 232 266 134 30 0 0 0 7 2 40 93 78 58 38 13 21 38 1
0 0 0 0 0 496 704 863 904 843 655 108 2 0 172 16 314 536 475 378 296 295 374 296 377 412 199 51 0 0 0 6 5 2 47 53 38 40 34 30 22 4
6 30 7 7 80 657 923 942 887 550 5 1 2 4 237 10 55 460 560 408 399 283 299 244 414 448 258 83 44 34 38 18 0 0 0 15 36 31 48 26 4 9

ECMWFNIL_con_mucape_006.txt.gz
CAPE
78 497 481 400 210 210 189 156 204 331 304 303 304 293 314 350 435 549 630 684 726 776 779 776 769 775 866 812 638 676 724 756 897 940 1052 1097 1132 1162 1111 1082 1071 1011
25 147 385 277 146 130 105 94 215 263 316 322 335 343 365 439 522 622 744 842 907 860 829 784 734 693 648 618 660 683 708 728 750 935 884 803 838 829 782 838 769 749
0 49 50 76 57 54 92 144 198 246 238 286 308 374 473 606 673 720 790 836 930 908 896 851 825 794 754 654 652 629 645 620 585 539 670 774 750 696 704 659 588 570
0 0 2 2 1 4 42 80 94 69 86 119 167 249 345 539 744 701 657 788 665 689 690 713 752 739 704 629 601 597 602 586 582 555 502 558 626 629 601 506 395 382
0 0 0 0 0 0 0 2 12 30 50 82 169 263 407 440 492 522 528 546 596 658 672 628 651 654 645 558 511 458 498 516 562 558 526 505 553 606 564 483 340 307
0 0 0 0 0 0 0 0 0 5 21 46 218 313 413 505 553 551 538 506 566 626 616 632 648 682 645 616 588 513 507 503 534 556 529 516 552 580 607 567 413 324
0 0 0 0 0 0 0 0 0 13 8 10 155 395 487 555 569 586 563 540 581 712 722 696 666 600 602 558 525 528 530 565 552 540 495 486 563 606 625 649 551 407
0 0 0 0 0 0 0 0 0 0 0 24 84 286 531 607 660 656 647 666 716 765 790 751 681 626 519 527 458 392 400 398 394 468 513 546 508 491 571 587 539 334
0 0 0 0 0 0 0 0 0 0 1 22 117 226 427 524 640 760 831 879 938 958 919 838 742 649 537 449 428 346 195 310 317 317 356 382 444 499 524 549 506 274
0 0 0 0 0 0 0 0 0 0 8 44 160 299 447 590 697 754 830 944 1010 1017 981 897 706 684 524 451 364 270 229 182 174 316 349 357 351 393 407 399 297 308
0 0 0 0 0 0 0 2 3 2 24 160 210 285 415 590 786 916 957 1010 1080 1118 1064 898 803 729 578 427 257 268 219 166 194 298 337 390 358 330 259 329 236 218
0 0 0 0 0 4 63 22 25 24 30 43 198 313 449 624 771 904 1066 1059 1126 1133 988 887 870 722 562 452 378 106 130 148 115 156 314 186 246 244 206 168 265 288
0 0 0 0 0 0 372 345 82 125 280 284 167 289 404 594 764 823 897 972 1068 1081 1060 975 750 654 580 507 318 32 22 58 113 147 177 218 174 234 239 222 259 266
0 0 0 0 1 15 274 436 350 126 372 456 448 262 337 524 634 628 590 687 817 989 982 931 794 664 644 525 226 14 4 2 6 8 64 86 149 202 106 310 268 167
0 0 0 0 8 24 54 114 11 0 437 559 577 531 457 518 499 472 483 538 653 808 858 803 666 597 644 484 164 20 5 0 2 3 5 8 8 38 115 214 218 266
0 0 0 0 0 60 97 64 10 6 46 476 639 627 503 396 431 532 622 629 660 696 727 692 577 632 661 521 260 52 12 6 2 2 3 4 11 11 19 31 129 237
0 0 0 0 2 19 38 31 25 36 67 272 570 595 471 358 508 494 487 553 586 620 719 688 591 613 501 458 249 68 16 2 1 0 0 2 4 4 11 18 37 138
0 0 0 0 0 3 6 1 6 36 101 439 529 492 427 433 416 446 448 500 569 688 826 738 580 426 311 358 186 40 0 0 0 1 3 4 38 18 8 29 42 91
0 0 0 0 0 0 0 0 2 63 171 431 484 462 400 357 307 276 334 424 539 674 819 742 541 370 302 288 109 0 0 0 0 18 31 28 20 154 69 2 10 50
0 0 0 0 0 0 0 0 11 102 322 452 411 292 176 134 159 173 268 399 581 762 772 582 545 349 165 174 60 0 16 0 18 8 15 21 10 26 129 86 187 263
0 0 0 0 0 0 0 1 20 93 429 520 441 306 210 146 109 166 278 596 743 781 622 576 543 188 4 168 84 10 35 1 4 0 4 6 4 56 193 165 246 304
0 0 0 0 0 0 0 3 26 261 426 500 498 316 146 36 49 147 354 516 604 596 512 439 405 198 6 212 132 9 8 22 6 0 0 0 15 78 200 151 132 76
0 0 0 0 0 0 0 8 137 362 396 440 413 296 105 36 38 65 237 423 608 712 595 463 375 280 202 344 213 3 39 17 2 0 0 0 1 13 12 0 2 4
0 0 0 0 0 0 0 38 134 249 282 403 350 206 131 170 32 114 346 502 683 622 525 462 465 367 328 531 322 75 71 8 6 11 0 0 0 1 17 2 0 0
202 220 0 0 0 0 10 147 286 384 540 201 19 3 207 291 178 219 240 251 297 420 462 566 562 384 343 452 308 95 98 63 13 9 14 5 0 0 8 8 10 2
364 376 199 41 5 3 40 170 414 546 116 3 2 6 56 96 28 18 19 24 39 128 320 470 467 397 401 373 240 206 150 110 63 31 25 22 6 0 0 2 0 0

ECMWFNIL_con_mucape_009.txt.gz
CAPE
1318 1061 970 970 780 454 267 169 168 200 232 316 281 329 376 390 520 599 714 878 985 1125 1193 1248 1305 1327 1281 1336 1488 1456 1178 1321 1571 1703 1416 1210 860 770 855 683 798 920
1211 1094 1009 1023 1064 750 380 126 138 175 182 238 284 298 322 412 480 646 771 782 849 994 1011 1100 1156 1204 1250 1214 1226 1262 1335 1395 1312 1162 1334 1231 676 1304 1159 804 855 896
958 1016 878 692 618 588 508 259 136 189 203 196 219 339 317 436 529 686 798 755 821 824 946 903 868 821 842 915 960 962 1000 1098 1204 1126 1217 1386 1514 1057 1125 1030 1109 908
834 828 710 546 505 428 504 524 481 406 347 362 390 407 366 468 624 654 713 741 788 1020 1112 1108 1061 970 844 752 696 696 786 766 797 896 917 971 1303 1334 1258 930 974 722
788 708 604 488 486 528 553 493 400 394 386 457 543 568 533 636 660 664 739 753 1077 1122 1112 1185 1112 961 905 816 761 744 691 756 779 832 828 846 978 1023 1020 1072 1036 869
776 494 411 432 454 461 514 467 410 392 384 463 680 551 605 636 760 732 795 1000 1107 1072 1115 1090 994 941 882 790 739 767 708 664 696 733 790 778 752 826 864 900 910 870
603 578 502 417 460 490 601 564 540 494 481 525 599 704 635 670 751 888 1085 1111 1200 1146 1120 1068 1032 946 914 897 820 751 729 720 743 697 724 732 844 783 719 747 798 874
440 357 372 428 526 809 819 761 632 596 563 605 664 829 873 757 858 943 996 1022 952 1083 1116 1134 1139 1149 1012 948 691 655 678 625 673 584 556 606 742 804 776 612 655 796
527 390 413 619 726 886 769 675 515 579 650 637 690 657 793 960 950 994 1098 965 989 1021 1086 1143 1329 1241 1204 1055 687 540 560 574 476 472 478 431 391 404 568 684 652 524
470 466 529 494 474 745 792 700 538 682 852 886 883 904 921 962 1113 1098 1080 1073 1153 1234 1229 1079 1108 970 1079 1101 955 744 538 499 462 413 405 349 298 256 182 413 607 655
378 394 351 409 550 396 452 446 534 604 751 911 962 1016 986 970 1033 1047 998 1148 1244 1267 1209 978 708 746 791 838 740 705 593 438 356 287 277 260 229 216 132 204 230 483
403 476 413 426 443 477 599 757 998 1200 1124 906 962 928 1038 1116 1160 1115 1159 1226 1340 1384 1249 1153 927 925 1018 883 855 860 582 455 260 206 96 101 131 166 254 355 326 183
309 470 561 406 620 702 804 760 986 944 803 815 832 906 955 1145 1273 1282 1252 1331 1378 1395 1323 1376 1432 1370 1258 1011 964 850 558 512 407 124 98 66 58 38 24 48 222 401
379 604 653 711 729 918 1047 1230 1268 1294 1228 1158 1090 1031 1065 1226 1315 1404 1378 1365 1414 1422 1312 1320 1437 1384 1313 1088 904 805 630 557 416 166 89 34 21 18 11 9 12 92
631 666 682 755 856 992 1138 1244 1264 1267 1216 1127 1163 1262 1257 1312 1317 1326 1419 1469 1494 1520 1528 1404 1362 1406 1299 1040 813 693 668 435 287 106 50 26 21 16 14 12 11 15
714 743 794 932 1035 1147 1183 1166 1042 1089 1025 1065 1192 1226 1311 1410 1517 1506 1412 1362 1387 1454 1574 1588 1484 1487 1170 597 294 501 490 300 112 80 72 33 44 41 25 16 16 16
738 926 979 1031 1209 1216 1142 1095 986 932 985 1220 1372 1479 1571 1558 1586 1528 1380 1328 1325 1414 1504 1597 1476 1427 865 430 225 222 279 180 88 62 46 34 46 50 22 17 12 11
856 992 1002 1096 1262 1232 1078 918 764 856 1080 1325 1416 1586 1681 1688 1724 1593 1487 1430 1361 1406 1480 1660 1598 1256 820 405 216 203 155 81 113 90 46 26 18 7 10 12 10 8
921 894 912 1031 1210 1186 930 759 785 1001 1215 1384 1429 1462 1622 1755 1598 1539 1524 1521 1534 1626 1672 1669 1652 1439 758 368 173 178 180 83 110 96 43 23 12 1 4 7 14 12
884 884 870 1072 1154 1020 778 790 1028 1160 1260 1293 1426 1641 1734 1702 1702 1698 1711 1759 1736 1807 1816 1755 1800 1500 724 334 153 218 217 119 154 67 32 18 26 11 21 28 12 16
813 899 937 1068 1061 917 849 972 1185 1282 1348 1376 1442 1556 1561 1526 1598 1496 1500 1527 1681 1746 1728 1710 1759 1188 579 328 216 342 328 129 223 89 70 49 55 38 12 4 4 18
833 852 1070 1066 933 961 1102 1158 1297 1440 1429 1465 1434 1391 1538 1644 1648 1640 1592 1545 1566 1707 1678 1520 1325 1160 588 342 344 538 455 242 205 108 72 50 44 60 40 18 4 13
994 918 1022 1082 1022 1065 1078 960 1088 1223 1310 1434 1350 1233 1358 1530 1571 1442 1610 1546 1520 1476 1470 1288 1172 1400 804 389 319 480 356 340 272 186 140 120 52 53 80 62 22 13
1085 960 970 1055 1158 1100 831 790 826 1182 1357 1378 1242 1035 965 1012 1138 1345 1598 1708 1469 1306 952 843 818 1179 978 528 285 348 341 262 282 245 206 190 154 101 82 94 71 13
1003 1048 1012 1025 1246 1109 938 852 936 1047 1110 1256 1076 984 1043 1320 1368 1418 1445 1397 1063 1114 905 664 710 954 1218 682 341 326 360 261 304 267 248 232 208 172 155 124 122 81
971 1050 1198 1266 1382 1359 1242 1104 1129 1059 933 736 924 840 774 795 1201 1277 1382 1132 986 1276 926 941 919 1016 1452 914 469 372 394 322 390 318 277 254 230 207 195 175 156 126

ECMWFNIL_con_mucape_012.txt.gz
CAPE
460 430 345 332 323 460 584 583 563 496 544 444 364 372 512 520 595 576 546 907 1138 1103 1143 1174 1242 1244 1034 962 1087 1195 1235 1329 1314 1308 1440 1648 1520 1241 1291 1418 1272 1446
294 294 307 324 402 484 569 619 570 544 594 563 508 446 397 455 514 554 641 630 872 1009 1148 1110 1060 1092 1100 920 1004 1046 1043 1102 1163 993 1070 1267 1504 1262 1160 1344 951 1494
267 282 243 176 136 174 204 300 514 528 416 377 414 405 376 402 476 572 618 635 578 784 1107 1162 979 952 973 892 1034 982 919 1085 1119 1004 938 1023 1156 1114 1402 1309 1346 755
438 379 270 195 230 244 208 270 346 421 397 368 330 317 393 516 527 550 592 600 736 805 840 1196 1304 1156 1134 1121 1138 1082 970 1108 1115 1134 972 952 1052 891 726 736 1216 1391
426 359 342 298 273 337 379 383 357 305 345 382 318 312 376 506 574 540 588 719 822 1119 806 836 1012 1061 1048 1016 1056 1002 934 929 936 1075 1021 992 935 996 742 492 424 564
436 404 368 333 299 294 271 267 284 285 337 314 339 304 286 484 583 662 725 802 671 520 630 570 863 896 915 960 1122 1103 1015 903 927 1037 950 778 710 809 917 957 982 620
476 454 424 296 344 380 366 279 277 289 276 333 526 542 534 512 598 702 842 906 834 861 883 1021 994 1160 1121 1094 1097 1066 1017 960 972 1005 1006 928 747 656 612 639 698 964
373 269 188 203 189 216 251 248 220 195 192 399 374 329 478 566 743 810 904 1021 1049 958 1038 1220 1213 1187 1166 1212 1241 1250 1146 1017 966 994 979 919 824 725 673 670 644 526
432 258 187 196 205 112 66 36 56 70 120 189 255 210 301 476 583 738 956 1181 1260 1308 1320 1319 1068 930 1060 1156 1265 1316 1294 1200 1016 981 920 782 685 762 819 749 666 519
392 300 213 77 0 0 2 10 0 17 31 87 113 127 221 404 621 865 1022 1167 1204 1382 1532 1471 1122 860 844 931 1118 1266 1278 1110 901 853 801 637 579 579 608 558 564 546
390 298 102 42 1 0 0 0 0 0 0 17 80 182 260 333 468 681 968 1146 1176 1330 1444 1522 1260 1030 1053 1186 1256 1350 1254 941 788 708 577 400 451 619 420 584 578 444
392 238 79 11 0 0 0 0 0 2 13 2 0 0 14 62 238 470 880 1072 1304 1280 1479 1633 1549 1459 1416 1341 1389 1403 1194 828 689 644 301 264 364 463 446 452 326 296
237 108 34 0 0 3 5 0 0 0 1 3 2 2 5 70 263 553 966 1460 1608 1622 1492 1521 1562 1401 1354 1456 1606 1376 1037 910 844 686 338 395 417 410 408 437 268 179
206 40 31 60 56 68 66 36 20 20 31 54 54 27 5 38 162 459 588 736 833 1008 1183 1415 1829 1903 1624 1543 1630 1358 1024 885 884 666 522 468 413 376 306 246 163 54
205 72 72 100 72 90 57 53 41 23 24 38 38 66 86 250 401 340 481 618 842 1184 1464 1556 1950 2066 1842 1482 1154 944 1018 881 822 552 451 368 438 465 264 121 38 4
192 186 211 121 84 72 71 44 12 6 2 3 10 33 101 218 417 578 568 513 710 1118 1400 1596 1892 2114 1667 1023 764 747 724 844 830 717 478 424 545 460 96 9 6 2
218 260 200 131 132 77 87 104 38 3 0 12 110 314 364 398 438 470 530 606 893 1077 1149 1201 1431 1912 1574 913 744 418 601 892 846 784 666 642 540 153 67 19 11 6
295 262 242 170 162 129 151 98 30 2 8 55 132 218 234 217 342 454 634 908 1100 1072 998 1016 1055 1345 1426 1036 792 552 270 819 846 907 793 667 425 109 80 39 50 26
388 393 304 228 201 224 236 119 39 14 23 41 79 150 236 372 376 458 710 1002 953 934 882 833 830 1242 1431 1218 886 537 150 211 918 1011 876 747 509 226 140 94 83 48
482 522 415 326 292 322 276 150 42 22 31 62 150 255 315 390 465 504 605 784 692 683 797 904 742 1004 1353 1351 895 494 202 369 988 1058 955 786 600 274 187 124 114 95
612 662 531 467 426 389 274 161 49 59 72 112 172 218 271 339 371 483 594 673 645 576 574 557 661 735 1124 1194 880 497 371 506 981 1117 852 645 618 473 314 208 157 138
803 749 684 679 707 579 331 144 89 78 130 244 364 292 259 239 236 263 319 380 445 514 591 648 650 666 976 1023 819 488 274 718 1108 1098 1025 868 756 533 433 320 292 249
816 822 922 853 789 558 328 120 84 98 111 226 403 320 184 132 173 216 332 411 483 574 757 973 916 786 934 1046 886 551 73 1001 1266 1234 1242 1168 772 597 477 406 382 323
902 966 1014 968 858 602 393 156 72 89 127 341 466 380 257 204 248 358 450 506 500 668 723 748 482 392 650 931 883 694 462 1088 1203 1204 1174 1152 944 745 636 574 475 309
932 1026 1058 978 840 577 378 255 194 246 233 354 476 397 364 443 337 333 438 481 475 503 426 707 884 602 634 824 979 814 499 1187 1426 1339 1039 1101 1302 735 777 726 653 494
1010 1044 1191 1074 861 683 534 468 486 392 303 258 250 199 248 327 358 410 486 479 455 553 648 719 806 776 544 960 992 871 588 618 957 1027 1020 926 1119 902 609 665 608 685

ECMWFNIL_con_mucape_015.txt.gz
CAPE
474 493 404 482 420 428 444 495 504 436 510 481 512 548 516 490 522 526 472 480 472 502 506 1104 1789 1802 1211 730 931 942 870 1317 1254 1230 1161 1246 1181 1288 1166 780 685 648
389 342 359 370 410 471 448 358 330 353 476 611 652 620 573 596 552 518 562 568 506 428 452 687 842 946 1217 609 559 608 764 961 1150 931 849 839 1051 1164 1123 844 930 1039
520 301 343 394 342 304 266 241 210 260 410 458 518 534 539 433 505 577 672 581 546 474 528 752 774 754 732 798 868 879 710 995 1201 1026 802 688 1009 1100 962 762 990 790
572 547 414 350 317 312 382 239 231 347 484 542 434 426 413 541 578 637 560 544 570 568 735 820 766 912 1019 1172 1238 1260 940 1002 878 888 871 966 1158 1032 1006 1034 1054 1004
653 568 562 477 413 391 294 287 280 318 370 418 398 385 386 443 536 491 456 460 482 449 478 232 363 500 611 599 924 1042 933 766 695 874 1022 987 1036 812 686 566 680 784
632 525 501 480 445 399 338 264 252 310 388 318 361 292 244 260 338 429 486 539 462 269 292 248 340 401 388 562 787 1029 1132 1076 818 950 1152 1172 1035 914 608 425 372 468
745 617 610 654 572 488 464 363 378 330 340 373 368 362 292 230 232 323 479 537 596 716 636 702 721 769 858 1070 1118 1064 1173 1142 1088 1046 1128 1117 1020 963 740 406 528 706
902 679 530 567 553 466 308 315 292 228 280 434 331 304 189 155 224 259 286 526 696 893 936 966 990 1034 847 810 852 1102 1249 898 790 1053 1108 1059 978 848 521 426 390 401
552 476 518 430 380 361 180 144 107 49 28 94 204 192 198 173 182 247 400 594 820 1001 1044 1086 1121 1172 842 750 826 1070 1351 1151 982 1066 1048 979 886 588 424 421 404 384
470 535 436 342 182 176 103 26 0 3 25 13 54 16 24 115 197 277 346 408 630 1007 1088 1384 1383 1470 1515 954 797 1072 1297 1387 1264 1124 962 871 748 614 451 423 431 484
474 428 416 423 280 54 4 0 0 0 0 0 0 9 28 36 19 46 115 290 739 1060 1100 1215 1380 1247 956 925 1151 1278 1337 1286 1373 1158 962 903 756 580 456 331 459 683
483 462 329 257 138 32 0 3 0 4 1 8 12 6 0 0 0 0 17 194 476 1134 1656 1606 1570 1522 1957 1929 1750 1318 1162 1237 1235 1088 960 975 783 439 370 430 617 583
278 400 442 210 139 128 131 72 50 29 29 12 0 0 0 0 0 6 11 96 316 828 932 974 1304 1236 1528 1849 1843 1798 1686 1575 1452 1232 1186 884 628 540 476 548 604 476
212 236 310 255 181 222 252 221 159 197 242 181 87 29 0 0 0 4 20 88 268 314 446 776 946 1150 1482 1510 1574 1737 1618 1356 1333 1125 1010 668 678 616 550 477 496 321
339 359 287 220 192 298 308 299 307 266 248 181 76 18 1 0 6 21 98 182 277 384 685 811 1230 1267 1374 1582 1640 1711 1210 722 736 828 832 791 784 788 740 676 384 272
604 516 372 349 338 324 373 350 302 309 214 125 60 7 13 46 135 173 154 141 232 392 738 947 1260 1258 1081 985 1184 1597 1161 893 827 842 814 895 897 963 992 633 390 326
654 624 590 516 521 472 456 457 458 430 311 166 65 46 123 168 195 149 106 168 332 532 783 914 908 1046 530 868 1028 1200 1116 1056 877 872 802 686 772 1035 1190 938 499 329
569 579 588 604 619 658 610 539 499 402 305 180 93 81 147 120 170 188 255 326 522 766 846 858 924 995 727 969 1109 1152 984 1113 908 804 656 625 698 806 1104 1147 799 572
673 619 658 646 741 789 734 617 552 415 266 140 71 54 102 212 226 242 313 498 552 710 725 735 822 558 800 919 1020 1024 1025 872 978 968 739 620 659 928 954 943 951 848
700 724 730 794 858 838 765 722 625 493 259 104 55 86 186 246 222 211 216 238 301 454 488 550 634 736 652 769 904 1050 1057 908 1122 1031 894 952 958 756 752 1232 1114 995
724 812 866 894 982 940 884 816 735 507 263 147 98 111 220 419 276 183 180 192 184 197 320 403 643 387 503 670 822 920 999 807 1108 1088 962 1194 962 948 763 856 1083 1016
829 920 1030 1032 1078 1009 972 965 796 534 370 326 218 204 313 310 280 192 92 156 246 295 428 508 584 560 512 441 642 819 834 913 1224 1240 1126 1218 1142 779 750 1334 1187 1204
930 984 1117 1192 1174 1172 1296 1147 833 570 374 320 279 290 380 317 242 144 174 178 437 466 388 655 783 770 472 489 583 713 608 1276 1167 1301 1173 832 831 1035 1033 1266 1391 1322
1014 1064 1097 1110 1138 1151 1155 1058 751 574 368 284 230 254 261 394 305 292 468 458 396 505 506 453 303 291 332 402 611 670 796 1368 1178 1244 1055 1102 718 637 796 1356 1426 1028
1008 1090 1084 960 1048 1076 988 845 678 575 404 350 334 420 512 474 347 342 375 421 292 383 198 186 466 659 534 475 511 672 716 1485 1434 1388 1134 802 442 536 583 534 512 868
1118 1170 1149 983 926 886 897 889 756 531 450 544 459 303 259 259 260 190 256 450 577 468 362 326 654 569 1306 954 493 537 20 604 1308 1133 824 558 549 522 539 431 376 547

ECMWFNIL_con_mucape_018.txt.gz
CAPE
1129 1205 1221 1238 1414 926 656 640 636 554 604 729 838 1062 1142 1130 1049 1021 901 1016 936 1046 1043 1032 1038 1277 1582 1782 1423 1077 1244 1137 1340 1357 1175 1264 988 1000 962 942 523 436
988 631 970 1165 865 743 856 881 851 556 671 736 1382 1008 952 1029 892 956 1007 985 1080 964 1083 925 1034 1112 1199 1132 1217 1102 1237 1120 1078 866 1030 957 908 726 857 910 830 1070
849 426 453 540 751 528 342 444 523 600 624 702 724 966 1104 902 963 836 1053 1011 1019 981 1081 1019 958 1096 1188 1264 1430 1178 1030 1200 1170 985 1154 1222 1217 1287 1169 1026 999 965
917 713 518 332 359 270 506 553 476 726 842 1042 961 691 596 740 828 888 936 974 1040 1102 1074 944 1030 883 852 969 1054 1227 1227 1309 1120 1146 1204 1376 1362 1162 1068 977 763 652
1063 1074 832 659 511 546 764 366 323 396 642 859 536 831 1231 1138 1024 779 822 945 984 877 896 916 822 723 908 850 853 1118 1023 1170 1000 1010 1243 1227 1276 1023 1068 966 736 581
1025 831 709 698 643 557 734 586 477 270 401 378 798 536 423 626 702 757 656 659 457 544 652 663 778 896 807 878 1014 1165 1351 1458 1404 1347 1369 1301 1234 1211 1164 1100 804 650
1197 1062 848 805 740 779 857 828 752 770 424 415 626 831 746 680 726 822 813 648 649 960 927 1145 1180 1174 1146 1196 1172 1260 1295 1281 1141 1144 1062 1101 1196 1112 1082 910 746 694
1261 923 954 1047 850 950 950 752 624 839 1032 876 598 902 1006 593 755 573 636 856 682 894 1207 1201 1316 1404 1027 1032 1188 1050 994 876 982 984 1020 1017 1112 1095 1027 850 698 712
1478 1218 985 725 662 598 354 352 357 654 700 694 661 286 862 918 842 618 863 978 990 1075 1214 1249 1301 1388 1182 1428 1293 1103 1036 1033 1161 1173 1062 1181 1030 1055 995 870 742 712
1173 1003 690 450 336 541 288 260 100 64 275 722 52 193 268 501 499 623 773 934 1019 950 1056 1268 1419 1466 1560 1504 1520 1138 1117 1153 1169 1132 1146 1162 1125 1098 960 862 773 669
902 679 518 558 294 49 8 0 0 0 74 36 70 11 6 153 1038 727 694 988 738 644 823 1019 1353 1537 1574 1617 1380 1124 1222 1110 864 955 1225 1172 1137 1147 909 882 820 756
1025 655 482 505 416 305 152 64 19 198 58 4 240 14 96 13 120 291 484 840 606 687 803 927 1288 1433 1779 1776 1376 1096 702 522 327 507 656 852 1037 1094 898 835 792 797
791 832 739 247 661 570 567 210 111 37 46 122 132 205 72 0 1 184 526 538 755 643 665 778 918 960 1304 1789 1448 931 680 608 572 744 908 1032 1014 965 831 783 796 809
524 756 748 878 591 327 272 362 378 430 544 600 444 231 148 113 8 4 57 360 426 481 573 657 787 816 959 1610 1345 1004 1039 928 908 1057 1044 857 918 926 875 690 785 809
732 602 724 866 768 799 746 675 672 681 778 804 808 616 360 91 64 44 382 506 532 589 658 796 774 886 1688 1077 1221 1514 1334 1316 1288 966 866 861 911 877 852 979 930 994
1030 866 892 930 748 733 861 898 656 864 631 755 852 622 464 404 669 652 312 317 572 661 677 674 760 1220 1184 564 479 1232 1476 1335 1053 1055 1025 1034 1015 970 804 730 872 944
1167 1108 1033 929 913 860 916 910 1017 924 966 1052 1131 1007 938 667 615 767 431 442 422 412 546 717 859 1124 875 640 462 287 1083 1378 1235 1091 1038 1002 939 856 804 814 1090 1245
1229 1293 1188 1140 1083 1129 1171 1160 1114 1132 1115 1094 1013 824 998 959 589 616 708 654 485 496 528 632 747 524 699 676 357 433 654 1296 1206 999 972 950 938 883 813 1084 1195 1084
1358 1296 1259 1238 1208 1202 1319 1309 1356 1301 1163 1011 870 824 793 894 793 729 830 913 788 731 618 540 582 404 138 431 456 460 522 716 1237 1227 1071 1052 979 944 1006 1310 1286 1140
1340 1242 1194 1235 1277 1310 1373 1466 1335 1310 1239 862 748 764 726 821 934 924 904 925 894 797 821 715 862 302 27 239 432 462 480 560 1169 1218 1172 1055 1039 932 934 1101 1177 1164
1414 1350 1285 1292 1368 1368 1454 1486 1442 1370 1312 1135 752 641 706 931 1043 933 932 741 686 510 412 783 1202 44 10 0 160 298 360 408 1112 1224 1168 1124 1180 1233 1308 1150 833 867
1439 1413 1382 1380 1384 1450 1474 1473 1528 1573 1431 1383 1209 826 778 730 716 805 794 708 712 546 730 762 546 193 22 0 0 0 0 648 1221 1332 1368 1268 1259 1598 1247 870 904 786
1288 1263 1358 1408 1424 1440 1485 1445 1556 1707 1643 1448 1145 955 838 812 846 726 746 827 542 671 970 845 723 1079 210 0 0 0 170 1019 1339 1399 1405 1396 1594 1660 1374 1202 1234 1244
1475 1364 1396 1453 1534 1536 1595 1590 1564 1688 1599 1467 1148 872 574 418 390 599 858 805 751 596 394 426 357 1063 224 0 0 0 102 1153 1427 1544 1359 1440 1492 1466 1310 1163 1093 916
1508 1486 1440 1449 1588 1521 1321 1330 1460 1610 1572 1302 1058 858 702 877 829 712 628 604 291 182 424 376 368 544 462 133 0 0 336 806 1429 1483 1248 1189 1191 1056 1038 1071 870 776
1386 1560 1606 1500 1594 1633 1528 1597 1604 1147 1044 962 1023 687 614 653 637 591 666 333 224 167 270 728 804 1262 748 0 0 362 361 420 886 963 911 826 802 963 788 546 489 698

ECMWFNIL_con_mucape_021.txt.gz
CAPE
451 421 808 98 593 414 124 142 408 327 407 376 321 318 532 662 752 583 606 808 796 737 756 835 900 1230 1434 1388 1482 1116 1040 983 988 911 980 815 692 628 538 740 744 603
698 594 1236 526 517 644 375 233 570 392 230 29 14 514 664 535 482 510 712 593 763 660 716 779 756 906 929 944 1171 738 640 740 745 1048 882 793 817 785 753 875 783 688
450 679 420 236 70 84 75 432 432 138 170 324 376 314 471 662 708 713 552 496 535 748 744 720 828 652 785 975 1040 880 825 868 931 1060 1110 947 914 954 1053 935 722 628
500 326 162 160 214 240 181 265 285 134 17 36 266 597 238 217 294 395 497 1318 731 654 757 768 684 684 697 805 910 1046 1225 1188 1184 1048 834 994 1256 1105 771 868 841 452
547 375 198 266 196 298 806 87 74 35 106 210 439 253 549 828 633 453 363 422 654 592 568 649 772 806 840 807 801 804 925 940 1010 982 940 1004 1102 1080 1032 744 674 565
754 332 449 234 230 180 66 40 24 22 124 127 14 172 305 262 154 145 266 385 312 247 266 441 564 702 743 718 782 798 828 988 1125 1098 1076 1112 978 1031 1014 908 778 602
748 522 458 351 354 296 231 228 206 258 49 28 245 222 258 199 132 240 384 421 341 445 503 522 825 880 951 925 885 902 1028 1027 1031 1019 847 806 894 924 829 670 644 544
633 392 361 256 209 234 349 419 369 277 206 164 54 48 339 326 312 358 420 236 336 395 463 740 783 952 1076 998 983 980 951 985 797 802 791 507 354 724 688 571 436 439
786 554 539 446 360 498 567 537 364 167 136 202 256 260 431 359 336 396 336 265 379 380 408 625 879 908 1127 918 936 895 823 880 900 961 891 671 575 490 364 478 532 526
946 840 641 590 539 535 434 208 157 132 169 154 114 117 123 417 576 470 358 390 369 491 554 658 767 1154 1197 1187 1118 1194 864 802 711 512 566 780 547 435 510 603 596 497
960 803 600 408 208 158 129 80 66 24 82 17 0 0 0 0 0 186 294 429 481 419 614 650 761 945 1163 1189 1316 1251 1010 740 606 492 280 219 290 418 545 659 626 542
698 585 370 241 160 83 16 4 3 0 0 0 19 0 0 1 0 0 97 168 297 537 473 471 580 985 1006 1005 1383 1217 992 836 682 441 334 325 382 406 425 491 590 546
649 560 292 195 224 151 133 98 8 4 40 77 55 68 1 0 0 0 126 224 238 64 128 277 321 478 725 1095 1472 1279 1078 820 528 351 302 346 419 450 508 612 552 462
568 572 275 166 177 274 190 107 56 106 26 86 202 38 39 19 5 0 1 96 50 70 82 133 110 98 328 1014 1395 1113 729 404 464 360 396 466 562 570 467 454 447 463
674 534 306 288 382 237 142 88 100 80 140 208 164 247 334 105 21 2 27 20 28 26 50 147 290 399 955 1175 1052 687 563 690 668 586 607 671 482 409 458 486 490 475
702 521 394 281 266 161 62 62 106 202 240 196 217 248 312 274 62 177 276 43 6 203 304 268 318 680 1346 886 715 686 799 938 1024 1026 816 493 456 479 504 508 466 435
212 235 210 273 188 112 143 209 208 264 233 232 393 408 170 144 388 16 0 12 160 89 28 80 301 628 882 799 686 580 680 835 959 814 610 545 514 461 438 462 465 469
158 170 214 206 178 186 189 207 302 319 312 320 398 496 525 465 282 210 223 220 214 131 74 116 254 475 336 160 328 76 198 488 628 729 658 529 494 479 500 546 547 663
285 300 264 292 262 230 237 368 360 398 468 475 500 480 504 471 357 335 378 209 228 264 370 296 218 190 60 0 0 1 2 130 331 574 699 679 596 577 605 592 528 569
434 485 470 387 366 350 394 410 536 552 520 530 508 521 508 436 417 248 143 326 380 277 226 205 228 75 0 0 0 0 0 8 174 468 673 722 722 678 627 622 654 732
683 608 640 619 606 538 466 516 605 622 669 652 588 567 522 389 226 275 434 555 442 162 54 98 448 1 0 0 0 0 0 0 38 475 700 748 743 689 673 758 893 912
748 722 672 708 681 647 637 611 634 680 710 721 708 623 528 439 424 438 336 274 210 223 207 371 550 0 0 0 0 0 0 0 34 229 456 622 803 911 892 989 1012 934
774 723 692 676 678 664 644 656 688 731 756 799 840 745 646 592 450 316 282 224 199 205 358 68 185 122 0 0 0 0 0 4 234 483 676 902 1026 981 948 1008 1074 1050
930 780 712 688 678 657 662 664 715 796 848 955 905 871 757 676 571 374 329 335 343 282 340 98 120 476 0 0 0 0 0 196 670 840 655 706 828 822 794 827 887 1203
1105 919 818 754 694 670 658 709 786 866 952 1075 1007 882 800 774 608 364 239 312 318 151 566 181 33 397 0 0 10 0 0 30 482 824 875 682 524 471 341 481 327 136
1347 1114 880 775 736 690 681 738 856 964 1055 1109 1076 911 794 654 529 400 242 159 55 83 540 269 230 292 593 542 50 0 0 4 19 256 311 206 67 190 197 10 0 0

ECMWFNIL_con_mucape_024.txt.gz
CAPE
42 7 3 29 15 17 84 0 0 0 0 0 0 0 13 66 163 208 171 219 271 212 259 381 614 943 1085 880 946 1187 940 774 807 784 943 815 657 637 644 697 719 734
3 87 347 32 235 236 0 0 0 0 0 3 1 0 4 156 187 184 118 285 432 324 189 275 374 460 610 714 832 875 613 597 628 885 844 818 796 788 791 840 889 791
6 229 212 16 26 26 0 0 36 5 4 0 0 3 68 298 52 85 116 122 121 135 196 216 228 370 467 486 675 755 629 570 648 675 853 950 840 844 936 981 882 798
612 212 35 0 0 0 0 30 78 1 0 0 0 10 158 300 164 142 97 892 147 180 230 281 350 426 417 461 592 641 656 712 681 778 902 841 845 1012 961 815 747 687
768 542 0 0 0 0 2 10 15 1 0 0 0 18 224 132 84 22 39 76 198 174 183 290 232 290 461 534 562 533 656 707 683 797 813 759 748 865 922 872 758 644
731 528 1 0 0 2 1 0 0 0 0 0 0 89 72 89 67 50 20 3 22 96 110 76 111 162 262 291 328 301 387 558 554 729 836 784 764 818 842 894 679 419
654 574 218 6 0 0 0 0 0 20 0 0 0 0 0 12 4 0 0 0 1 52 5 18 97 244 472 554 554 546 556 578 603 689 736 732 712 534 485 652 434 309
736 640 479 18 1 0 0 0 0 22 15 0 0 0 0 1 0 0 0 3 32 18 33 32 75 185 253 512 652 637 670 739 756 763 701 677 568 541 448 337 304 282
737 639 497 336 17 3 16 10 19 9 10 9 0 0 0 0 0 0 2 24 29 36 32 44 84 145 195 511 650 533 493 546 619 641 672 697 641 518 416 348 250 62
662 607 518 429 27 31 22 36 72 66 66 2 0 0 0 1 26 19 25 28 23 34 25 27 63 127 238 532 672 681 700 709 620 497 453 401 411 430 371 227 171 192
652 635 542 454 415 99 124 148 158 134 60 29 0 0 0 0 8 57 38 26 46 28 20 38 85 150 250 572 712 734 773 722 648 595 466 370 240 90 163 79 172 209
714 670 570 510 494 488 165 166 135 43 0 0 0 0 0 0 0 0 12 0 2 15 15 36 68 112 199 272 528 753 797 791 744 583 510 353 150 16 16 11 26 104
715 634 586 607 620 562 452 50 23 1 0 0 0 0 0 0 0 0 4 0 8 23 17 29 18 19 83 174 317 678 855 835 703 614 547 333 124 80 78 92 117 168
745 701 698 729 676 592 201 1 0 0 0 0 0 0 0 0 0 0 0 11 0 0 0 0 0 0 0 3 161 608 837 835 781 677 428 255 131 88 104 162 208 214
838 817 798 781 614 540 6 0 0 0 0 0 0 0 0 0 0 0 0 0 0 0 0 0 0 0 0 2 233 615 830 851 765 592 383 296 234 195 210 167 6 2
872 841 760 538 115 52 18 3 0 0 0 0 0 0 6 39 5 0 0 0 0 0 0 0 11 44 281 306 537 651 722 685 570 445 414 397 374 404 317 89 0 0
768 728 612 460 534 539 10 0 0 0 0 0 0 1 7 21 51 1 4 0 0 0 0 0 0 5 50 134 519 695 537 114 162 399 468 560 653 626 53 36 15 0
819 670 432 572 609 591 15 0 0 0 0 0 0 4 5 12 20 8 0 0 0 0 0 0 0 6 3 2 49 375 558 565 502 507 558 612 676 495 276 8 20 237
1008 852 717 677 668 621 12 0 0 0 2 5 12 14 13 53 198 30 5 0 5 20 16 10 16 19 3 0 0 0 5 418 431 404 383 385 355 310 263 236 256 314
1123 1052 947 871 802 684 529 10 11 19 21 23 28 32 146 218 220 220 219 199 129 118 43 34 23 29 14 0 0 0 0 3 17 19 132 103 296 287 276 316 347 349
939 954 1042 1062 883 671 496 384 288 27 36 40 134 219 237 237 245 279 262 236 232 147 46 51 40 83 1 0 0 0 0 0 0 12 40 61 290 358 375 356 356 458
560 525 829 867 694 479 331 113 33 42 57 178 249 278 281 304 335 350 363 329 230 151 194 194 34 38 0 0 0 0 0 0 0 0 9 72 97 189 186 388 628 703
561 481 377 340 153 104 101 90 128 276 261 282 362 400 399 422 438 452 474 430 285 186 171 62 51 167 109 0 0 0 0 0 0 0 6 30 98 295 591 670 586 558
516 411 269 314 326 326 208 308 330 404 441 452 505 535 548 559 554 565 577 578 489 315 175 176 188 86 0 0 0 0 0 40 0 2 56 410 541 439 426 404 286 586
595 567 491 467 470 469 465 487 508 499 491 532 598 648 655 679 634 626 662 508 159 266 256 288 238 244 0 0 0 0 86 179 8 162 319 314 331 206 46 0 0 8
817 761 701 640 618 612 481 490 527 538 443 317 562 717 757 722 674 648 670 452 0 8 199 254 172 187 222 0 0 197 260 91 16 255 159 157 188 155 0 0 0 0

ECMWFNIL_con_mucape_027.txt.gz
CAPE
0 0 0 0 0 0 0 0 0 0 0 0 0 0 0 4 1 16 29 16 68 50 44 25 98 369 544 534 499 487 551 589 411 128 207 600 683 506 449 479 562 578
0 5 74 0 0 12 0 0 0 0 0 0 0 0 0 0 4 27 5 10 115 146 8 1 31 110 175 501 480 329 534 567 152 333 173 186 460 478 515 520 580 676
0 3 6 0 0 0 0 0 0 0 0 0 0 0 0 1 0 12 0 0 13 46 8 0 0 9 23 45 65 155 192 18 12 2 256 386 445 499 522 537 603 643
0 0 0 0 0 0 0 0 0 0 0 0 0 0 0 15 23 4 0 312 5 0 0 0 0 0 1 2 8 32 51 23 5 2 26 276 468 482 472 541 606 516
0 1 0 0 0 0 0 0 0 0 0 0 0 0 28 58 45 0 0 2 26 0 0 0 0 0 0 0 0 3 17 32 16 17 241 351 389 397 445 505 563 566
6 344 450 0 0 0 0 0 0 0 0 0 0 0 0 0 4 1 0 0 0 0 0 0 0 0 0 0 0 0 5 45 41 18 121 316 351 334 366 501 561 589
367 510 428 0 0 0 0 0 0 0 0 0 0 0 0 0 0 0 0 0 0 0 0 0 0 0 0 0 0 1 0 0 3 1 139 275 320 341 381 403 437 430
400 457 462 457 381 0 0 0 0 0 0 0 0 0 0 0 0 0 0 0 0 0 0 0 0 0 0 0 0 1 3 19 54 274 298 318 355 352 360 313 313 294
413 546 713 712 546 0 0 0 0 0 0 0 0 0 0 0 0 0 0 0 0 0 0 0 0 0 0 0 0 2 26 27 67 78 326 336 304 292 303 328 322 278
560 708 868 820 627 280 0 0 0 0 0 0 0 0 0 0 0 0 0 0 0 0 0 0 0 0 0 0 0 0 7 22 8 5 8 5 300 278 246 209 183 159
716 862 940 841 674 502 0 0 0 0 2 0 0 0 0 0 0 0 0 0 0 0 0 0 0 0 0 0 0 3 12 24 22 6 146 368 320 312 291 223 136 0
705 806 867 785 732 576 0 0 0 0 0 18 0 0 0 0 0 0 0 0 0 0 0 0 0 0 0 0 2 16 17 12 13 389 406 367 371 346 288 154 1 0
724 818 881 832 772 585 216 0 0 10 35 2 7 0 0 0 0 0 0 0 0 0 0 0 0 0 0 0 0 1 3 7 62 386 465 480 428 368 333 190 20 0
790 919 1007 916 792 595 0 3 15 21 28 0 0 0 0 0 0 0 0 0 0 0 0 0 0 0 0 0 0 0 0 2 12 340 426 463 396 370 331 186 16 0
670 957 984 892 774 641 71 7 17 5 0 0 0 0 0 0 0 0 0 0 0 0 0 0 0 0 0 0 0 0 0 1 10 191 339 365 368 364 292 167 0 0
692 830 924 868 806 721 542 444 167 166 0 0 0 0 0 0 0 0 0 0 0 0 0 0 0 0 0 0 0 1 0 3 26 209 286 337 352 344 288 205 123 122
612 752 832 861 881 686 642 524 150 0 447 0 0 0 0 0 0 0 0 0 0 0 0 0 0 0 0 0 0 10 37 6 20 192 258 284 277 264 253 223 173 138
535 725 840 886 828 808 593 606 456 472 456 208 0 0 0 0 0 0 0 0 0 0 0 46 10 0 0 0 0 0 60 198 160 197 224 216 204 215 248 263 265 253
493 635 846 854 714 594 510 357 502 516 439 180 0 0 0 0 0 0 0 0 0 0 139 118 63 24 0 0 0 0 0 33 166 231 254 268 272 267 279 294 306 286
508 662 763 669 569 367 314 346 436 438 410 383 0 0 0 0 0 0 0 0 0 2 201 202 151 92 50 0 0 0 0 0 8 27 181 265 262 228 215 244 251 188
562 741 359 335 261 400 416 324 324 400 456 463 0 0 0 0 0 0 0 88 180 214 231 236 211 194 144 38 0 0 0 0 0 0 1 0 0 26 127 180 201 144
781 280 237 292 396 413 404 397 430 487 569 597 398 104 1 0 0 0 0 179 205 231 260 298 315 261 152 61 39 0 0 0 0 0 0 0 0 0 23 135 164 140
685 344 354 368 482 474 388 358 413 588 741 693 498 412 376 368 330 5 9 6 100 257 320 397 409 325 174 82 56 49 5 0 0 17 20 0 0 0 0 48 0 271
812 151 446 442 409 320 172 363 540 710 902 785 558 423 363 279 19 95 54 15 120 348 423 490 523 484 311 182 150 134 97 39 0 5 2 0 0 19 22 174 308 315
1009 699 510 529 470 327 285 460 730 972 1015 703 479 318 406 390 228 89 37 92 124 466 527 561 642 561 199 144 212 232 184 165 49 0 0 0 27 2 138 165 0 86
1122 882 762 608 522 379 313 469 732 854 676 410 480 592 665 743 732 574 457 482 566 579 615 638 685 684 458 130 135 229 169 128 113 81 0 0 0 0 1 0 145 160

ECMWFNIL_con_mucape_030.txt.gz
CAPE
2303 2421 2456 2300 1768 564 0 0 0 0 0 0 0 0 0 5 0 0 15 2 22 10 2 8 78 220 443 228 319 290 338 202 223 18 23 63 78 64 166 64 3 40
2507 2532 2349 1912 907 0 0 0 0 0 0 0 0 0 0 0 0 2 0 2 75 103 10 6 17 68 96 229 178 236 228 294 346 322 111 58 130 19 82 47 112 255
2570 2406 2030 1270 0 0 0 0 0 0 0 0 0 0 0 0 0 0 0 0 2 17 30 10 2 16 48 60 74 177 280 126 165 48 206 167 58 58 118 46 208 254
2503 2250 1648 772 0 0 0 0 0 0 0 0 0 0 0 0 0 0 0 276 9 0 4 2 6 0 2 6 12 40 65 92 90 20 26 108 182 134 133 223 208 212
2417 2044 1278 552 0 0 0 0 0 0 0 0 0 0 3 0 1 0 0 2 21 7 0 1 0 0 0 0 0 13 22 66 43 10 20 47 76 192 252 240 251 252
2334 1763 1040 140 0 0 0 0 0 0 0 0 0 0 0 0 0 0 0 0 0 8 6 0 0 0 0 0 0 1 14 50 57 11 34 86 153 77 156 231 244 263
2304 1584 875 44 0 0 0 0 0 0 0 0 0 0 0 0 0 0 0 0 0 12 13 6 0 0 0 0 0 2 0 1 2 1 29 80 102 128 137 151 228 262
2260 1510 725 0 0 0 0 0 0 0 0 0 0 0 0 0 0 0 0 0 0 0 0 0 0 0 0 0 0 0 0 0 1 0 1 30 23 137 136 142 121 196
2248 1526 518 0 0 0 0 0 0 0 0 0 0 0 0 0 0 0 0 0 0 0 0 0 0 0 0 0 0 0 0 0 21 24 27 59 46 122 156 189 59 27
2212 1511 323 0 0 0 0 0 0 0 0 0 0 0 0 0 0 0 0 0 0 0 0 0 0 0 0 0 0 0 0 0 0 6 31 57 83 97 60 186 201 14
2156 1393 276 0 0 0 0 0 0 0 0 0 0 0 0 0 0 0 0 0 0 0 0 0 0 0 0 0 0 0 0 2 10 12 3 15 37 70 117 220 42 30
2066 1370 280 2 0 0 0 0 0 0 0 0 0 0 0 0 0 0 0 0 0 0 0 0 0 0 0 0 0 1 8 11 30 39 29 21 22 14 26 50 67 69
2084 1463 444 81 0 0 0 510 290 0 0 0 2 0 0 0 0 0 0 0 0 0 0 0 0 0 0 0 0 0 8 34 44 34 43 42 32 33 18 3 275 254
1734 1878 289 5 72 307 510 691 605 0 2 2 12 5 0 0 0 0 0 0 0 0 0 0 0 0 0 0 0 1 12 28 55 84 80 56 60 37 10 274 316 290
1468 603 191 242 286 337 518 718 697 448 129 16 21 1 7 0 0 0 0 0 0 0 0 0 0 0 0 0 0 0 0 30 54 89 115 121 82 35 10 86 272 272
822 202 254 334 324 34 466 720 771 572 209 12 0 0 0 0 0 0 0 0 0 0 0 0 0 0 0 0 0 1 0 1 19 43 54 54 102 114 60 41 181 202
896 284 419 214 38 7 471 670 741 657 444 191 122 0 0 0 0 0 0 0 0 0 0 0 0 0 0 0 0 0 4 2 8 30 53 61 73 99 169 218 136 126
1271 771 536 262 138 388 533 635 696 690 530 400 212 0 0 0 0 0 0 0 0 0 0 0 0 0 0 0 0 0 7 75 30 29 44 56 70 88 123 178 183 155
1239 916 370 285 443 502 598 621 725 785 609 462 219 0 0 0 0 0 0 0 0 0 0 0 0 0 0 0 0 0 0 16 62 56 44 64 52 68 108 154 205 215
1048 903 610 328 429 630 636 695 760 788 635 598 499 0 0 0 0 173 390 0 0 0 0 0 0 0 0 0 0 0 2 4 12 20 54 82 107 130 165 216 217 206
1353 929 872 633 228 503 650 738 809 777 714 673 478 0 0 1 50 373 348 0 0 49 0 1 0 0 0 0 0 0 0 0 0 12 10 28 88 136 173 227 196 180
1524 1088 924 654 283 377 646 703 743 796 845 752 243 2 67 337 438 439 349 6 1 86 30 12 33 0 0 0 0 0 0 0 0 0 1 16 25 46 68 72 98 116
1643 1237 896 527 260 309 532 724 768 706 682 498 4 5 232 412 488 504 475 188 11 12 6 19 69 28 0 74 262 293 212 57 0 0 0 3 28 52 70 62 64 72
1516 1195 1023 435 84 259 480 605 379 98 120 76 257 168 354 454 487 558 608 513 215 58 38 42 58 122 160 0 314 408 411 367 156 0 0 0 93 116 127 122 85 133
1541 1314 1030 516 151 285 364 194 62 106 108 31 424 563 564 536 583 714 803 701 699 656 725 824 778 561 382 309 264 447 487 541 547 366 24 132 175 204 65 0 0 66
1510 1098 844 404 243 400 120 7 19 36 50 266 503 482 482 563 654 810 958 872 941 975 824 854 848 677 391 502 474 524 570 602 603 592 469 292 149 124 0 8 0 0

ECMWFNIL_con_mucape_033.txt.gz
CAPE
3180 3006 2751 2358 2177 2061 2143 2146 1970 1659 1328 1086 942 887 971 912 892 988 813 865 850 706 882 795 676 744 695 909 1059 942 781 662 638 558 673 701 642 592 501 564 734 546
2981 2773 2554 2326 2090 2116 2218 2269 2204 1882 1365 1255 1075 1186 1155 1221 1046 853 861 758 779 683 720 600 719 647 667 697 999 911 830 680 575 568 606 685 594 582 514 444 391 476
2740 2537 2445 2224 2075 2178 2279 2373 2306 1934 1181 1053 1106 1176 1088 1138 1140 1114 942 707 690 575 776 697 690 696 674 680 938 915 765 694 607 486 622 519 456 554 530 351 364 426
2506 2368 2246 2117 2130 2238 2361 2460 2288 1415 1068 1108 977 911 946 959 1040 1082 1095 962 884 832 682 593 527 487 679 721 921 778 760 809 611 584 640 678 649 509 393 495 507 470
2278 2047 2028 2102 2205 2331 2502 2529 2023 998 841 925 920 1052 1042 1052 1006 904 929 1030 1015 822 819 730 741 598 833 696 894 698 666 652 724 986 842 628 722 708 524 534 569 514
2045 2040 2112 2192 2289 2445 2594 2462 1373 895 892 928 992 872 813 1020 917 719 648 564 519 522 494 481 656 578 631 723 934 708 576 474 542 947 870 654 505 624 636 677 646 568
2042 2084 2156 2227 2386 2589 2608 2201 1048 967 910 841 1103 1012 968 911 963 810 704 596 467 596 590 648 901 706 862 894 886 866 962 779 729 1044 971 766 832 815 898 971 844 742
2067 2130 2253 2301 2501 2631 2479 1740 939 1038 1096 1106 1008 1183 1151 895 940 811 827 885 586 961 1122 1045 1144 1197 924 948 898 868 730 822 808 1025 1091 915 1077 1008 845 986 956 882
2052 2186 2287 2479 2624 2626 2330 1262 770 1008 1001 998 912 844 981 930 905 778 1029 1077 945 1024 1224 1229 1377 1299 1188 1141 1008 956 850 666 698 816 836 694 689 800 849 906 913 858
2049 2139 2438 2568 2617 2420 1746 829 330 685 753 847 836 702 734 775 799 852 938 1012 888 934 1062 1116 1207 1188 1120 1129 1099 998 928 915 972 1104 1056 962 833 727 542 744 732 719
2246 2420 2356 2483 2453 2237 1318 440 164 210 342 440 568 487 511 525 522 612 754 804 680 796 978 1084 1038 1098 1142 987 951 880 884 840 879 990 1081 1092 1072 981 910 749 727 686
2049 2284 2342 2402 2504 2282 1245 369 152 284 188 209 301 281 287 221 498 468 442 624 682 779 960 1067 1052 1106 1113 1006 848 924 910 835 801 921 918 999 1034 1024 909 936 832 787
1741 2048 2250 2180 2032 2111 1380 156 46 44 50 48 89 93 112 116 192 414 538 560 663 650 736 889 982 930 1017 1032 1017 1003 998 988 917 990 1096 1152 1136 1006 938 894 920 979
1723 1764 2007 2242 2136 1394 494 90 35 49 58 79 166 88 36 102 198 314 346 403 536 580 719 816 962 1014 1067 1109 1094 1095 1094 1124 1173 1290 1258 1248 1224 1169 1021 878 872 844
1670 1523 1734 2300 1884 1012 397 216 70 58 142 147 172 147 124 142 225 237 369 378 436 599 724 817 930 1050 1108 1124 1160 1242 1304 1293 1416 1355 1150 1100 1092 912 880 1053 882 859
1641 1546 1376 1977 1756 700 374 123 79 90 176 200 215 194 304 318 289 338 298 370 516 639 769 950 948 1002 725 142 369 1140 1452 1308 1174 1111 1057 902 948 818 672 860 979 946
1630 1476 1322 1501 1378 576 246 243 254 294 349 369 362 458 464 382 373 323 255 332 419 539 705 744 793 836 132 0 0 6 757 1042 1076 1127 1096 1104 931 889 736 566 764 1227
1706 1546 1456 1390 1228 791 415 346 362 424 426 516 510 486 546 495 323 316 317 274 280 344 448 613 739 286 0 0 0 0 57 635 798 766 802 850 808 786 892 883 890 1057
1761 1739 1720 1704 1435 1145 754 481 453 472 614 604 606 682 585 609 490 320 249 244 271 367 395 492 615 206 0 0 0 0 0 86 564 804 723 752 844 1004 960 1150 1245 1311
1782 1777 1793 1790 1718 1471 1057 804 655 487 494 670 753 908 671 578 556 437 338 376 365 437 577 674 785 370 0 0 0 0 0 4 257 731 885 882 980 1083 1146 1197 1300 1332
1720 1742 1794 1735 1654 1624 1266 1079 908 638 657 846 897 943 800 702 588 541 570 541 498 543 688 848 969 289 0 0 0 0 0 0 124 549 734 1022 1170 1226 1322 1350 1369 1420
1698 1684 1697 1520 1516 1512 1469 1127 1058 806 825 1030 1032 986 882 722 658 648 619 557 666 744 701 827 936 360 0 0 0 0 0 0 205 519 740 927 1122 1216 1281 1463 1440 1393
1677 1654 1494 1510 1513 1328 1284 1215 1091 824 964 1048 935 958 886 764 715 722 684 702 712 855 877 915 1054 665 0 0 0 0 0 128 384 637 848 978 1142 1204 1094 1260 1139 1002
1723 1732 1730 1642 1516 1346 1224 1141 937 964 992 1047 988 1038 961 921 876 857 886 869 789 866 862 1028 1135 928 514 562 636 672 579 355 648 925 1017 1051 545 328 312 306 317 135
1777 1799 1800 1731 1571 1348 1111 1126 798 899 1020 940 915 1004 1039 1083 912 954 992 1053 1031 1012 800 675 868 766 707 713 787 754 690 290 364 630 676 718 500 393 359 547 533 367
1818 1783 1854 1716 1454 1330 1178 1094 1032 1053 930 874 876 916 955 1056 1134 1081 1118 1147 1157 1012 818 688 668 885 1007 1003 878 840 751 624 476 415 497 572 500 473 666 471 379 292

ECMWFNIL_con_mucape_036.txt.gz
CAPE
4600 4354 4281 4037 3892 3454 3437 3481 3262 3110 2833 2428 2102 1890 1376 1249 888 758 728 832 976 841 848 918 792 808 901 948 969 833 859 937 687 531 563 493 426 374 297 356 400 407
4654 4620 4427 4204 3893 3620 3540 3464 3300 3241 3056 2651 2154 1860 1421 1342 1150 890 860 903 1059 817 914 949 941 936 989 816 1012 941 1054 804 733 560 566 569 543 469 377 335 323 358
4752 4730 4671 4442 3955 3920 3638 3678 3483 3339 2957 2685 2195 1883 1673 1524 1383 1058 971 962 989 751 844 972 974 1059 903 786 1017 926 802 950 708 476 574 612 492 504 380 240 198 258
4890 4798 4675 4340 4023 4080 3830 3708 3540 3369 3005 2494 2296 2008 1703 1474 1238 1159 1006 987 910 788 775 843 805 839 774 779 992 915 867 978 785 610 569 568 494 367 276 242 240 237
4908 4785 4586 4282 4093 4092 3920 3634 3350 3272 3025 2730 2460 2034 1681 1362 1109 1076 1004 1086 944 844 789 844 843 643 790 777 952 825 662 763 671 566 548 474 414 372 293 260 298 258
4894 4758 4520 4316 4184 4158 3735 3556 3436 3178 3059 2701 2425 1838 1524 1414 1026 749 922 946 914 660 514 673 714 616 630 742 786 637 510 404 432 589 591 532 378 259 201 249 288 298
4796 4590 4353 4117 4070 3932 3708 3552 3423 3129 2828 2544 2184 1685 1274 1187 991 735 912 1002 767 664 478 470 664 554 508 542 547 671 604 659 541 561 610 485 438 382 280 258 292 328
4426 4257 4170 3962 3880 3814 3614 3423 3279 2980 2722 2186 1936 1725 1294 850 901 848 978 965 716 503 476 540 645 708 568 435 563 600 653 549 450 430 544 567 467 450 380 316 304 384
4096 3853 3586 3148 3427 3425 3224 3172 3054 2890 2468 2221 1844 1377 1362 848 845 906 1024 1112 859 550 642 730 816 919 682 526 566 607 608 476 400 510 570 515 498 516 453 385 354 370
3814 3536 3213 2960 2945 2982 2861 2824 2769 2815 2530 2224 1584 868 1274 1200 942 1082 1179 1296 1047 681 721 869 896 924 754 574 788 875 730 608 611 626 597 560 564 580 465 458 468 474
3697 3392 3176 2969 2974 2717 2771 2615 2426 2163 2187 1670 1308 904 1246 1420 1330 1329 1310 1412 1063 781 726 732 744 855 750 604 691 762 783 741 777 858 844 852 728 644 547 573 521 577
3664 3198 3086 2957 2869 2674 2536 2426 2180 1714 1559 1172 1265 938 876 1012 1202 1233 1288 1286 1098 832 768 651 709 766 728 729 647 714 842 866 806 851 822 884 779 665 624 610 581 625
3772 3368 3135 2786 2688 2642 2499 2093 1805 1684 1152 924 714 582 724 698 828 963 1091 1131 1144 1061 792 658 760 810 939 1035 978 820 891 1016 907 863 968 958 908 768 540 406 534 687
3676 3295 2959 2674 2468 2508 2338 1972 2016 1530 1238 983 848 635 633 586 561 853 872 877 956 1080 990 814 800 954 1106 1062 840 849 912 1018 1197 1128 950 842 908 906 709 442 456 600
3208 3032 2855 2890 2719 2852 2728 2457 2179 1866 1316 1132 1004 726 476 416 388 454 678 1015 1038 1161 1100 890 802 923 886 772 926 1066 1134 1070 1191 1162 1108 848 672 619 572 678 549 395
2538 2850 2776 2810 2527 2571 2628 2607 2244 1809 1312 1178 1092 704 752 713 369 406 532 996 1084 1190 1089 1053 995 896 837 672 792 1036 1154 1260 1128 1057 1018 854 719 726 646 522 484 575
2332 2387 2571 2648 2626 2543 2519 2577 2272 1982 1448 1367 1311 991 963 1134 999 826 729 971 1012 982 1086 1060 1024 963 881 817 716 506 848 702 901 963 1063 986 774 746 771 621 456 438
2544 2204 2134 2650 2799 2750 2539 2582 2402 2060 1677 1683 1534 1478 1387 1326 1216 1214 1244 1072 1009 971 1042 1138 1108 954 876 726 430 3 174 864 533 557 842 883 864 773 681 637 668 587
2573 2382 2174 2279 2796 2788 2379 2282 2132 1978 1733 1602 1554 1560 1397 1607 1453 1425 1629 1463 1210 1168 1014 978 1044 906 780 522 116 0 0 232 496 406 566 840 846 786 784 742 735 716
2622 2207 2207 2142 2527 2753 2459 2285 2186 2088 1723 1225 1337 1522 1377 1550 1232 1282 1564 1545 1332 1248 1123 1045 1010 647 526 416 0 0 0 80 539 488 614 786 893 915 880 837 804 736
2356 2315 2176 2180 2282 2655 2618 2370 2246 2156 1875 1365 1091 1078 1438 1490 1196 1600 1576 1553 1306 1204 1296 1304 1270 614 484 380 0 0 0 4 406 594 685 834 920 1040 1130 1090 994 1016
2291 2231 2220 2217 2282 2399 2606 2388 2122 1752 1662 1511 1276 1032 880 1050 1598 1296 1434 1504 1460 1408 1222 1266 1188 673 482 369 0 0 0 16 365 588 791 953 1079 1132 1151 1057 1114 1297
2174 2220 2296 2337 2392 2452 2366 2194 1861 1848 1770 1682 1593 1220 748 905 1094 593 1339 1449 1323 1410 1425 1362 1381 1452 694 421 311 83 0 247 498 668 905 1200 1318 1188 1180 1440 1648 1823
2272 2229 2264 2274 2372 2610 2533 2364 2241 1744 1814 1701 1649 1148 841 556 1000 1106 1534 1368 1129 1252 1196 1276 1627 1412 1201 874 477 36 24 628 931 1220 1456 1510 1420 1419 1462 1382 1353 1389
2344 2381 2327 2300 2458 2611 2546 2381 1987 1608 1680 1650 1504 1280 952 978 993 816 1273 1373 1268 1298 1397 1446 1497 1234 984 932 848 772 654 676 1011 1367 1457 1351 1292 1250 1235 1344 1454 1279
2438 2452 2390 2406 2579 2534 2252 1879 1803 1662 1542 1457 1404 1375 1019 660 864 702 1317 1220 1308 1369 1256 1511 1572 1700 2541 1127 1020 904 868 878 1280 1339 1368 1304 1324 978 1124 1312 1517 1725

ECMWFNIL_con_mucape_039.txt.gz
CAPE
3983 3820 3918 3836 3605 3373 3357 3326 3271 3160 2920 2337 1904 1882 1753 1763 1532 1242 1162 1156 941 791 859 1108 992 874 636 514 499 364 451 467 676 478 879 806 664 515 476 469 467 451
4208 4064 3986 3906 3834 3591 3616 3392 3362 3193 3140 2777 2398 2242 2070 1828 1608 1182 1070 1074 1078 759 1041 987 1066 882 644 568 722 698 706 696 635 354 723 841 780 602 480 427 440 456
4574 4366 4192 3875 3510 3454 3214 3372 3318 3441 3168 2894 2516 2266 2093 1941 1756 1185 1191 944 1024 914 951 1137 1025 879 790 666 715 674 662 784 606 349 618 755 702 619 591 374 406 444
4867 4558 4366 4086 3558 3357 3462 3296 3556 3620 3040 2934 2550 2161 1980 1878 1841 1367 1254 918 1040 1034 1012 1043 1020 877 837 852 897 743 695 771 663 553 643 743 648 561 458 398 332 367
5013 4926 4617 4398 4052 3503 3615 3631 3520 3452 3222 2850 2632 2208 2082 1884 1856 1687 1305 1139 1040 1061 1040 1050 1062 1011 1054 980 905 878 611 702 626 675 680 654 741 618 461 371 432 412
5044 5240 4948 4722 4364 3852 3676 3920 3825 3290 3329 2834 2649 2263 2109 2116 1904 1757 1406 1235 900 946 614 852 1037 906 976 1023 941 830 624 456 404 515 562 443 470 392 372 356 394 442
5196 5359 5279 4740 4518 4040 3991 3947 3902 3668 3396 2888 2973 2563 2265 2162 1922 1533 1402 1338 1095 900 688 783 1084 967 797 924 1040 1010 735 531 458 582 584 635 638 483 378 364 428 522
5162 5423 5366 5062 4605 4266 4172 4156 4124 3870 3480 3184 3032 2844 2483 2190 1920 1398 1380 1390 1074 1128 1043 982 1094 1288 597 742 1008 940 658 502 527 614 606 666 571 542 522 474 521 584
5230 5475 5424 5151 4694 4624 4242 4159 3952 3862 3550 3362 3230 2971 2522 2205 1960 1320 1290 1221 1209 1180 1128 658 1000 1056 1021 761 862 784 626 504 441 501 582 550 581 640 567 594 645 634
5359 5386 5381 4926 4558 4507 4110 3864 3698 3889 3797 3728 3402 3021 2531 2170 1932 1354 1116 1396 1159 1175 906 788 976 985 1090 951 871 724 653 690 637 598 559 556 626 558 582 668 660 691
5422 5303 5202 4888 4338 4320 4201 3751 3487 3540 3744 3562 3071 2684 2478 1932 1666 1330 1359 1376 1196 899 869 860 887 1093 1211 760 934 881 804 765 776 690 604 661 701 717 752 828 841 821
5464 5362 5088 4682 4343 4194 3886 3444 3236 3266 3591 3329 3081 2722 2456 1795 1520 1306 1316 1468 1254 1202 1032 975 1027 1149 1333 1137 772 872 880 984 846 658 646 854 854 854 902 946 971 971
5471 5257 5100 4644 4417 4072 3704 3372 3092 2990 3194 3177 3024 2606 2092 1685 1198 1275 1322 1412 1492 1280 1040 1134 1102 1002 1304 1196 1074 1035 1252 1032 659 541 791 826 868 916 902 798 720 751
5514 5328 5051 4487 4104 4165 3883 3574 3242 3098 3232 3390 3164 2709 1855 1698 1205 1169 1049 1318 1425 1266 1167 1164 1102 928 1075 1230 1218 1194 1059 918 830 826 832 839 886 946 922 639 664 607
5653 5154 4729 4500 4186 4130 4038 3772 3488 3233 3240 3235 2940 2412 1752 1231 808 831 1106 1322 1470 1136 1200 1040 969 950 1043 1154 1193 1248 1267 865 736 929 1048 974 957 898 707 658 711 464
5041 4881 4748 4581 4152 4219 4281 3980 3488 3345 3266 3134 2934 2366 1743 809 878 876 1103 1286 1256 1052 1210 1142 938 902 1098 861 1012 1332 1161 822 728 952 1020 966 1013 1034 962 724 653 564
4979 4693 4652 4424 4244 4213 4325 4228 3832 3820 3546 3420 2868 2150 1348 883 953 885 841 746 615 837 1090 1145 942 977 698 734 718 606 1045 1139 1042 1030 1206 1180 1072 1166 1141 949 657 548
4680 4570 4365 4243 4148 4004 3874 3858 3848 3654 3562 3495 2808 2056 1325 1020 1044 982 864 704 590 938 1296 1414 1179 873 560 623 558 424 560 1288 851 802 718 836 954 972 972 936 872 869
4690 4468 4265 4069 3959 3959 3965 3994 3862 3723 3672 2984 2724 2189 1121 1152 1172 1090 961 831 936 1294 1150 907 1252 660 506 514 506 460 412 658 696 272 192 555 736 715 815 936 942 898
4480 4161 4085 3917 3742 3672 3887 3919 3792 3554 3053 3140 2554 2317 1430 1716 1233 1158 1071 918 1331 1426 1274 1188 1261 846 548 539 583 570 544 546 782 303 197 482 634 685 828 947 971 966
3962 3897 3642 3533 3075 3333 3567 3770 3800 3765 3220 3213 2596 2160 1719 1922 1427 1382 1600 1100 1082 1402 1420 1406 1414 1000 735 647 622 629 590 464 722 301 213 582 761 827 974 1086 1227 1242
3773 3566 3460 3261 3121 3200 3123 3410 3766 3732 3616 3373 2994 2200 2066 1761 1669 1759 1936 1756 1778 1488 1324 1186 1277 810 736 677 690 624 539 232 628 510 574 755 897 968 1129 1342 1470 1598
3500 3413 3086 3233 3196 3053 3010 3056 3387 3585 3514 3305 2987 2608 2029 1870 2008 1642 1466 1715 1172 1185 726 1271 985 813 700 550 486 408 206 360 616 614 816 1029 1199 1244 1330 1410 1541 1291
3205 3002 3251 3146 3135 3116 2953 2977 3146 3304 3274 3196 3001 2479 2089 1898 1785 1658 1537 1462 1176 852 853 1151 1197 1394 677 575 520 485 434 481 912 1151 1318 1482 1444 1360 1516 1473 1446 1518
3338 3058 3157 2995 3041 2549 2629 2848 2950 3129 3238 2847 2434 2198 2030 1910 1671 1558 1430 1726 1053 1189 782 1166 422 517 588 528 744 841 483 622 1438 1754 1565 1276 1689 1874 1728 1744 1643 1498
2797 3040 3045 2934 2911 2910 2834 2904 3012 2607 2594 2571 2341 2113 1976 1775 1393 1265 1435 1597 1534 1249 873 736 302 494 386 784 786 452 421 491 1276 1612 1826 1639 2110 1575 1831 1502 1275 1609

ECMWFNIL_con_mucape_042.txt.gz
CAPE
4489 4558 4396 4246 4196 3926 3869 4079 3988 3874 3718 3224 3200 2607 2276 2126 2256 1964 1594 1596 1469 1112 1597 1552 1508 1554 1477 1333 978 918 1210 842 894 1436 1154 1239 1192 1041 820 782 823 853
4413 4478 4214 4256 4219 4102 4217 3978 3963 3843 3826 3492 2997 2826 2563 2225 2180 2163 1862 1558 1474 1136 1366 1537 1528 1622 1404 1223 1201 910 928 1094 1074 864 1289 1139 1351 1110 878 1008 962 938
4264 4383 4360 4206 4142 4150 3539 3850 4014 4013 3828 3438 3170 3095 2486 2413 1980 2090 1996 1704 1293 940 1422 1494 1634 1522 1314 1270 1196 1067 1169 1235 935 648 1272 1137 1281 1280 1301 879 922 770
4246 4327 4095 3900 3882 3962 3712 3770 3968 3966 3682 3518 3152 3033 2374 2049 2111 2019 1988 1928 1564 1216 1245 1251 1409 1186 1232 1240 1304 1092 1037 1154 1102 1011 1494 1370 1363 1312 1071 1020 1014 1026
4428 4259 4087 3973 3971 4015 3872 3928 3627 3916 3558 3486 3213 2894 2763 2430 2249 1846 1830 1596 1694 1460 1278 1475 1456 1219 1264 1096 1176 1059 880 1156 1190 1166 1294 1525 1380 1165 1023 1212 1123 826
4743 4469 4333 4158 4074 4067 3880 3787 3744 3595 3525 3456 3254 2965 2672 2560 2233 1788 1684 1374 1396 1152 1098 1208 1383 1176 1132 1119 1154 1158 986 894 948 1132 1080 1187 1041 1100 862 962 1063 852
4955 4863 4592 4300 4140 3928 3876 3738 3696 3667 3707 3394 3350 2901 2434 2344 2228 1944 1579 1428 1066 1174 1154 1122 1311 1375 1181 1423 1338 1106 1286 1001 1135 1019 959 1021 1020 1117 943 1040 1207 1025
4942 4869 4793 4481 4251 4058 3760 3790 3807 3844 3954 3736 3358 3084 2464 2216 2204 2126 1790 1571 1114 1258 1212 1375 1564 1435 1407 1455 1296 1225 1191 1071 952 1141 966 888 989 931 1100 1035 1161 1014
5012 5026 4702 4525 4293 4176 3632 3495 3828 3962 4024 3818 3341 2969 2584 2308 2189 2060 2016 1719 1336 1301 1337 1430 1568 1511 1275 1421 1258 1366 1110 911 688 993 1080 972 910 1024 990 1066 1002 1090
5044 5096 4841 4352 4120 4086 3470 3127 3141 3890 3906 3829 3411 2890 2765 2588 2320 2138 2115 1798 1624 1477 1440 1375 1525 1412 1262 1266 1335 1274 1185 960 742 814 1045 933 858 782 889 1008 1033 1136
4919 5008 4996 4792 4169 4046 3806 3140 3326 3445 3724 3538 3372 2987 2868 2652 2470 2223 2105 1862 1668 1692 1360 1340 1476 1462 1317 979 1348 1277 1116 983 935 939 868 878 834 914 1130 1095 1100 1016
4908 4781 4932 4705 4394 4134 3884 3395 3181 3635 3684 3466 3279 3135 2994 2569 2553 2226 1942 1739 1588 1594 1452 1135 1275 1364 1271 1004 1121 1092 1033 894 974 1092 931 967 1012 1064 1134 1200 1241 1333
5016 4818 4938 4822 4703 4458 4236 3838 3346 3272 3514 3328 3099 2953 2946 2610 2436 2203 1726 1644 1470 1531 1510 994 959 1319 1279 1114 1000 919 1018 965 946 1070 1012 1001 990 980 998 1052 1167 1231
5076 4884 5034 4948 4754 4689 4492 4008 3512 3422 3636 3801 3413 3310 2960 2666 2272 2037 1642 1550 1414 1414 1336 1073 1046 1299 1421 1214 1043 1017 1054 1136 1104 1034 990 912 990 1072 1024 928 1065 1179
5293 5171 4996 5082 5054 4882 4588 4386 4082 3861 3929 3999 3719 3332 2777 2579 2246 1915 1566 1460 1377 1354 1143 1003 1064 889 1340 1244 1118 1122 1036 1054 1254 1208 1044 982 957 949 951 989 946 961
5544 5500 5396 5469 5257 5028 4794 4608 4380 4070 3900 3937 3678 3280 2902 2626 2155 1927 1560 1412 1351 1320 1126 1066 762 881 1175 959 941 1144 1196 1160 1247 1180 1132 1213 1288 1181 1043 1112 998 880
5884 5944 5880 5696 5348 5126 4982 4738 4364 4152 3895 4042 3846 3416 2969 2731 2261 1994 1518 1285 1281 1230 1175 965 1153 839 773 634 682 768 1023 1091 1178 1315 1283 1386 1461 1465 1361 1230 1026 980
6168 6151 5981 5819 5411 5118 5000 4758 4415 4198 4075 4177 4056 3703 3417 2705 2344 2069 1679 1304 1226 1273 1108 950 1181 882 846 603 580 697 778 1106 1042 1152 1114 1382 1427 1316 1460 1431 1425 1327
6390 6142 5816 5609 5241 5048 5018 4935 4685 4412 4320 4284 4022 3821 3434 2716 2486 2168 1821 1434 1338 1462 1079 1186 969 976 878 640 341 744 847 986 1056 1009 943 1117 1213 1429 1421 1494 1502 1429
6164 5732 5524 5366 5111 4931 4863 4849 4711 4494 4374 4149 3831 3686 3267 2806 2510 2244 1882 1560 1444 1474 920 1199 1036 998 839 510 358 656 520 732 1114 1105 1017 940 875 856 1108 1461 1457 1451
5777 5540 5358 5178 4942 4827 4670 4633 4569 4566 4416 3964 3708 3405 2976 2820 2521 2265 2022 1704 1456 1230 1073 1428 1521 1083 843 478 464 448 0 18 637 781 621 519 548 812 1190 1444 1408 1612
5539 5399 5195 4975 4770 4622 4521 4438 4456 4556 4320 4017 3554 3168 3002 2779 2503 2232 2052 1777 1509 1370 1311 1675 1250 1146 1024 716 463 368 76 92 374 506 696 591 686 1379 1056 1088 1197 1202
5306 5123 4933 4703 4404 4231 4115 4014 4237 4478 4472 4264 3833 3374 2936 2787 2556 2283 2003 1828 1714 1656 1456 1381 1354 1370 1185 595 348 434 120 340 500 786 1022 982 1866 1108 1487 1359 1298 1208
4975 4621 4415 4264 4056 3936 3785 3632 3651 4088 4292 4285 4099 3392 2938 2772 2681 2513 2282 2082 1878 1698 1560 1524 1562 1578 1473 1194 680 421 372 490 882 984 938 987 1773 1583 1448 1454 1320 1136
4589 4380 4053 3842 3848 3691 3396 3446 3474 3750 3981 4029 3837 3658 3146 2798 2634 2523 2342 2210 2051 1854 1635 1465 1382 1326 1247 1064 953 875 734 836 1112 963 1294 1709 1865 1170 897 811 710 668
4270 4070 3879 3708 3865 3618 3425 3578 3576 3396 3725 3783 3710 3465 3431 2826 2588 2398 2334 2286 2216 1926 1700 1611 1423 1207 1047 1124 866 464 694 1212 1500 1754 1735 1976 1516 897 804 723 748 809

ECMWFNIL_con_mucape_045.txt.gz
CAPE
3080 3095 3018 2739 2703 2616 2688 2551 2220 2479 2483 2380 2401 2177 2150 1727 1507 1226 990 606 799 437 251 546 700 348 511 732 502 656 492 434 487 452 289 472 299 286 416 332 240 80
3108 3092 3061 2886 2751 2571 2776 2594 2351 2575 2552 2447 2322 2225 2108 1821 1490 1176 793 476 788 711 483 291 978 492 494 410 556 485 465 451 442 777 363 472 432 356 526 445 143 283
3137 3116 3041 2979 2859 2688 2811 2755 2642 2658 2648 2560 2274 2228 1917 1776 1486 1141 767 544 416 741 640 287 776 734 678 336 327 171 452 295 130 677 443 331 519 288 254 381 422 366
3163 3166 3031 3021 2946 2888 2855 2920 2855 2782 2752 2592 2402 2265 1910 1548 1484 1142 830 1048 534 510 773 656 465 913 738 531 362 134 208 382 287 459 535 426 497 355 401 459 606 381
3159 3160 3118 3038 2983 2993 2846 2975 2920 2845 2819 2586 2473 2210 1989 1347 1532 1247 942 808 736 668 572 772 680 708 752 648 408 204 222 315 477 360 680 597 530 456 473 450 483 478
3114 3118 3174 3079 3024 3004 2906 2901 2955 2824 2841 2680 2435 2230 1852 1327 1343 1053 873 834 790 733 550 609 852 651 731 599 572 336 224 298 364 516 518 812 568 626 625 564 472 275
3137 3034 3125 3099 3022 3022 2942 2911 2919 2877 2848 2712 2462 2267 1984 1551 1180 1163 974 843 764 721 650 605 806 770 676 546 692 431 201 283 333 535 462 650 601 524 471 279 350 385
3178 3017 3070 3071 3030 2977 2982 2856 2878 2963 2884 2806 2494 2386 2049 1740 1444 1215 1066 941 784 726 658 617 726 819 696 569 524 643 368 368 342 515 515 330 694 551 365 335 355 356
3216 3068 3030 3093 3038 2999 2996 2901 2876 2940 2950 2853 2704 2371 2188 1913 1611 1388 1242 1160 926 816 691 614 759 789 768 640 527 574 592 556 477 455 393 323 358 338 512 542 643 539
3242 3159 3064 3083 3039 3009 3019 2980 2893 2903 2984 2893 2834 2608 2335 2038 1754 1556 1428 1299 1044 903 775 647 726 790 788 710 613 612 596 622 581 581 511 300 278 216 215 307 469 469
3280 3261 3203 3139 3066 2985 2985 2996 2917 2864 2950 2928 2890 2745 2540 2267 1983 1754 1574 1364 1117 863 780 718 744 760 796 726 713 718 667 627 642 566 618 462 279 252 569 333 387 403
3338 3346 3346 3304 3203 3073 2997 2936 2895 2819 2874 2982 2905 2806 2655 2431 2206 1960 1734 1476 1229 974 740 711 801 802 779 795 758 758 758 689 646 605 492 664 396 266 400 377 367 466
3385 3429 3450 3449 3367 3228 3083 2955 2819 2817 2835 2946 2974 2843 2706 2543 2328 2067 1854 1635 1357 1103 868 675 776 856 760 763 901 815 755 740 599 570 487 331 636 510 392 402 378 406
3378 3431 3502 3532 3474 3349 3198 3069 2854 2724 2860 2922 2959 2886 2747 2596 2371 2169 1968 1782 1582 1324 1077 799 722 836 786 709 808 823 770 706 676 291 447 327 366 357 378 505 619 684
3440 3399 3524 3606 3543 3402 3261 3143 2991 2764 2827 2957 2949 2906 2752 2619 2496 2260 2091 1925 1754 1559 1299 996 743 753 736 627 427 759 794 750 670 575 353 389 350 364 466 508 633 738
3485 3427 3505 3642 3658 3540 3388 3308 3159 2925 2932 3043 2986 2897 2794 2665 2534 2412 2222 2024 1852 1673 1470 1216 906 711 696 366 443 480 713 683 619 556 358 360 398 368 510 572 607 692
3518 3470 3494 3604 3702 3690 3554 3464 3388 3143 2984 3148 3112 2958 2802 2709 2600 2489 2370 2210 2045 1861 1661 1464 1296 990 720 409 442 508 508 430 372 514 440 364 330 286 330 543 620 689
3662 3598 3542 3562 3686 3776 3712 3592 3508 3342 3098 3186 3266 3146 2942 2757 2681 2600 2513 2399 2285 2138 2005 1849 1570 1244 868 640 517 504 467 338 248 383 382 494 346 346 452 566 694 776
3843 3786 3687 3623 3660 3793 3839 3733 3604 3445 3250 3224 3371 3322 3199 3043 2850 2763 2694 2620 2537 2431 2270 2010 1753 1536 1263 991 814 637 466 319 529 586 630 641 554 550 672 804 887 700
4020 3963 3908 3816 3812 3900 3972 3883 3702 3580 3410 3343 3450 3406 3317 3220 3112 2992 2893 2841 2746 2518 2308 2246 2181 2042 1791 1523 1181 952 788 524 587 632 648 690 684 824 864 833 729 816
4228 4176 4174 4149 4146 4136 4148 4082 3893 3718 3592 3477 3549 3549 3475 3379 3284 3192 3082 2931 2781 2650 2573 2497 2455 2248 2026 1824 1486 1248 668 571 639 660 684 696 678 780 803 771 714 799
4492 4481 4510 4546 4501 4377 4310 4238 4068 3892 3717 3604 3653 3604 3527 3450 3365 3251 3138 2999 2870 2748 2689 2639 2512 2296 2079 1865 1519 1014 477 710 438 419 374 518 564 657 646 730 670 695
4804 4770 4754 4756 4633 4527 4430 4310 4178 4002 3834 3666 3622 3614 3524 3420 3313 3197 3113 3015 2914 2805 2734 2653 2472 2221 1937 1689 1359 948 853 700 578 322 425 353 353 454 477 381 369 534
4978 4878 4806 4767 4693 4567 4404 4286 4156 4021 3866 3835 3696 3581 3512 3429 3335 3238 3147 3054 2968 2890 2755 2583 2384 2075 1809 1606 1313 1208 1026 729 547 538 476 579 526 227 249 509 1030 1100
5011 4872 4788 4722 4639 4510 4355 4202 4088 4106 4012 3919 3758 3628 3508 3401 3321 3258 3185 3103 3013 2920 2746 2477 2235 1979 1776 1547 1456 1366 975 642 720 571 556 380 561 538 498 418 309 819
4990 4873 4752 4657 4560 4444 4257 4078 4038 4055 3984 3969 3816 3669 3579 3497 3397 3357 3308 3235 3093 2939 2704 2417 2162 1975 1727 1554 1507 1263 1072 985 684 403 480 308 672 411 410 3 11 166

ECMWFNIL_con_mucape_048.txt.gz
CAPE
1927 1854 1854 1979 2007 1922 1824 1766 1759 1841 1833 1944 2109 2192 2224 2188 2122 2007 1706 1518 1196 889 689 427 330 19 69 135 77 46 249 140 368 107 121 94 35 46 74 64 49 2
1942 1925 1917 1998 2055 2070 1966 1900 1827 1905 1905 1897 1989 2056 2103 2074 2093 1948 1677 1503 1189 1023 758 467 371 66 94 185 145 19 216 144 361 375 184 118 60 49 78 74 59 2
1968 1989 2035 2064 2077 2141 2155 2068 1955 1951 1954 1923 1967 1978 2037 2041 2020 1861 1678 1440 1193 1084 789 485 279 86 95 231 389 320 97 143 116 332 171 368 381 365 85 128 31 5
2053 2068 2132 2178 2125 2160 2236 2222 2113 2035 2036 1942 1967 1984 1980 1958 1890 1789 1665 1376 1273 1032 659 532 154 88 86 94 406 436 209 121 101 243 206 169 250 124 75 67 202 92
2144 2183 2227 2287 2251 2179 2248 2314 2268 2153 2120 1988 1939 1966 1912 1852 1809 1792 1665 1406 1316 935 733 552 217 185 117 90 123 137 75 104 52 192 201 159 145 191 98 101 143 173
2151 2272 2334 2383 2399 2307 2260 2341 2382 2292 2203 2077 1974 1972 1893 1865 1786 1764 1651 1454 1179 1052 849 540 411 373 210 142 92 46 40 84 105 115 338 187 143 200 191 142 110 138
2184 2306 2422 2462 2486 2457 2359 2351 2420 2379 2303 2199 2075 2016 1936 1876 1835 1744 1628 1427 1271 1193 894 527 441 423 444 281 128 367 21 51 93 117 174 230 196 198 199 186 127 76
2368 2378 2458 2515 2539 2548 2494 2400 2447 2444 2340 2243 2202 2111 2027 1927 1895 1834 1741 1544 1443 1291 893 585 480 461 492 484 454 449 426 305 67 132 107 168 214 225 194 207 149 90
2612 2572 2548 2592 2594 2583 2575 2501 2479 2510 2440 2378 2309 2239 2147 2054 1985 1947 1897 1748 1566 1307 919 663 598 618 371 497 527 505 491 458 256 104 144 177 179 309 177 132 88 84
2761 2751 2691 2678 2679 2651 2622 2593 2541 2551 2532 2473 2420 2342 2281 2210 2120 2038 1958 1807 1506 1235 957 748 684 708 558 404 484 517 515 518 509 379 140 137 110 161 319 460 446 400
2800 2827 2786 2745 2746 2715 2675 2634 2600 2599 2619 2577 2518 2440 2382 2322 2246 2144 2018 1832 1491 1180 979 811 748 737 640 469 438 472 521 528 518 468 286 133 99 85 398 435 420 341
2842 2857 2835 2784 2756 2753 2713 2673 2648 2601 2631 2662 2616 2542 2478 2421 2334 2228 2132 1940 1596 1210 967 852 790 756 676 517 468 468 500 543 531 458 294 145 114 65 123 176 431 124
2887 2892 2875 2831 2766 2749 2729 2697 2645 2615 2605 2675 2680 2627 2536 2474 2409 2324 2193 2032 1788 1484 1248 1115 1032 971 888 642 481 491 492 522 500 471 426 185 171 108 77 91 76 61
2926 2919 2916 2877 2811 2771 2730 2672 2631 2626 2611 2648 2701 2688 2631 2516 2435 2364 2250 2094 1921 1745 1536 1378 1255 1150 1058 876 548 495 530 557 510 272 472 491 471 265 209 128 136 96
2967 2955 2928 2893 2837 2781 2718 2645 2594 2611 2617 2612 2671 2726 2703 2634 2532 2410 2310 2188 2046 1895 1726 1568 1464 1354 1233 1063 786 549 550 604 591 303 417 500 540 545 498 468 137 134
3037 3000 2962 2915 2858 2767 2696 2642 2584 2581 2598 2593 2623 2710 2750 2726 2648 2539 2421 2293 2139 2013 1849 1709 1632 1558 1450 1282 1036 818 638 638 614 358 361 344 313 429 290 165 170 183
3116 3066 2988 2949 2881 2801 2724 2652 2588 2566 2560 2568 2598 2658 2726 2747 2725 2653 2553 2433 2294 2140 1972 1832 1773 1717 1640 1474 1295 1098 997 767 522 439 573 557 507 394 390 262 180 489
3240 3156 3069 3002 2929 2880 2828 2759 2673 2608 2564 2532 2553 2604 2673 2748 2726 2694 2639 2555 2459 2346 2201 2050 1924 1833 1736 1637 1453 1396 1208 925 701 540 579 585 557 389 346 284 243 129
3326 3248 3182 3081 3000 2953 2917 2885 2812 2736 2655 2582 2552 2596 2666 2726 2743 2734 2709 2648 2573 2510 2410 2308 2167 2035 1892 1736 1589 1343 1366 1127 876 669 530 546 402 377 363 179 87 140
3408 3328 3243 3166 3094 3036 2999 2983 2928 2870 2797 2727 2661 2644 2685 2747 2774 2772 2743 2704 2662 2607 2528 2439 2351 2242 2130 2020 1894 1745 1683 1190 1078 863 548 428 361 388 390 369 97 159
3501 3432 3351 3276 3189 3114 3065 3068 3035 2989 2951 2901 2839 2786 2773 2806 2839 2845 2827 2806 2747 2692 2624 2553 2482 2402 2304 2231 2188 2169 2019 1414 663 522 628 493 430 362 326 470 168 230
3592 3518 3473 3408 3333 3252 3159 3144 3140 3108 3081 3060 3004 2960 2929 2908 2882 2888 2912 2888 2864 2807 2734 2669 2605 2518 2566 2620 2612 2537 2300 1674 1211 797 726 714 579 408 480 443 398 407
3677 3606 3560 3524 3482 3407 3281 3196 3222 3232 3208 3197 3150 3106 3072 3044 3035 3021 3000 2989 2962 2905 2867 2825 2803 2829 2900 2938 2908 2776 2566 1870 1788 1493 1235 928 647 557 521 591 613 618
3750 3718 3661 3614 3570 3497 3389 3272 3282 3320 3333 3304 3281 3264 3232 3220 3190 3172 3165 3155 3133 3098 3083 3104 3115 3151 3190 3189 3094 2851 2640 2350 2020 1582 1307 936 824 664 650 800 841 1010
3767 3812 3760 3681 3606 3550 3440 3320 3335 3398 3409 3402 3412 3376 3353 3337 3338 3341 3339 3327 3323 3334 3363 3351 3394 3398 3393 3316 3169 2913 2696 2352 1928 1636 1222 972 845 583 595 698 811 1188
3718 3824 3815 3752 3673 3580 3499 3402 3436 3464 3464 3479 3501 3500 3486 3472 3450 3468 3465 3473 3462 3517 3558 3574 3543 3518 3420 3232 3011 2817 2567 2147 1788 1582 1266 1096 946 826 737 457 663 706

ECMWFNIL_con_mucape_051.txt.gz
CAPE
1507 1463 1470 1468 1462 1446 1521 1677 1854 1945 2014 2173 2345 2442 2460 2487 2514 2520 2588 2574 2494 2332 2054 1558 1203 1083 899 660 121 30 34 23 30 2 0 16 0 0 0 0 0 0
1538 1501 1487 1490 1465 1452 1454 1526 1702 1875 1976 2076 2219 2315 2354 2395 2444 2476 2526 2504 2437 2262 1900 1480 1242 1080 894 676 145 18 35 33 38 64 1 10 12 0 0 0 0 0
1567 1551 1544 1538 1528 1533 1542 1538 1605 1744 1829 1928 2048 2129 2203 2257 2346 2416 2481 2474 2370 2146 1818 1503 1248 1083 890 650 164 12 31 29 24 57 58 3 0 0 0 0 0 0
1598 1586 1569 1569 1561 1587 1611 1598 1609 1657 1736 1794 1870 1954 2007 2110 2174 2287 2380 2430 2316 2106 1886 1630 1363 1079 844 620 358 0 1 23 26 27 94 52 15 0 0 0 9 0
1627 1612 1588 1570 1570 1596 1655 1672 1652 1644 1676 1726 1766 1826 1884 1978 2044 2118 2202 2286 2258 2124 1928 1692 1443 1175 884 636 493 0 0 1 7 22 57 50 20 34 13 7 90 94
1644 1637 1624 1606 1592 1600 1667 1731 1750 1715 1665 1644 1670 1709 1804 1904 1960 1998 2033 2070 2096 2080 1972 1748 1519 1260 1011 750 574 328 2 0 1 10 54 54 28 64 73 12 10 61
1662 1667 1671 1655 1651 1642 1668 1728 1796 1815 1798 1744 1689 1714 1786 1856 1920 1940 1923 1894 1908 1958 1957 1836 1598 1337 1083 862 654 481 0 10 3 2 66 58 53 42 79 34 14 12
1648 1697 1708 1711 1709 1726 1727 1741 1792 1856 1894 1867 1808 1806 1812 1861 1886 1895 1850 1814 1807 1872 1902 1835 1654 1385 1145 916 718 617 14 3 7 6 381 316 48 59 54 60 24 5
1641 1701 1759 1779 1788 1810 1822 1806 1809 1870 1924 1930 1914 1895 1880 1866 1872 1862 1844 1808 1798 1827 1822 1752 1656 1474 1196 971 770 664 97 1 7 16 165 185 67 84 67 52 36 20
1681 1720 1803 1866 1886 1909 1926 1914 1892 1902 1968 1993 2004 1966 1931 1922 1895 1866 1832 1796 1779 1764 1733 1688 1638 1526 1297 1064 885 729 212 13 2 7 17 24 65 98 70 64 80 28
1810 1789 1845 1925 1978 1996 2016 2031 2015 1982 1994 2049 2061 2052 2034 2009 1980 1948 1886 1801 1750 1704 1669 1648 1633 1556 1369 1150 1012 894 637 301 18 6 4 13 26 58 222 71 86 78
1970 1914 1897 1949 2028 2076 2103 2122 2134 2106 2083 2110 2117 2126 2130 2133 2117 2062 1976 1880 1788 1721 1677 1664 1641 1612 1497 1258 1126 990 772 574 515 130 12 11 18 18 111 96 96 72
2148 2090 2030 2017 2062 2119 2154 2176 2199 2208 2190 2194 2200 2212 2205 2210 2218 2194 2116 2017 1929 1852 1801 1764 1733 1688 1627 1475 1272 1124 864 662 616 518 52 48 30 19 30 79 80 66
2250 2250 2221 2184 2162 2166 2192 2222 2238 2261 2274 2274 2284 2288 2278 2257 2245 2227 2201 2141 2054 1971 1920 1880 1838 1785 1736 1663 1476 1233 924 733 692 665 524 150 62 296 399 146 53 61
2303 2343 2366 2367 2343 2310 2291 2290 2299 2312 2322 2336 2344 2347 2344 2338 2318 2269 2245 2186 2126 2055 1988 1963 1923 1892 1845 1744 1574 1315 1020 814 771 756 728 482 110 74 105 28 239 259
2354 2408 2452 2495 2505 2487 2454 2418 2402 2392 2388 2382 2388 2399 2405 2395 2367 2335 2269 2227 2174 2124 2098 2058 2009 1964 1916 1820 1660 1428 1141 959 921 945 974 843 365 127 190 222 248 282
2428 2473 2514 2570 2597 2583 2568 2550 2535 2514 2493 2474 2452 2446 2467 2474 2445 2400 2349 2321 2281 2209 2154 2076 2064 2043 2012 1944 1831 1650 1434 1264 1205 1170 1151 1084 815 482 242 290 316 281
2540 2565 2600 2640 2652 2660 2643 2630 2612 2603 2576 2547 2511 2485 2478 2493 2493 2466 2443 2409 2386 2338 2264 2161 2047 2004 2004 1992 1921 1800 1640 1513 1424 1343 1370 1363 1218 963 601 493 430 338
2656 2666 2690 2704 2721 2722 2712 2698 2676 2646 2619 2571 2550 2517 2498 2500 2520 2504 2495 2470 2428 2375 2317 2249 2168 2066 2016 1958 1897 1857 1787 1719 1608 1503 1512 1550 1486 1316 1034 819 522 354
2799 2784 2779 2779 2774 2784 2780 2775 2740 2709 2650 2596 2559 2529 2523 2529 2525 2526 2520 2495 2472 2439 2371 2241 2168 2089 2071 2016 1953 1921 1839 1806 1775 1671 1665 1708 1634 1506 1312 1207 742 417
2957 2910 2897 2867 2846 2842 2840 2834 2799 2750 2689 2630 2564 2529 2522 2518 2516 2524 2536 2533 2508 2474 2420 2324 2241 2140 2083 2052 1997 1981 1913 1914 2001 1912 1826 1812 1766 1539 1436 1374 963 546
3079 3040 3011 2972 2920 2898 2888 2868 2838 2786 2733 2670 2574 2522 2484 2468 2470 2488 2527 2530 2526 2504 2468 2434 2373 2280 2210 2156 2120 2072 2036 2032 1901 1720 1715 1779 1816 1544 1348 1162 957 636
3117 3124 3091 3050 2990 2939 2917 2899 2864 2834 2776 2702 2626 2549 2482 2436 2432 2456 2499 2541 2557 2541 2527 2508 2462 2456 2396 2334 2280 2222 2155 2192 1999 1736 1379 1262 1372 1239 890 750 635 429
3054 3130 3130 3092 3058 2998 2963 2933 2908 2876 2838 2774 2704 2632 2538 2462 2420 2414 2458 2502 2527 2532 2543 2562 2558 2540 2528 2466 2395 2306 2238 2170 2080 1652 1550 1160 800 939 967 774 616 476
2936 3066 3126 3117 3085 3080 3040 2993 2970 2940 2912 2854 2820 2744 2669 2588 2513 2484 2486 2508 2542 2576 2606 2613 2619 2617 2599 2570 2520 2394 2408 2440 2326 2220 2006 1588 1336 1318 1048 840 552 611
2870 3028 3105 3116 3110 3105 3097 3074 3032 2989 2979 2932 2904 2860 2822 2760 2698 2650 2622 2626 2640 2689 2718 2738 2737 2730 2715 2679 2622 2536 2540 2507 2567 2638 2268 1622 1645 1562 1319 1134 756 499

ECMWFNIL_con_mucape_057.txt.gz
CAPE
2471 2451 2358 2340 2426 2432 2583 2647 2687 2707 2884 2789 2986 3280 3355 3676 3685 3761 3652 3597 3480 3430 3206 2837 2957 2650 2202 2175 2015 1859 1823 1615 1063 1353 1200 1224 1062 963 966 1054 990 844
2470 2431 2357 2348 2386 2537 2720 2711 2725 2703 2978 3058 3024 3218 3633 3762 3846 3702 3790 3679 3548 3431 3401 2967 2889 2603 2269 2219 2098 1971 1938 1768 1292 1072 1048 1237 1202 1112 809 936 801 772
2525 2453 2443 2366 2268 2308 2100 2414 2601 2724 2758 2844 2967 3244 3481 3589 3642 3680 3727 3681 3483 3385 3319 3244 2902 2595 2302 2253 2160 2045 1994 1880 1481 940 964 1135 1083 1101 892 830 745 808
2569 2555 2382 2222 2218 2234 2255 2390 2537 2641 2523 2749 2838 2929 3052 3208 3392 3629 3680 3564 3651 3657 3592 3261 2926 2624 2326 2252 2194 2102 2037 1983 1716 1288 1122 1202 1190 968 857 891 716 671
2588 2606 2475 2405 2373 2423 2492 2523 2386 2462 2488 2610 2775 2867 3086 3267 3388 3380 3522 3573 3514 3603 3582 3288 3007 2717 2366 2227 2185 2118 2063 2029 1864 1512 1329 1274 1258 1056 854 933 832 639
2588 2651 2649 2593 2566 2595 2494 2427 2369 2326 2418 2424 2721 2709 2820 3084 3132 3158 3322 3296 3303 3283 3291 3217 3028 2755 2397 2212 2162 2121 2077 2016 1924 1620 1338 1332 1116 995 844 970 896 746
2559 2625 2623 2507 2530 2513 2431 2386 2413 2432 2411 2442 2724 2689 2650 2763 2999 3070 3236 3251 3130 3226 3186 3187 3119 2826 2465 2198 2164 2138 2084 2048 1976 1738 1368 1388 1288 1151 927 1066 988 874
2327 2368 2439 2433 2404 2401 2438 2434 2445 2497 2522 2586 2631 2752 2681 2637 2925 2970 3169 3205 3098 3300 3272 3241 3161 2969 2480 2195 2166 2098 2097 2078 2007 1858 1550 1454 1382 1310 1161 1035 1125 1084
2320 2404 2421 2424 2378 2342 2286 2246 2340 2433 2397 2519 2478 2427 2653 2611 2786 2844 3188 3245 3178 3273 3420 3328 3248 2999 2636 2278 2159 2076 2038 2036 1999 1906 1721 1476 1397 1291 1201 1154 1086 1104
2437 2432 2334 2231 2215 2252 2165 2131 2118 2239 2398 2433 2376 2312 2502 2640 2697 2865 3159 3266 3169 3251 3406 3331 3252 2975 2679 2363 2264 2078 2010 1984 1938 1880 1774 1631 1443 1231 1202 1217 1092 1142
2348 2314 2265 2236 2127 2117 2126 2069 2042 2081 2230 2237 2251 2224 2312 2624 2652 2783 3020 3116 2996 3103 3250 3288 3202 3024 2730 2347 2212 2034 1982 1934 1903 1869 1795 1692 1574 1391 1194 1283 1197 1168
2361 2268 2273 2209 2119 2103 2108 2093 2077 2156 2188 2213 2188 2230 2241 2335 2614 2628 2748 2927 2926 2967 3108 3196 3192 3079 2832 2513 2179 2015 1927 1907 1891 1847 1786 1695 1610 1496 1352 1132 1235 1238
2367 2381 2369 2206 2285 2237 2224 2191 2156 2137 2170 2216 2190 2194 2180 2224 2313 2581 2660 2782 2870 2856 2879 3073 3149 2998 2893 2627 2315 2082 1937 1824 1833 1842 1794 1687 1647 1592 1498 1352 1159 1099
2411 2479 2455 2376 2320 2468 2424 2330 2246 2256 2329 2337 2320 2274 2201 2221 2228 2402 2636 2614 2779 2810 2833 2888 3050 2967 2860 2703 2409 2162 1976 1848 1728 1777 1774 1711 1648 1631 1570 1487 1353 1150
2646 2600 2594 2510 2447 2625 2595 2498 2446 2478 2506 2470 2474 2386 2270 2277 2317 2305 2552 2596 2598 2786 2790 2723 2775 2841 2760 2614 2420 2228 2106 1918 1742 1694 1712 1679 1655 1637 1589 1532 1472 1357
2611 2608 2651 2755 2652 2685 2777 2632 2527 2548 2504 2556 2579 2518 2481 2480 2467 2464 2495 2651 2656 2763 2815 2744 2653 2683 2266 1881 1857 2175 2128 1971 1830 1666 1626 1628 1631 1628 1589 1560 1565 1495
2568 2621 2695 2753 2654 2708 2701 2701 2654 2649 2634 2667 2642 2603 2570 2638 2644 2610 2559 2630 2668 2708 2808 2700 2650 2540 1895 1685 1584 1524 1885 2042 1924 1768 1643 1580 1613 1604 1593 1557 1582 1594
2504 2632 2663 2666 2733 2752 2775 2757 2670 2689 2722 2774 2784 2756 2780 2735 2770 2762 2811 2682 2655 2680 2682 2732 2688 2149 1799 1652 1573 1538 1493 1911 1969 1875 1721 1632 1584 1617 1579 1580 1632 1644
2753 2742 2718 2709 2798 2735 2788 2877 2886 2874 2899 2916 2857 2844 2874 2936 2922 2814 2814 2821 2721 2791 2689 2676 2706 2110 1781 1670 1608 1564 1550 1567 1942 1937 1813 1711 1598 1626 1600 1592 1646 1662
2806 2751 2780 2778 2822 2791 2836 2839 2825 2860 2811 2701 2743 2832 2892 2938 2823 2856 2933 2912 2850 2746 2430 2753 2819 2242 1853 1713 1634 1592 1569 1536 1792 1904 1869 1803 1743 1818 1797 1824 1845 1745
2954 2926 2976 2969 2963 2909 2848 2812 2806 2864 2844 2709 2688 2822 3008 3048 2991 2928 2914 2786 2725 2716 2738 2597 2729 2274 2021 1788 1719 1658 1611 1576 1562 1824 1826 1859 1880 1937 2014 2024 2062 1832
2889 2997 3014 3054 3008 2926 2882 2862 2910 2982 3007 2913 2785 2839 2986 3016 3043 2955 2959 2962 2842 2752 2458 2427 2470 2270 2112 1960 1822 1757 1701 1654 1626 1756 1697 1768 1898 1944 2019 2138 2032 1819
2811 2968 3019 2974 2999 2998 2983 2975 3000 3107 3106 3036 2930 2919 2940 2972 3053 2992 3058 3016 2829 2638 2745 2746 2668 2378 2257 2103 1926 1869 1823 1783 1744 1745 1773 1808 1830 2006 2016 1982 1839 1875
3089 3116 3024 3030 3062 3049 3070 3033 3069 3125 3147 3082 3036 2873 2780 2964 3023 3093 3160 3091 2848 2746 2911 2930 2927 2897 2351 2220 2092 1937 1906 1868 1864 1874 1891 1933 1911 1978 2061 1870 1911 1904
2898 3035 3049 2985 3089 3094 3007 3112 3142 3246 3207 3224 2981 2949 2955 3085 3026 3064 3170 3257 3165 2953 2635 2807 3006 3119 2423 2365 2198 2090 2024 1995 1974 1958 1964 1941 1924 1932 1908 1950 1934 1953
2958 3077 3099 2925 3030 3161 3044 3166 3286 3207 3247 3152 2964 2938 3033 3112 3052 3044 3231 3313 3118 2868 2927 2717 2874 3003 2541 2452 2335 2202 2119 2083 2072 2037 1963 1936 1918 1933 1998 1942 1964 1954

ECMWFNIL_con_mucape_060.txt.gz
CAPE
3286 3267 3320 3336 3299 3003 2976 3162 3125 3045 3135 2520 2613 3167 3118 3553 3556 3102 3419 3697 4002 3740 3680 3815 3645 3456 3482 3456 3378 3085 2875 2806 2288 1904 1786 1530 1155 672 676 778 726 859
3283 3327 3258 3253 3360 3252 3150 3215 3360 3140 3256 3086 2577 2629 3218 3378 3892 3584 3696 4045 4206 4024 4019 4071 3975 3753 3752 3410 3426 3197 3036 2784 2565 1940 1811 1786 1445 900 602 837 814 823
3550 3446 3400 3266 3165 3308 2983 3183 3318 3382 3129 3188 3047 2829 3142 3725 4040 4155 3982 4100 4125 3974 4135 4102 4053 4055 3836 3596 3523 3318 3150 3222 2907 2091 2111 1939 1594 1046 688 698 813 829
3600 3527 3468 3308 3131 3200 3279 3130 3340 3488 3038 3081 3106 2980 3061 3414 3823 4282 4423 4103 4104 4116 4006 4157 3901 3610 3802 3539 3551 3349 3254 3402 3172 2720 2133 2015 1809 1366 816 550 715 853
3823 3766 3525 3523 3348 3246 3408 3373 3261 3331 3319 2944 3132 3231 3394 3538 4003 4237 4354 4552 4392 4213 3992 4089 4326 3800 3732 3568 3553 3483 3171 3225 3191 2802 2226 2238 2072 1728 1252 661 710 834
3863 3946 3872 3650 3523 3461 3304 3465 3320 3285 3420 3073 3220 3160 3244 3738 3848 3924 4150 4250 4288 3848 3590 3949 4164 3935 3720 3665 3524 3607 3325 3218 2877 2637 2681 2529 2306 2000 1620 1063 859 911
3899 3945 3876 3678 3642 3572 3540 3523 3547 3353 3297 3208 3280 3258 3320 3570 3862 3721 3745 4039 3827 3881 3512 3555 4192 4094 4067 4155 3849 3893 3655 3563 3180 2908 2798 2786 2496 2319 1934 1404 1238 1024
3772 3842 3896 3780 3658 3636 3594 3568 3648 3575 3503 3569 3305 3557 3649 3380 3887 3858 3816 3753 3737 3950 3968 3817 4248 4508 4150 4132 4171 3979 3820 3642 3566 3014 2930 2919 2618 2622 2376 1751 1672 1291
3830 3786 3872 3854 3722 3709 3539 3449 3638 3773 3673 3621 3507 3382 3700 3601 3704 3757 3980 4122 3962 3905 4260 4168 4293 4591 4303 4156 4123 4095 4027 3654 3540 3356 2814 2849 2838 2749 2680 2211 1922 1653
3818 3664 3698 3636 3579 3552 3534 3437 3344 3602 3690 3631 3627 3262 3569 3856 3680 3753 4017 4237 4208 4199 4267 4453 4420 4584 4523 4141 4175 4071 4059 4030 3759 3617 3351 3096 3092 3081 2900 2586 2188 1919
3708 3711 3593 3576 3447 3405 3398 3289 3239 3242 3478 3548 3527 3401 3127 3829 3873 3811 3970 4282 4270 4267 4345 4442 4458 4563 4535 4104 4080 4023 3986 3926 3851 3785 3695 3603 3382 3247 2964 2867 2543 2130
3729 3721 3621 3522 3302 3222 3188 3102 3072 3121 3139 3450 3476 3458 3267 3257 3862 3867 3818 4270 4386 4332 4377 4511 4566 4524 4552 4290 4003 3993 3955 3763 3851 3792 3641 3640 3496 3302 3230 2973 2760 2480
3624 3630 3554 3262 3340 3186 3031 3017 2981 2877 2926 3100 3361 3390 3286 3095 3125 3798 3792 3955 4302 4378 4306 4396 4585 4485 4562 4508 4167 3967 4002 3869 3554 3695 3626 3591 3539 3289 3140 3027 2834 2696
3682 3859 3555 3482 3328 3522 3355 3130 3042 3083 3174 3153 3211 3323 3219 3119 2871 3247 3759 3800 4162 4261 4247 4254 4404 4483 4552 4537 4375 3992 3893 3927 3543 3557 3503 3565 3487 3385 3126 2932 2844 2739
3924 3887 3752 3654 3402 3637 3606 3365 3365 3388 3243 3186 3256 3291 3228 3094 3026 2932 3496 3866 3867 4127 4242 4094 4050 4317 4432 4520 4118 3845 3938 3834 3736 3478 3457 3465 3473 3281 3121 2898 2759 2679
3959 3966 3948 3928 3653 3608 3778 3642 3374 3420 3311 3287 3246 3272 3364 3356 3251 3128 3113 3652 3901 4051 4083 4125 3996 4092 3966 3684 3598 3748 3770 3730 3695 3595 3439 3353 3389 3299 3034 2973 2748 2579
4117 4117 4092 4045 3880 3750 3844 3803 3572 3462 3491 3575 3556 3525 3590 3604 3479 3361 3134 3258 3732 3893 4060 4056 4057 3978 3430 3343 3154 2993 3265 3682 3721 3681 3582 3376 3286 3421 3230 2941 2792 2714
4190 4205 4102 4112 4090 3872 3846 3934 3740 3664 3628 3680 3661 3651 3715 3631 3591 3500 3503 3308 3403 3762 3865 3981 4080 3551 3163 3034 2846 2650 2728 3464 3663 3549 3496 3406 3196 3189 3232 3085 2891 2828
4213 4156 4331 4176 4116 4038 3891 4060 4055 3851 3775 3726 3636 3774 3829 3886 3746 3711 3702 3545 3397 3650 3825 3894 3984 3463 3028 2792 2621 2436 2289 2664 3299 3457 3382 3316 3212 3165 3155 3227 3234 3084
4362 4286 4319 4173 4196 4160 4031 4049 4062 4003 3800 3684 3723 3822 3815 3944 3794 3822 3831 3866 3700 3728 3853 3908 3992 3524 3095 2701 2475 2298 2176 2121 2922 3170 3305 3294 3272 3197 3109 3154 3246 3219
4293 4140 4091 4180 4150 4141 4092 4061 4048 4071 3883 3597 3516 3716 3939 4070 4008 3958 3918 3958 3847 3728 3803 3875 3999 3479 3248 2856 2493 2246 2076 1961 2642 2768 3050 3304 3330 3216 3163 3078 3209 3223
3940 3999 3832 3983 4005 4065 4023 3950 3961 4019 4092 3831 3595 3601 3740 3868 4050 3939 3906 3888 3940 3956 3754 3836 3934 3327 3180 2984 2664 2373 2135 1942 2403 2747 2897 3052 3323 3343 3127 3129 3134 3233
3684 3811 3772 3876 3928 3992 3985 3940 3968 4077 4068 4022 3757 3576 3669 3911 4039 4003 3987 3966 3994 4040 3936 3898 4052 3774 3083 2913 2714 2461 2268 2118 2280 2640 2856 3046 3263 3078 2833 2761 2764 3138
3781 3863 3970 3940 3901 3990 3986 3920 3922 4020 4034 4022 3974 3811 3483 3606 3908 3997 4096 3968 3832 3988 3868 4143 4061 4082 3085 2826 2618 2432 2309 2284 2282 2608 2807 3000 3123 3005 2822 2716 2691 2373
3886 3974 4026 3969 3936 3910 3849 3887 3799 3916 3923 3945 3917 3845 3682 3649 3499 3806 4047 4075 3942 3882 3590 3590 3830 3617 3270 2987 2684 2543 2468 2382 2461 2557 2683 2938 3000 2877 2668 2379 2700 2470
3754 3963 4078 3887 4143 4022 3873 3970 4040 3854 3793 3740 3853 3768 3739 3634 3473 3585 3912 4050 3901 3763 3517 3530 3552 3545 3145 3081 2808 2662 2581 2456 2598 2525 2429 2505 2761 2661 2597 2461 2542 2784

ECMWFNIL_con_mucape_066.txt.gz
CAPE
3298 3350 3425 3516 3470 3131 3184 3568 3536 3182 3131 2962 3380 3401 3458 3736 3544 3352 3121 3728 4318 4042 4188 4332 4290 4507 4360 4375 4290 3905 3381 3340 2630 3026 2423 2256 2146 1538 977 876 1456 1936
3334 3505 3437 3524 3559 3316 3368 3756 3796 3588 3743 3663 3293 3576 3844 4006 3724 3637 3536 3785 4071 4075 4250 4308 4305 4301 4283 4252 4346 4032 3745 3539 3335 2601 2618 2296 2336 1836 1171 1098 1079 1420
3395 3534 3634 3580 3357 3422 2608 3390 3916 4030 4079 3890 3633 3865 3952 3950 3988 3598 3991 3924 3999 3726 4389 4241 4453 4432 4354 4361 4480 4104 3830 3704 3117 2510 2719 2488 2198 2188 1666 1128 1058 1267
3505 3530 3455 3298 3251 3280 2926 2911 3388 3852 3467 3857 3504 3190 3666 3242 3666 3816 3717 4196 4071 4003 4208 4288 4296 4315 4477 4450 4660 4283 3973 3935 3321 3163 3151 2684 2267 2058 1895 1653 1310 1262
3553 3700 3702 3586 3389 3247 3007 2818 2609 3398 3359 3330 3536 3146 2917 3259 3690 3966 3818 3931 4021 4176 4385 4420 4507 4459 4560 4440 4627 4442 4057 4066 3651 3593 3612 2973 2523 2091 1844 1846 1569 1212
3600 3680 3821 3828 3694 3506 3155 2752 2744 2760 3157 2973 3388 3149 2907 2892 3853 3664 3954 3763 3747 3644 3746 4100 4301 4164 4506 4539 4556 4403 3928 3802 3687 3804 3655 3287 2406 2064 1745 2039 1790 1389
3635 3700 3888 4025 3716 3316 3176 2948 2749 2766 3028 2958 3216 3114 2965 2731 2879 3250 3645 3790 3323 3195 3060 3391 3963 3942 4135 4302 4426 4386 4265 3819 3625 3906 3665 3469 2820 2298 1828 2099 2086 1538
3379 3491 3853 3727 3398 3136 2898 2952 3140 3054 2968 3220 3154 3232 3184 2861 2744 2562 3286 3847 3830 3732 3547 3499 4028 4146 4095 4150 4388 4524 4430 3973 3587 3907 3789 3612 3220 2730 2332 2038 2433 1910
3726 3792 3762 3526 3092 2817 2391 2328 2944 3332 3199 3302 3060 2819 3190 3114 3116 2492 2726 3670 3962 4076 4066 3773 3979 3987 3856 4010 4427 4474 4408 3974 3435 3685 3810 3706 3503 2998 2707 2418 2377 2386
4086 4035 3414 3126 3165 2952 2389 1870 1958 2759 3252 3152 3067 2752 3156 3220 3307 3168 3112 3435 3894 4066 4144 3803 3789 4011 3772 3705 4004 4329 4446 4378 3828 3641 3751 3771 3621 3182 2804 2655 2481 2514
3891 3953 3869 3694 3230 2936 2872 2286 2103 2268 2753 2820 2728 2439 2696 3431 3318 3552 3854 3897 3757 4072 4351 4282 3858 3930 3894 3578 3791 4147 4387 4365 4040 3724 3717 3839 3751 3406 2991 2817 2679 2494
3755 3565 3789 3750 3154 2554 2764 2406 1980 2396 2683 3085 3013 2785 2662 2871 3658 3441 3750 4277 4021 3901 4150 4387 4190 3928 3901 3778 3613 3946 4242 4310 4148 3754 3648 3895 3827 3582 3328 2977 2819 2658
3834 3698 3830 3606 3480 3088 2769 2704 2255 1930 2096 2689 3042 2978 2713 2362 3131 3683 3550 4108 4418 4124 3937 4102 4272 4094 3910 3972 3940 3815 4072 4366 4134 3967 3616 3752 3868 3630 3378 3124 2910 2826
4097 3888 3782 3543 3466 3448 3306 2941 2523 2413 2320 2580 3436 3590 3159 2658 2540 3546 3841 3747 4279 4346 4264 4083 4225 4285 4235 4172 4157 4091 4053 4386 4420 4314 3822 3680 3742 3791 3566 3144 2976 2920
4304 4100 3798 3802 3822 3672 3525 3300 3018 2806 2746 2750 3278 3528 3364 3044 2799 2674 3689 3792 3864 4409 4508 4306 4140 4196 4200 4308 4375 4357 4188 4249 4523 4434 4252 3913 3746 3692 3707 3455 3072 2894
4394 4365 4078 4010 3932 3822 3710 3562 3310 3107 2901 2955 2959 3277 3589 3798 3477 2680 2942 4069 4067 4431 4732 4573 4242 4206 3985 4016 4068 4325 4229 3899 4139 4409 4301 4023 3898 3765 3732 3688 3220 3010
4668 4670 4548 4222 4000 3854 3897 3675 3427 3297 3080 3122 3070 3000 3236 4048 3948 3436 2548 3269 4163 4314 4703 4739 4529 4238 3926 3824 3934 3922 4159 4061 3835 4327 4425 4174 3878 3831 3752 3654 3471 3258
4855 4982 5035 4669 4172 3976 4087 4004 3583 3366 3398 3359 3250 3146 3263 3731 4160 4016 3457 2609 3570 4312 4399 4620 4698 4260 4044 4082 3942 3871 3805 4002 3847 3893 4284 4293 3914 3570 3669 3610 3594 3592
5146 5227 5283 5078 4608 4117 4105 4328 4052 3599 3493 3505 3415 3427 3386 3631 4214 4288 4160 3677 3048 4079 4558 4716 4805 4486 4261 4178 4060 3982 4007 3920 4137 3873 3738 4057 3994 3572 3246 3407 3485 3480
5516 5516 5445 5252 4995 4527 4214 4430 4458 4096 3586 3370 3472 3724 3752 3881 4013 4377 4377 4332 3933 3763 4226 4697 4931 4736 4491 4304 4082 3921 3978 3844 3990 4116 3930 3868 4095 4022 3466 3201 3454 3486
5846 6017 6089 5872 5524 4938 4584 4574 4814 4702 4209 3530 3328 3636 3849 4023 4065 4144 4486 4468 4348 4098 3929 4266 4750 4806 4736 4540 4225 3989 3810 3804 3664 3951 3949 4114 4240 4281 4066 3538 3346 3481
6085 6241 6294 6056 5965 5499 4934 4799 5069 5229 4888 4276 3608 3433 3750 4229 4357 4133 4179 4411 4541 4391 3921 3856 4121 4445 4675 4634 4472 4167 3902 3762 3550 3842 3796 4028 4284 4191 4241 4224 3882 3515
6257 6374 6348 6278 6117 5801 5393 5141 5285 5551 5320 4835 4331 4075 4112 4341 4410 4312 4257 4287 4400 4573 4473 4136 3970 3698 4162 4573 4555 4407 4111 3809 3602 3610 3872 3825 3852 4112 4264 4306 4266 3989
6463 6535 6256 6070 6227 6163 5674 5437 5478 5466 5424 5184 4728 4268 3907 4287 4469 4532 4533 4538 4343 4467 4592 4620 4625 4117 3519 3711 4326 4482 4359 4111 3734 3562 3842 3872 3697 3702 3948 4307 4434 4139
6442 6520 6373 6208 6289 6171 5901 5771 5542 5467 5398 5553 4941 4497 4080 4284 4521 4654 4775 4764 4552 4524 4407 4534 4634 4482 4064 3735 3615 4032 4255 4222 4071 3795 3792 3906 3825 3745 3696 3810 4199 4202
6130 6394 6366 6026 6088 6301 5971 5910 5707 5430 5517 5374 5157 4623 4407 4214 4289 4632 5026 5097 4817 4488 4074 4258 4511 4643 4244 4056 3926 3731 3841 4068 4094 3958 3770 3860 3931 3901 3842 3765 3752 3998

ECMWFNIL_con_mucape_069.txt.gz
CAPE
1788 1823 2044 2043 2012 2295 2567 2167 2142 2170 2192 2311 2602 2539 2534 2490 2558 2664 2742 3079 3043 3031 3334 3430 3457 3321 3264 3284 2973 2422 2459 2160 1934 1662 1562 1386 923 402 475 344 1067 882
1877 1882 2041 2184 2151 2310 2716 2436 2248 2103 2196 2058 2609 2688 2700 2750 2704 2590 2654 3025 3177 3022 3275 3504 3406 3365 3379 3285 3292 2767 2446 2284 2100 1865 1568 1608 1207 835 319 325 573 850
1981 2015 2048 2232 2322 2405 2612 2671 2340 2123 1954 2225 2268 2635 2896 2881 2825 2628 2592 2920 3167 3094 3181 3501 3368 3324 3372 3310 3183 3194 2639 2314 2154 1977 1681 1470 1408 1040 879 373 195 303
2112 2157 2158 2242 2407 2527 2509 2773 2503 2223 1915 2037 2337 2469 2649 3030 2846 2666 2549 3180 3057 3084 3122 3317 3366 3335 3461 3366 3226 3260 2785 2436 2315 2147 1828 1714 1549 1235 977 741 458 328
2158 2291 2325 2306 2411 2562 2509 2630 2746 2488 2178 2055 2237 2544 2643 2726 2958 2708 2754 2777 2961 3026 3066 3232 3310 3284 3384 3446 3403 3211 2867 2530 2374 2288 1974 1839 1698 1423 1161 932 797 480
2132 2290 2447 2457 2472 2556 2586 2380 2708 2762 2546 2456 2406 2617 2797 2710 2891 2843 2700 2982 2947 2985 3073 3224 3267 3326 3322 3356 3584 3332 3114 2859 2614 2287 2335 2036 1929 1747 1475 1137 913 811
2210 2289 2486 2595 2565 2561 2608 2406 2318 2817 2789 2729 2766 2661 2877 2862 2768 2926 2721 2825 3150 3034 3064 3280 3342 3403 3417 3377 3552 3533 3310 3090 2948 2466 2321 2439 2070 1923 1728 1469 1304 1046
2337 2355 2526 2679 2671 2608 2620 2515 2223 2393 2835 2738 2905 2849 2635 2913 2846 2816 2913 2624 2936 3197 3111 3262 3444 3479 3540 3501 3481 3579 3516 3335 3134 2897 2384 2579 2475 2179 1912 1695 1519 1337
2451 2459 2548 2725 2765 2724 2660 2610 2364 2149 2415 2658 2692 2863 2742 2492 2616 2868 2964 2809 2606 2918 3199 3266 3427 3525 3578 3621 3552 3542 3534 3422 3304 3114 2839 2577 2637 2467 2208 1885 1662 1464
2553 2538 2596 2730 2835 2837 2770 2662 2476 2178 2104 2429 2495 2616 2743 2573 2222 2242 3005 3042 2796 2643 2836 3172 3345 3450 3514 3595 3618 3552 3511 3427 3285 3160 3065 2852 2694 2578 2342 2043 1735 1538
2611 2605 2606 2687 2808 2862 2833 2718 2526 2232 2024 2213 2388 2401 2568 2603 2410 2018 2124 2996 3046 2832 2690 2669 2978 3290 3350 3418 3513 3527 3483 3422 3323 3114 3011 3025 2873 2710 2576 2140 1856 1692
2618 2613 2599 2623 2708 2776 2796 2695 2521 2306 2062 2034 2257 2371 2351 2448 2497 2323 1951 2039 2909 3073 2977 2795 2684 2956 3190 3243 3297 3390 3421 3401 3372 3246 3004 2935 2968 2850 2693 2434 2131 1888
2643 2595 2561 2575 2601 2634 2636 2575 2368 2233 2219 2131 2103 2257 2306 2353 2375 2467 2336 1971 1986 2763 3177 3153 2960 2864 3024 3124 3144 3228 3348 3382 3395 3366 3214 2943 2898 2906 2829 2692 2445 2195
2691 2620 2569 2528 2525 2505 2435 2364 2250 2002 1959 2235 2194 2112 2140 2207 2428 2385 2490 2393 2075 2061 2668 3170 3237 3050 2941 3042 3056 3041 3194 3341 3396 3421 3355 3164 2972 2932 2928 2860 2687 2462
2748 2675 2613 2616 2596 2477 2346 2245 2115 1906 1700 1846 2190 2148 2032 1989 2134 2479 2428 2529 2648 2443 2352 2688 3131 3220 3030 2896 2973 2941 2931 3128 3279 3309 3302 3235 3069 2941 2950 2945 2861 2701
2783 2750 2743 2763 2790 2659 2464 2348 2314 2073 1716 1669 2042 2132 2045 1927 1816 2126 2535 2507 2625 2866 2811 2716 2810 3110 3211 3043 2901 2929 2898 2962 3141 3201 3216 3181 3095 2945 2891 2948 2925 2835
2892 2827 2772 2784 2876 2896 2682 2411 2299 2235 1963 1706 1880 2287 2298 2205 2027 1850 2230 2638 2577 2696 3024 3053 2956 2928 3094 3263 3135 2955 2921 2934 3022 3189 3212 3224 3164 3040 2907 2914 2976 2932
3086 2941 2818 2756 2795 2922 2859 2595 2336 2192 2048 1855 1766 2156 2580 2611 2547 2256 2065 2550 2757 2684 2843 3112 3203 3105 3030 3130 3228 3137 2967 2926 2987 3081 3250 3285 3294 3242 3109 2972 2970 3020
3343 3108 2941 2785 2745 2791 2855 2750 2479 2329 2219 2076 1966 2002 2518 2856 2877 2799 2504 2378 2885 2952 2860 2976 3169 3274 3269 3166 3148 3174 3124 2934 2888 2961 3072 3276 3330 3327 3286 3207 3089 3050
3613 3315 3179 2978 2822 2773 2817 2819 2644 2449 2374 2317 2234 2162 2317 2804 3052 3061 2991 2709 2662 3078 3116 3042 3150 3274 3399 3377 3270 3214 3195 3115 2872 2885 2911 2971 3190 3320 3290 3224 3190 3118
3738 3501 3369 3254 3066 2906 2854 2890 2828 2633 2476 2446 2430 2398 2361 2432 2834 3182 3241 3167 2886 2762 3196 3284 3275 3357 3476 3526 3480 3374 3246 3191 3005 2868 2866 2854 2848 3007 3209 3199 3088 3007
3828 3644 3531 3472 3345 3144 2969 2910 2930 2854 2658 2520 2492 2508 2494 2448 2454 2722 3200 3347 3260 3020 2808 3180 3504 3479 3537 3637 3652 3578 3471 3334 3146 2972 2883 2838 2803 2773 2878 3096 3123 2992
3942 3834 3747 3715 3666 3493 3225 3019 2984 3006 2894 2658 2501 2461 2549 2592 2577 2537 2678 3110 3376 3340 3094 2802 2986 3570 3754 3701 3726 3733 3689 3563 3403 3225 3049 2914 2890 2908 2921 2941 3042 3089
4052 3986 3936 3952 3972 3870 3607 3301 3079 3095 3126 2957 2664 2482 2443 2572 2696 2720 2690 2769 3064 3353 3396 3300 3049 2938 3534 4025 3961 3859 3792 3716 3625 3549 3451 3361 3247 3169 3052 3145 3221 3250
4262 4208 4160 4186 4237 4168 4004 3715 3376 3220 3310 3412 3192 2821 2541 2496 2671 2808 2898 2916 2961 3096 3337 3448 3448 3395 3249 3358 3980 4162 4146 4032 3898 3782 3722 3670 3655 3607 3501 3348 3241 3357
4561 4538 4538 4564 4564 4530 4393 4120 3790 3566 3616 3814 3772 3482 3122 2877 2920 3042 3082 3139 3161 3202 3231 3332 3464 3596 3669 3644 3500 3645 4091 4309 4269 4172 4073 3989 3923 3836 3792 3722 3629 3555

ECMWFNIL_con_mucape_072.txt.gz
CAPE
1132 1126 1281 1139 1356 1338 1062 878 1202 1551 1179 1496 1822 1992 2042 1993 2089 2338 2425 2623 2722 2763 2834 2893 2993 3153 3137 2976 2862 2741 2415 1949 1460 1326 1312 1189 510 39 3 164 329 19
1168 1133 1290 1240 1080 1420 1432 1029 1015 1520 1556 1414 1786 1925 2046 2032 2014 2268 2328 2596 2711 2757 2835 2904 2996 3080 3121 3070 2913 2753 2586 2301 2189 1994 1632 1406 1006 92 81 3 439 636
1178 1142 1199 1315 1217 1168 1510 1525 1207 1264 1679 1588 1789 1947 2022 2052 2023 2214 2277 2467 2677 2730 2825 2926 3019 3107 3118 3118 2994 2918 2759 2510 2336 2171 1899 1721 1338 931 36 3 9 575
1214 1208 1203 1309 1346 1269 1365 1734 1596 1362 1440 1723 1768 2016 2039 2092 2030 2129 2279 2702 2603 2685 2763 2943 3014 3099 3176 3163 3090 2929 2780 2577 2432 2317 2192 2050 1816 1384 894 13 14 1
1239 1278 1278 1310 1404 1412 1450 1777 1861 1638 1448 1558 1755 1996 2125 2168 2141 2111 2213 2410 2541 2665 2693 2883 3018 3058 3151 3203 3139 2962 2815 2684 2548 2444 2350 2219 2040 1736 1256 947 354 23
1263 1293 1344 1368 1472 1569 1583 1765 2012 1925 1678 1512 1661 1933 2205 2273 2259 2200 2167 2278 2532 2660 2702 2762 2966 3060 3105 3143 3111 2965 2937 2867 2773 2641 2515 2355 2156 1930 1634 1295 928 554
1339 1336 1392 1423 1499 1661 1756 1788 2029 2154 1990 1726 1594 1866 2200 2381 2390 2317 2249 2224 2424 2617 2709 2735 2845 2988 3043 3086 3071 3024 2942 2894 2852 2758 2623 2453 2244 2031 1773 1591 1354 1028
1467 1472 1482 1508 1531 1640 1839 1913 1990 2211 2249 2104 1836 1700 2091 2376 2505 2434 2372 2323 2368 2539 2671 2752 2806 2875 2962 3018 3031 2982 2938 2896 2854 2762 2666 2518 2320 2121 1874 1707 1622 1441
1573 1599 1632 1653 1654 1660 1777 1944 2021 2122 2303 2306 2182 1845 1855 2184 2423 2560 2486 2428 2415 2464 2579 2672 2738 2793 2872 2934 2970 2991 2962 2905 2842 2779 2702 2570 2394 2238 2029 1826 1718 1626
1696 1680 1706 1765 1790 1782 1797 1902 2049 2066 2235 2387 2286 2071 1736 2002 2172 2267 2440 2466 2424 2468 2522 2587 2665 2736 2794 2870 2896 2924 2973 2969 2933 2866 2776 2620 2449 2310 2150 1944 1818 1741
1850 1810 1785 1806 1890 1950 1953 1955 2019 2072 2099 2338 2425 2258 1986 1965 2117 2198 2217 2298 2318 2352 2506 2568 2620 2729 2802 2871 2916 2899 2911 2942 2966 2945 2870 2770 2611 2432 2233 2027 1876 1769
1922 1943 1916 1893 1914 1997 2089 2090 2086 2105 2073 2095 2358 2430 2317 2177 2099 2192 2281 2308 2320 2296 2359 2546 2630 2711 2833 2913 2973 2978 2937 2925 2946 2960 2944 2882 2796 2626 2389 2186 2009 1862
1951 1993 2012 1992 1978 2019 2114 2199 2206 2187 2145 2057 2078 2324 2410 2370 2270 2151 2244 2405 2462 2433 2367 2416 2604 2726 2835 2934 3012 3081 3087 3050 3012 2986 2970 2942 2905 2825 2642 2427 2251 2087
2027 2035 2057 2065 2056 2064 2127 2230 2294 2279 2230 2139 1997 2043 2252 2348 2381 2311 2200 2270 2515 2598 2555 2449 2457 2627 2797 2909 2999 3097 3181 3182 3146 3090 3045 2988 2920 2891 2838 2711 2557 2392
2128 2113 2112 2129 2140 2138 2154 2229 2320 2355 2303 2221 2080 1964 1993 2154 2253 2347 2348 2238 2192 2407 2640 2638 2518 2466 2583 2792 2932 3014 3104 3184 3199 3185 3139 3081 2992 2885 2829 2822 2780 2687
2199 2219 2210 2200 2205 2206 2203 2224 2287 2347 2342 2275 2164 2028 1905 1922 2036 2131 2244 2300 2233 2102 2128 2439 2636 2577 2489 2541 2782 2904 2962 3024 3102 3149 3161 3119 3056 2979 2873 2790 2776 2764
2208 2280 2293 2278 2268 2252 2240 2229 2233 2279 2299 2267 2196 2095 1948 1843 1873 1960 2037 2144 2232 2201 2070 1956 2227 2648 2724 2608 2560 2706 2806 2872 2921 2990 3055 3094 3064 3040 2977 2886 2786 2737
2349 2320 2345 2337 2302 2294 2265 2243 2212 2188 2190 2187 2124 2077 2025 1897 1779 1820 1926 2013 2081 2142 2150 2068 1957 2032 2524 2801 2771 2655 2634 2657 2747 2806 2875 2957 3012 3025 3006 2939 2846 2770
2640 2538 2381 2382 2347 2309 2276 2252 2221 2164 2114 2083 2055 1977 1926 1944 1906 1780 1743 1846 2016 2099 2132 2176 2152 2041 2036 2383 2766 2860 2807 2728 2658 2692 2736 2806 2897 2956 2975 2954 2889 2815
3030 2972 2883 2753 2547 2378 2320 2263 2212 2166 2100 2032 1986 1898 1801 1778 1884 1886 1778 1696 1782 1992 2138 2174 2254 2327 2296 2223 2351 2676 2892 2926 2817 2723 2714 2730 2780 2844 2890 2906 2891 2846
3404 3347 3281 3192 3058 2828 2497 2366 2289 2218 2134 2053 1959 1862 1744 1670 1662 1789 1820 1781 1702 1719 1900 2110 2202 2292 2452 2528 2489 2452 2612 2836 2876 2787 2730 2710 2717 2775 2856 2901 2934 2932
3661 3606 3546 3462 3360 3222 2994 2660 2439 2370 2265 2139 2026 1922 1794 1651 1553 1701 1841 1871 1800 1706 1714 1874 2073 2195 2338 2520 2682 2728 2683 2684 2771 2773 2743 2732 2753 2769 2794 2867 2951 3010
3828 3771 3699 3628 3534 3415 3261 3053 2728 2511 2435 2299 2152 2016 1930 1828 1730 1724 1938 2092 2121 2021 1878 1897 2030 2194 2358 2448 2578 2746 2826 2857 2830 2787 2760 2762 2799 2804 2797 2782 2810 2879
3918 3864 3814 3746 3642 3524 3401 3252 3050 2757 2526 2469 2362 2216 2076 1947 1877 1798 1855 2142 2326 2402 2339 2213 2183 2313 2516 2646 2677 2728 2818 2848 2863 2853 2825 2821 2829 2824 2823 2800 2769 2764
3954 3944 3892 3815 3722 3609 3504 3376 3220 3027 2780 2561 2511 2388 2276 2132 2034 1959 1918 2003 2252 2513 2655 2620 2537 2494 2606 2838 2983 3007 2984 2986 2967 2942 2934 2952 2952 2949 2943 2941 2935 2880
3927 3943 3912 3850 3771 3684 3588 3471 3340 3182 3018 2783 2547 2469 2390 2309 2215 2144 2130 2128 2122 2277 2570 2848 2924 2923 2858 2834 2958 3147 3211 3236 3196 3160 3129 3116 3109 3093 3095 3178 3257 3342

ECMWFNIL_con_mucape_075.txt.gz
CAPE
1212 1204 1195 1183 1204 1176 1114 1099 1094 1022 1000 1153 1567 1787 1839 1890 1948 2020 2046 2122 2227 2264 2300 2364 2498 2652 2761 2791 2746 2686 2623 2506 2219 1934 1718 1312 816 707 759 25 0 0
1277 1234 1185 1169 1183 1182 1142 1077 1046 1008 941 927 1310 1600 1743 1792 1867 1992 2053 2115 2227 2295 2307 2370 2476 2616 2716 2760 2786 2770 2740 2660 2522 2190 1922 1325 910 954 1077 470 2 0
1385 1328 1297 1282 1222 1212 1197 1119 1069 1034 996 901 1082 1416 1650 1732 1783 1885 2033 2101 2201 2316 2348 2388 2458 2574 2682 2747 2791 2814 2834 2802 2674 2449 2077 1596 1518 1473 1385 1088 0 10
1446 1404 1393 1386 1304 1204 1211 1164 1112 1088 1066 1062 982 1293 1532 1709 1732 1780 1920 2274 2155 2270 2359 2399 2450 2541 2630 2702 2751 2784 2808 2816 2744 2576 2290 2038 2041 1926 1724 1561 580 2
1494 1487 1456 1405 1322 1178 1185 1229 1176 1112 1040 1179 1155 1246 1519 1693 1752 1744 1827 1976 2125 2218 2319 2388 2446 2508 2607 2670 2722 2755 2756 2778 2794 2748 2587 2454 2306 2142 1984 1794 1658 460
1505 1492 1446 1396 1314 1233 1132 1263 1320 1204 1109 1034 1281 1342 1536 1670 1773 1775 1808 1885 2036 2158 2246 2325 2421 2502 2584 2660 2692 2720 2761 2772 2830 2847 2796 2684 2492 2342 2212 2110 1955 1696
1480 1464 1446 1378 1325 1238 1149 1136 1316 1376 1235 1127 1169 1427 1620 1715 1773 1787 1805 1849 1960 2085 2174 2243 2341 2480 2568 2647 2688 2708 2747 2786 2824 2866 2853 2748 2588 2475 2374 2302 2212 2065
1458 1448 1426 1404 1320 1214 1166 1136 1150 1366 1468 1347 1178 1302 1614 1794 1828 1842 1813 1833 1898 2017 2124 2186 2258 2378 2516 2615 2667 2690 2731 2762 2835 2898 2852 2759 2649 2578 2520 2453 2361 2253
1418 1397 1366 1321 1241 1174 1181 1198 1193 1268 1431 1521 1470 1376 1432 1735 1886 1913 1914 1875 1860 1950 2081 2172 2229 2291 2420 2544 2612 2650 2679 2722 2764 2828 2799 2740 2684 2647 2624 2548 2471 2350
1331 1293 1260 1238 1228 1202 1211 1257 1280 1311 1468 1584 1581 1480 1430 1562 1802 1954 1994 1966 1903 1891 1993 2151 2234 2282 2354 2470 2556 2602 2638 2669 2710 2738 2770 2760 2696 2664 2641 2563 2502 2396
1304 1265 1252 1242 1249 1254 1258 1306 1356 1395 1498 1681 1731 1696 1583 1525 1678 1912 2043 2056 2002 1932 1938 2046 2182 2272 2331 2414 2500 2558 2602 2628 2653 2680 2698 2692 2689 2638 2583 2524 2463 2384
1342 1303 1276 1261 1265 1295 1308 1321 1394 1482 1576 1738 1845 1880 1828 1715 1655 1792 2008 2112 2105 2048 1987 2000 2107 2220 2312 2374 2456 2538 2596 2633 2659 2658 2647 2648 2626 2592 2521 2455 2415 2380
1376 1364 1335 1328 1333 1342 1342 1358 1388 1478 1594 1708 1880 1985 1993 1938 1875 1830 1830 2050 2170 2170 2104 2061 2098 2190 2288 2373 2430 2484 2548 2598 2628 2647 2652 2637 2620 2585 2533 2476 2434 2376
1406 1420 1414 1400 1409 1420 1426 1434 1432 1466 1551 1654 1776 1935 2047 2076 2038 1968 1940 1897 2000 2137 2220 2195 2172 2195 2257 2322 2393 2442 2502 2557 2576 2592 2614 2636 2647 2647 2638 2612 2547 2468
1382 1460 1484 1478 1473 1502 1532 1553 1570 1568 1580 1630 1705 1791 1925 2072 2126 2095 2019 1962 1910 1884 1976 2078 2134 2160 2200 2264 2325 2404 2479 2536 2578 2590 2592 2603 2632 2661 2678 2688 2665 2612
1420 1471 1545 1573 1577 1590 1596 1627 1668 1706 1711 1716 1728 1760 1801 1915 2064 2149 2158 2105 2042 1964 1890 1948 1977 1990 2030 2151 2260 2346 2447 2546 2608 2648 2672 2669 2662 2663 2689 2708 2714 2714
1536 1574 1627 1667 1693 1686 1680 1683 1722 1772 1835 1842 1838 1842 1831 1827 1886 2004 2135 2204 2199 2148 2057 1984 2084 2109 2073 2088 2212 2348 2421 2542 2626 2704 2744 2779 2768 2756 2747 2738 2755 2763
1687 1699 1723 1757 1764 1794 1798 1789 1782 1809 1865 1915 1946 1960 1952 1906 1857 1872 1952 2070 2168 2197 2160 2086 2056 2160 2278 2296 2286 2342 2443 2500 2599 2674 2740 2794 2836 2860 2850 2824 2805 2796
1802 1833 1848 1851 1865 1870 1880 1883 1892 1888 1901 1943 2003 2036 2048 2010 1961 1914 1894 1919 1993 2083 2152 2173 2131 2058 2142 2397 2504 2519 2504 2494 2530 2603 2657 2699 2772 2827 2872 2878 2867 2852
1915 1940 1967 1982 1965 1942 1951 1976 1978 1978 1966 1984 2016 2058 2090 2082 2064 2028 1964 1912 1884 1900 1960 2050 2123 2157 2141 2112 2240 2480 2602 2615 2579 2535 2556 2600 2636 2689 2746 2799 2832 2841
2036 2036 2060 2076 2128 2231 2278 2285 2224 2064 2046 2054 2057 2088 2116 2127 2120 2097 2047 1979 1910 1859 1837 1848 1913 2011 2107 2132 2127 2091 2249 2480 2565 2518 2477 2489 2531 2569 2599 2635 2683 2723
2219 2180 2188 2331 2413 2480 2509 2497 2459 2401 2290 2121 2106 2111 2109 2105 2098 2064 2056 2036 2000 1929 1850 1799 1800 1856 1941 2031 2108 2142 2117 2072 2241 2387 2400 2420 2448 2486 2519 2531 2553 2605
2460 2372 2531 2625 2690 2711 2712 2702 2719 2745 2737 2683 2488 2278 2135 2105 2064 2034 2006 1994 1982 1957 1921 1867 1803 1774 1801 1915 2038 2106 2132 2144 2126 2109 2159 2260 2346 2422 2474 2522 2563 2598
2727 2685 2770 2872 2919 2932 2926 2934 2968 3029 3072 3062 2966 2764 2567 2304 2092 2030 1976 1917 1881 1876 1880 1898 1882 1841 1815 1779 1800 2022 2124 2178 2216 2219 2228 2236 2262 2296 2354 2438 2512 2570
3050 2950 2980 3073 3109 3115 3114 3142 3174 3224 3267 3263 3231 3135 3000 2805 2549 2218 2023 1926 1866 1809 1791 1806 1829 1846 1845 1839 1808 1769 1932 2085 2180 2226 2261 2284 2303 2311 2332 2368 2443 2511
3396 3297 3207 3242 3273 3278 3295 3332 3361 3378 3414 3418 3375 3308 3214 3094 2942 2742 2462 2112 1923 1854 1803 1775 1757 1824 1842 1864 1857 1827 1808 1932 2043 2113 2178 2236 2270 2292 2320 2356 2418 2476

ECMWFNIL_con_mucape_078.txt.gz
CAPE
1065 1041 1054 1044 1069 1074 1066 1081 1096 1097 1092 1261 1588 1706 1763 1848 1854 1895 2001 2039 2063 2118 2089 2084 2267 2371 2482 2461 2545 2589 2586 2553 2503 2386 2161 1980 1846 1756 1462 1111 588 463
1236 1172 1091 1056 1073 1088 1081 1062 1075 1070 1081 1074 1364 1574 1642 1703 1808 1884 1879 1966 2112 2172 2090 2099 2202 2354 2462 2472 2555 2618 2626 2599 2635 2580 2426 2224 2031 1890 1708 1362 838 830
1301 1192 1060 1046 1057 1098 1111 1105 1068 1061 1055 1056 1035 1298 1494 1650 1706 1784 1846 1897 1963 2125 2119 2104 2164 2349 2429 2479 2524 2605 2648 2682 2678 2685 2674 2544 2309 2073 1889 1449 1069 1184
1306 1204 1102 1074 1094 1104 1121 1125 1101 1062 1044 1038 1017 1064 1370 1606 1619 1704 1790 2208 1938 2038 2166 2155 2207 2280 2429 2476 2503 2561 2634 2669 2677 2709 2768 2733 2594 2402 2216 1765 1593 1626
1325 1262 1194 1143 1125 1100 1097 1094 1105 1088 1058 1041 1010 978 1310 1536 1578 1589 1701 1867 1948 1980 2102 2226 2229 2288 2402 2478 2469 2529 2572 2617 2643 2719 2792 2831 2791 2649 2414 2033 1932 1934
1340 1278 1234 1192 1151 1110 1078 1082 1088 1067 1062 1020 1012 987 1080 1343 1521 1553 1606 1718 1849 1964 2043 2134 2242 2299 2350 2459 2434 2526 2541 2572 2617 2648 2693 2729 2786 2734 2582 2394 2296 2213
1311 1287 1261 1204 1160 1121 1112 1113 1122 1140 1166 1167 1027 1007 1059 1259 1424 1518 1560 1642 1732 1889 1992 2081 2214 2314 2359 2464 2456 2515 2508 2535 2556 2573 2617 2663 2677 2752 2746 2701 2639 2523
1301 1297 1282 1247 1205 1195 1190 1201 1206 1226 1246 1239 1139 1034 1107 1264 1364 1472 1534 1578 1658 1745 1896 2052 2102 2259 2302 2436 2496 2498 2480 2525 2552 2544 2552 2568 2583 2613 2723 2756 2775 2694
1306 1308 1300 1290 1268 1257 1269 1283 1298 1308 1311 1276 1188 1078 1184 1271 1351 1446 1536 1571 1614 1706 1799 1918 2043 2157 2267 2418 2515 2531 2549 2511 2513 2552 2561 2553 2540 2554 2576 2672 2683 2626
1329 1320 1318 1325 1326 1317 1312 1334 1333 1359 1339 1293 1227 1127 1138 1364 1403 1461 1539 1566 1584 1682 1736 1857 1969 2065 2164 2319 2477 2531 2568 2595 2586 2531 2542 2540 2530 2506 2503 2558 2506 2485
1342 1334 1327 1333 1345 1358 1362 1342 1353 1349 1323 1287 1219 1152 1107 1256 1474 1554 1606 1611 1627 1659 1717 1794 1899 2015 2124 2220 2370 2487 2542 2570 2580 2569 2539 2516 2512 2519 2526 2527 2523 2438
1363 1351 1336 1339 1355 1381 1374 1370 1350 1322 1297 1266 1237 1350 1226 1167 1328 1549 1655 1689 1712 1731 1738 1771 1856 1966 2078 2168 2269 2402 2490 2527 2566 2578 2553 2546 2488 2494 2520 2525 2515 2462
1358 1353 1344 1332 1354 1384 1384 1376 1356 1322 1296 1257 1339 1386 1403 1303 1281 1393 1599 1699 1759 1791 1782 1793 1816 1925 2038 2128 2201 2315 2429 2512 2530 2561 2583 2569 2586 2508 2526 2523 2492 2493
1338 1339 1341 1342 1356 1374 1383 1372 1350 1304 1269 1213 1352 1422 1456 1483 1440 1309 1450 1658 1736 1816 1854 1852 1851 1890 1953 2087 2185 2298 2385 2480 2540 2577 2588 2610 2633 2649 2553 2557 2557 2564
1314 1317 1337 1345 1359 1364 1363 1345 1315 1266 1222 1176 1376 1483 1550 1602 1598 1521 1396 1523 1674 1805 1893 1930 1918 1918 1945 2027 2139 2232 2366 2462 2506 2553 2595 2630 2639 2636 2628 2548 2543 2510
1298 1307 1324 1327 1328 1328 1307 1291 1266 1246 1216 1200 1378 1482 1602 1710 1734 1736 1663 1592 1642 1735 1864 1963 2024 2037 1958 1923 1954 2203 2335 2392 2451 2534 2569 2619 2641 2652 2613 2637 2671 2630
1281 1319 1321 1317 1317 1289 1288 1281 1275 1260 1243 1292 1404 1476 1581 1712 1825 1844 1856 1809 1690 1625 1784 1806 2002 2066 2006 2025 2041 2040 2154 2353 2418 2482 2525 2636 2626 2636 2699 2690 2677 2730
1241 1302 1333 1357 1332 1344 1332 1319 1309 1294 1347 1414 1424 1462 1548 1619 1721 1808 1913 1955 1940 1825 1733 1770 1824 1866 1928 2006 2065 2104 2143 2266 2410 2474 2517 2579 2627 2692 2736 2754 2765 2737
1254 1270 1325 1359 1389 1383 1369 1369 1373 1374 1486 1502 1506 1534 1555 1629 1666 1721 1809 1906 2011 2071 1924 1890 1862 1860 1886 1906 1927 1973 2034 2104 2148 2375 2473 2522 2626 2703 2794 2855 2889 2885
1350 1354 1359 1393 1476 1418 1436 1447 1452 1510 1471 1575 1615 1678 1693 1697 1705 1745 1756 1818 1896 1971 2058 2106 2095 1993 1968 1975 1996 2008 1988 1967 1980 2117 2346 2448 2535 2677 2769 2853 2920 2921
1467 1456 1448 1434 1527 1558 1595 1613 1616 1607 1600 1634 1701 1753 1794 1823 1841 1841 1832 1812 1820 1804 1930 2004 2079 1977 2018 2045 2072 2085 2094 2082 2072 2082 2149 2312 2522 2611 2663 2757 2838 2911
1537 1539 1617 1619 1599 1652 1685 1709 1717 1714 1714 1712 1758 1792 1840 1909 1950 1912 1882 1879 1790 1788 1809 1829 1948 1851 1915 1992 2069 2106 2115 2118 2116 2121 2163 2178 2274 2450 2564 2651 2692 2797
1697 1717 1735 1749 1759 1766 1790 1801 1797 1820 1820 1801 1824 1856 1886 1893 1955 1971 2025 1971 1882 1865 1845 1825 1821 1820 1833 1861 1927 2005 2059 2101 2113 2120 2113 2124 2146 2279 2418 2523 2580 2622
1795 1830 1848 1882 1900 1905 1917 1904 1860 1840 1935 2029 2113 2120 2175 2175 2170 2136 2053 2013 1939 1913 1905 1894 1896 1870 1844 1843 1839 1844 1888 1954 1989 1989 2017 2021 2029 2043 2187 2329 2461 2258
1918 1942 1940 1973 1947 1944 2035 2204 2289 2343 2381 2426 2439 2450 2448 2439 2464 2430 2357 2247 2144 2027 1954 1953 1938 1914 1884 1880 1875 1854 1831 1831 1844 1868 1880 1904 1928 1943 1957 2136 2260 2198
2127 2131 1945 2075 2228 2355 2528 2607 2659 2727 2750 2754 2732 2759 2805 2820 2866 2864 2793 2706 2570 2443 2312 2154 2020 1970 1928 1923 1913 1898 1867 1851 1831 1817 1818 1831 1862 1877 1876 1970 2072 2190

ECMWFNIL_con_mucape_081.txt.gz
CAPE
2058 2046 1999 2052 2093 2016 2211 2321 2309 2341 2665 2500 2707 2897 3211 3566 3538 3443 3456 3563 3618 3552 3694 3716 3606 3564 3437 3505 3646 3474 3570 3732 3557 3469 3618 3173 3022 2772 2417 2163 1985 1763
2040 2060 2040 2082 2172 2270 2454 2325 2386 2369 2686 2828 2788 3037 3384 3516 3571 3508 3607 3600 3651 3540 3752 3663 3681 3659 3621 3438 3694 3507 3562 3658 3738 3390 3465 3385 3302 2980 2570 2552 2270 1912
2064 2033 2032 2020 1999 2052 1787 2096 2255 2272 2296 2387 2654 3009 3168 3206 3324 3505 3612 3619 3543 3336 3674 3666 3710 3742 3684 3684 3880 3721 3429 3787 3629 3303 3394 3516 3312 3126 2976 2360 2241 2048
2131 2064 1934 1807 1839 1919 1931 2089 2202 2182 2051 2279 2394 2446 2694 2675 3088 3382 3538 3398 3554 3545 3584 3524 3504 3540 3734 3757 3924 3674 3530 3888 3568 3696 3660 3562 3430 3152 2984 2591 2401 2242
2170 2119 1976 1910 1902 2064 2142 2137 1912 2005 1996 2078 2096 2363 2754 2915 3060 3032 3284 3454 3528 3566 3645 3568 3626 3507 3770 3784 3918 3713 3457 3642 3735 3956 3728 3674 3666 3299 3039 2732 2641 2578
2236 2207 2161 2097 2111 2218 2083 2028 1946 1919 1956 1936 2086 2111 2223 2678 2708 2717 2969 3023 3111 3150 3138 3352 3550 3462 3605 3754 3863 3685 3632 3350 3322 4039 3779 3656 3562 3331 3063 2911 2905 2684
2299 2300 2247 2109 2139 2155 2058 2054 2078 2044 1942 1940 2158 2022 2049 2236 2530 2632 2807 2836 2746 2996 2946 3231 3664 3546 3563 3719 3684 3401 3298 3428 3705 4030 3956 3704 3722 3717 3326 3138 3124 3020
2238 2200 2205 2166 2096 2068 2098 2099 2129 2176 2120 2086 2168 2166 2131 2038 2349 2460 2647 2709 2622 2963 3155 3298 3748 3826 3593 3595 3632 3535 3356 3074 3139 3294 3434 3826 3885 3886 3836 3451 3301 3286
2303 2310 2256 2192 2088 2071 1966 1932 2063 2137 2119 2148 1975 1943 2152 2046 2246 2261 2666 2808 2704 2818 3224 3292 3607 3685 3546 3640 3657 3714 3565 3373 3339 3485 3474 3535 3772 3944 3809 3756 3494 3392
2428 2327 2166 2122 2025 2011 1936 1886 1870 2019 2140 2048 1930 1860 2067 2208 2211 2282 2693 2853 2746 2852 3085 3138 3368 3398 3481 3591 3712 3748 3789 3813 3694 3586 3572 3563 3650 3828 3735 3753 3647 3578
2348 2263 2168 2110 1998 1978 1964 1880 1845 1881 2036 1932 1888 1802 1942 2207 2338 2400 2605 2796 2555 2687 2918 3027 3097 3225 3412 3289 3443 3620 3736 3705 3734 3764 3642 3475 3508 3653 3721 3879 3786 3612
2347 2237 2164 2081 2020 1991 1970 1929 1888 1896 1984 1988 1912 1911 1914 2044 2331 2327 2436 2718 2658 2655 2859 3049 3112 3212 3377 3342 3196 3446 3586 3545 3626 3734 3557 3578 3544 3470 3504 3653 3782 3726
2386 2328 2220 2074 2148 2062 2030 1997 1924 1898 1912 1996 1999 2007 1956 1978 2082 2328 2448 2590 2788 2768 2734 2926 3114 3112 3303 3443 3342 3356 3544 3623 3332 3530 3664 3642 3636 3528 3550 3722 3693 3661
2423 2403 2318 2231 2206 2278 2212 2089 2018 1980 2032 2010 2111 2107 2047 2006 2012 2131 2412 2494 2653 2714 2790 2832 3089 3111 3246 3385 3378 3326 3365 3560 3518 3407 3446 3619 3651 3699 3624 3530 3590 3622
2624 2515 2448 2394 2318 2460 2349 2219 2134 2142 2133 2109 2177 2180 2120 2108 2105 2058 2274 2441 2451 2702 2784 2813 2866 3028 3076 3224 3312 3375 3390 3296 3441 3482 3451 3502 3597 3599 3572 3580 3502 3469
2745 2623 2569 2611 2465 2574 2520 2336 2202 2212 2135 2170 2206 2196 2241 2248 2258 2234 2219 2377 2472 2701 2838 2830 2824 2906 2832 2492 2672 3152 3393 3167 3212 3446 3480 3396 3532 3635 3486 3493 3508 3469
2771 2699 2687 2648 2524 2489 2482 2453 2304 2262 2238 2322 2291 2278 2275 2404 2400 2358 2302 2304 2349 2500 2725 2680 2778 2834 2468 2162 2053 2114 2712 3218 3302 3420 3531 3496 3402 3690 3652 3372 3387 3496
2624 2644 2635 2628 2612 2545 2538 2478 2344 2315 2332 2420 2389 2378 2457 2454 2522 2449 2514 2320 2266 2358 2428 2583 2731 2476 2236 2008 1862 1817 1899 2700 3049 3232 3277 3390 3334 3279 3449 3481 3426 3381
2668 2715 2637 2572 2590 2550 2536 2577 2518 2475 2458 2450 2352 2372 2442 2551 2556 2468 2535 2520 2440 2548 2400 2436 2593 2378 2089 1928 1847 1778 1792 1910 2577 2995 3089 3296 3320 3359 3379 3516 3594 3578
2774 2660 2609 2608 2621 2593 2614 2564 2518 2517 2353 2240 2214 2335 2441 2494 2396 2540 2648 2805 2700 2683 2724 2599 2612 2408 2099 1907 1812 1808 1825 1830 2408 2717 2997 3070 3196 3344 3389 3469 3557 3583
2710 2688 2696 2677 2692 2672 2652 2598 2519 2522 2378 2224 2190 2317 2516 2576 2528 2546 2683 2742 2692 2658 2779 2801 2746 2448 2214 1951 1813 1783 1788 1831 2184 2534 2759 2933 3025 3140 3382 3404 3495 3542
2579 2691 2748 2763 2740 2651 2619 2601 2626 2638 2594 2390 2306 2320 2442 2448 2527 2443 2574 2668 2687 2652 2585 2693 2732 2344 2212 2022 1880 1804 1785 1776 1986 2559 2687 2790 2969 3101 3356 3497 3529 3515
2452 2612 2724 2730 2718 2664 2628 2622 2667 2736 2702 2618 2504 2426 2429 2459 2554 2506 2601 2650 2620 2607 2640 2667 2769 2624 2143 2026 1923 1861 1844 1834 1970 2456 2733 2900 3030 3222 3397 3411 3445 3580
2515 2591 2671 2676 2721 2699 2707 2601 2638 2698 2676 2659 2616 2478 2391 2540 2615 2624 2610 2660 2570 2632 2603 2778 2766 2674 2188 1958 1876 1848 1837 1843 2238 2548 2828 2941 3116 3257 3305 3368 3457 3083
2731 2790 2741 2673 2734 2680 2580 2657 2666 2742 2668 2680 2604 2522 2543 2686 2603 2664 2741 2792 2714 2650 2458 2486 2768 2644 2308 2066 1854 1783 1768 1996 2518 2638 2797 2976 3086 3242 3405 3432 3583 3276
2846 2889 2845 2665 2810 2748 2664 2774 2850 2732 2785 2798 2691 2588 2649 2709 2742 2734 2834 2909 2838 2740 2692 2496 2552 2846 2454 2153 1954 1822 1747 1891 2646 2644 2634 2822 3120 3048 3243 3369 3461 3604

ECMWFNIL_con_mucape_084.txt.gz
CAPE
2690 2827 2756 2770 2673 2310 2091 2240 2033 1905 2006 1814 2150 2467 2342 2793 2949 2758 2972 3272 3503 3481 3412 3591 3535 3454 3260 3220 3480 3190 2794 3005 2990 2747 3164 3179 2868 2678 2428 2268 2228 2030
2751 2775 2719 2666 2668 2557 2313 2397 2449 2094 2489 2365 1982 2068 2644 2648 3083 3036 3255 3370 3567 3565 3475 3610 3784 3660 3381 2942 3506 3459 3214 3088 3216 2718 3244 3602 3383 3050 2726 2744 2550 2542
2942 2727 2740 2593 2504 2616 2084 2372 2548 2542 2350 2472 2202 2315 2569 3080 3259 3470 3241 3241 3245 3094 3480 3545 3615 3800 3372 3185 3426 3542 3096 3483 3247 2551 3032 3590 3355 3346 3137 2528 2639 2703
2760 2678 2675 2648 2404 2486 2451 2351 2757 2902 2298 2487 2460 2364 2524 2458 3062 2972 3287 3284 3036 3095 2913 3435 3299 3120 3270 3157 3499 3283 3313 3681 3192 2904 3068 3468 3502 3322 3113 3120 2830 2729
2799 2739 2735 2889 2599 2649 2784 2646 2634 2733 2581 2307 2610 2646 2997 2932 3055 2862 3204 3308 3342 2877 2932 3058 3236 3034 3181 3288 3448 3371 3100 3247 3377 3444 3262 3537 3614 3574 3189 3148 3376 3224
2907 2844 2996 3208 3017 2934 2910 2879 2750 2650 2725 2295 2607 2639 2803 3228 3103 2943 2791 2856 2826 2607 2247 2552 2907 2790 2852 3180 3311 3318 2934 2820 2694 3633 3820 3578 3188 3081 3131 3198 3615 3707
3139 3170 3077 3196 3282 3018 3077 3047 2917 2795 2778 2420 2653 2726 2712 3036 3192 2910 2775 2904 2500 2439 2192 2286 2826 2833 2753 3007 3422 3414 3317 3402 3203 3443 3652 3730 3526 3133 3173 3450 3678 3870
3381 3206 3079 3231 3264 3091 3048 3030 3047 3069 2828 2792 2567 2940 2809 2805 3137 2978 2886 2858 2813 2778 2830 2674 2912 3382 3026 2842 3273 3378 3349 3086 3440 3736 3851 3607 3698 3834 3741 3561 3830 4062
3170 3087 3189 3467 3300 2989 2913 2966 3097 3093 2817 2824 2672 2821 2986 2760 2831 2872 3064 3274 3138 3000 3231 3323 3314 3477 3365 3026 3162 3546 3598 3022 2867 3428 3662 3607 3701 3943 3833 3734 3801 4058
3631 3543 3461 3296 3058 2896 2885 2839 2767 2902 2980 3080 2829 2661 2952 3004 2764 2926 3226 3569 3565 3373 3438 3715 3650 3587 3507 3380 3587 3742 3736 3628 3100 3251 3556 3692 3717 3699 3652 3766 3678 3909
3444 3344 3305 3158 2899 2732 2758 2720 2510 2647 3000 3025 2923 2558 2637 3061 3058 3040 3319 3729 3669 3639 3616 3774 3764 3786 3840 3400 3392 3628 3847 3600 3378 3363 3600 3849 3761 3816 3775 3924 3825 3706
3591 3325 3248 3076 2843 2661 2576 2551 2495 2540 2849 3050 2951 2677 2502 2778 3220 3154 3180 3662 3967 3731 3720 3886 3914 3840 3858 3668 3106 3350 3654 3633 3398 3477 3515 3756 3853 3633 3805 3953 3780 3827
3520 3371 3157 2898 2978 2751 2614 2638 2534 2469 2586 2862 2893 2765 2480 2472 2925 3328 3362 3502 3971 3818 3655 3844 4018 3800 3846 3865 3484 3150 3402 3746 3161 3092 3426 3550 3758 3504 3318 3484 3696 3733
3542 3484 3146 3107 3023 3113 2934 2748 2633 2516 2602 2779 2980 2860 2532 2392 2570 3033 3391 3421 3631 3733 3693 3626 3929 3912 3860 3917 3836 3316 3023 3552 3734 3051 2884 3427 3538 3620 3342 2981 3164 3441
3660 3534 3489 3241 3106 3271 3177 3022 2860 2744 2776 2892 3103 2957 2619 2403 2480 2709 3191 3404 3377 3572 3657 3505 3543 3837 3804 3884 3900 3776 3354 3189 3598 3603 3081 2956 3319 3499 3358 3286 2935 2726
3773 3750 3645 3608 3308 3445 3489 3233 3035 2999 2891 3014 3118 3069 2890 2736 2672 2704 2825 3208 3433 3650 3699 3588 3466 3577 3622 3120 3357 3706 3651 3063 3175 3593 3632 3180 3223 3270 3100 3074 3116 2928
3895 3869 3786 3690 3562 3490 3588 3516 3231 3179 3128 3269 3302 3311 3205 3183 3083 2958 2797 2860 3251 3452 3677 3535 3553 3449 3139 2981 2934 3052 3394 3646 3300 3411 3792 3860 3469 3475 3585 2931 2642 2836
3930 3969 3922 3867 3737 3786 3802 3682 3407 3332 3355 3471 3408 3427 3515 3342 3350 3211 3197 2886 3008 3293 3390 3538 3585 3179 2923 2834 2697 2692 2860 3154 3408 3509 3373 3581 3537 3188 3174 3138 2923 2502
3976 4025 3963 4023 3944 3845 3954 3788 3656 3581 3521 3517 3461 3562 3517 3597 3603 3485 3489 3279 3075 3286 3209 3250 3536 3019 2846 2672 2517 2352 2207 2338 2635 3062 3323 3404 3368 3468 3259 3188 3304 3329
4017 4084 4038 4012 4049 3928 3949 3883 3721 3728 3503 3414 3452 3587 3707 3756 3552 3604 3600 3670 3470 3365 3416 3316 3463 3013 2816 2569 2392 2202 2065 1979 2596 2472 2831 3112 3424 3545 3489 3641 3741 3780
4073 4057 4104 4097 4085 3976 3980 3969 3884 3782 3634 3384 3329 3485 3705 3775 3754 3703 3757 3786 3637 3449 3404 3368 3500 2828 2771 2600 2323 2126 1948 1799 2517 2381 2415 2817 3217 3593 3733 3628 3896 4124
4002 4018 4080 4098 4097 3953 3910 3912 3933 3997 3901 3594 3313 3325 3552 3700 3791 3641 3779 3798 3658 3619 3318 3365 3374 2833 2713 2588 2413 2136 1898 1719 2505 2660 2702 2873 3128 3543 3748 3986 4048 4255
3807 3912 3950 3953 3974 3918 3860 3804 3843 3923 3892 3738 3515 3388 3426 3539 3750 3586 3671 3633 3662 3755 3670 3468 3507 3566 2745 2528 2379 2189 1950 1992 2543 2855 3046 3202 3355 3684 3817 3809 3784 4009
3723 3797 3910 3840 3919 3855 3838 3730 3761 3933 3908 3850 3648 3328 3122 3415 3611 3754 3689 3626 3558 3725 3554 3791 3664 3606 2900 2660 2416 2175 1992 2423 2750 3007 3207 3286 3447 3633 3670 3743 3879 3603
3694 3867 3898 3818 3897 3820 3700 3761 3816 3900 3875 3756 3565 3434 3127 3364 3481 3636 3676 3638 3508 3448 3211 3364 3694 3333 2990 2805 2526 2269 2068 2670 2948 3109 3194 3271 3350 3526 3786 4000 4260 4096
3698 3918 3948 3694 3860 3889 3753 3846 3825 3786 3846 3692 3568 3396 3317 3255 3403 3511 3664 3688 3560 3436 3351 3337 3357 3801 2936 2844 2604 2360 2141 2539 3066 3084 3014 3225 3346 3409 3814 4047 4097 4483

ECMWFNIL_con_mucape_087.txt.gz
CAPE
2964 3037 2746 2400 2162 1776 1929 2445 2351 1963 1342 651 1132 2060 1979 2225 2207 1927 2343 2680 3010 3019 2924 3073 3094 3294 3022 3094 3326 2719 2487 2572 2542 2621 2987 3021 2921 2659 2410 2222 2244 1750
3150 3174 2964 2754 2664 2384 2266 2335 2456 2084 1705 1194 988 1660 2132 2078 2453 2223 2389 2718 3099 3084 3016 3004 3174 3258 3151 2848 3377 3306 2881 2754 2749 2479 2899 3287 3205 2990 2598 2589 2326 2323
3221 3247 3232 3011 2622 2614 2181 2226 2402 2181 1687 1378 920 1357 1907 2183 2417 2749 2607 2618 2875 2840 3107 3072 3194 3264 3206 2995 3192 3357 2961 3105 2973 2082 2649 3220 3158 3228 2969 2388 2624 2684
3275 3218 3138 3011 2738 2866 2464 2252 2252 2321 1521 1646 1317 1244 1569 1805 2254 2722 2976 2823 2839 2805 2681 2809 2842 2754 3111 3094 3324 3201 2872 3248 3060 2825 2680 3054 3284 3160 3002 2901 2504 2515
3053 3043 3207 3131 2735 2833 2710 2226 2017 2105 1722 1638 1822 1632 1798 1950 2357 2650 2998 3192 3159 3077 3022 2875 3048 2862 2914 3026 3361 3307 2838 3014 3051 3227 3080 3172 3386 3380 3074 2991 3052 2946
3118 3291 3393 3513 3066 2696 2600 2262 2087 1921 2035 1464 2072 1950 1811 2182 2248 2387 2627 2939 3006 2553 2227 2655 2950 2917 2845 3134 3409 3288 2765 2406 2432 3470 3309 3091 3148 3009 2879 2773 3222 3388
3306 3363 3455 3386 3100 2784 2864 2607 2250 1994 2138 1730 2105 2122 1965 2296 2506 2561 2281 2502 2304 2424 2046 2121 2699 2629 2802 2801 3212 3502 3470 3041 2572 3104 3657 3492 3288 3077 2694 2888 3254 3582
3314 3289 3304 3378 3361 3001 3017 2797 2672 2359 2500 2500 2032 2312 2177 2318 2833 2568 2360 2208 2121 2089 2117 1920 2460 2786 2615 2714 3150 3452 3692 3082 3136 3168 3538 3771 3606 3649 3246 3074 3340 3866
3352 3417 3478 3302 3352 3152 2825 2863 3026 2887 2552 2706 2150 2305 2493 2340 2729 2658 2667 2561 2440 2315 2336 2168 2651 2575 2867 2850 2957 3320 3621 3091 2449 2912 3402 3519 3681 3818 3725 3522 3349 3690
3518 3439 3164 3147 3181 2981 2778 2554 2554 2932 2712 2734 2550 1996 2483 2790 2521 2877 2826 2986 2787 2684 2734 2734 2650 2621 2990 2984 2910 3048 3345 3627 3121 2769 3076 3378 3466 3399 3378 3459 3411 3600
3488 3246 3254 3069 2875 2695 2819 2473 2219 2494 2922 2849 2686 1990 2070 2763 2801 3047 3218 3309 2983 2937 3060 3148 3051 3101 3169 3013 2988 2904 3351 3482 3366 3157 3062 3347 3509 3622 3347 3319 3358 3393
3543 3329 3196 2972 2814 2542 2588 2392 2068 2131 2627 2786 2727 2335 1995 2485 2921 2876 3025 3560 3584 3407 3390 3594 3611 3628 3488 3295 2845 2943 3107 3329 3344 3263 3001 3213 3388 3609 3740 3594 3282 3448
3616 3203 3220 2738 2643 2547 2374 2279 2011 1880 2111 2561 2635 2474 2018 2032 2702 2875 2943 3480 3943 3704 3490 3657 3921 3915 4070 3972 3317 2827 3076 3342 2996 2916 3099 3156 3256 3255 3249 3118 3204 3090
3738 3434 2913 2937 2799 3034 2571 2318 2156 1811 1842 2298 2718 2627 2194 1970 2122 2679 2929 3287 3870 3920 3754 3762 4174 4210 4330 4405 4003 3287 2875 3246 3365 2895 2696 2961 2984 3267 3233 2568 2376 2636
4089 3695 3346 3196 3172 3114 2710 2518 2382 2063 2010 2315 2818 2655 2236 1922 1795 2221 2802 2957 3528 3979 3789 3570 3964 4292 4252 4295 4517 3923 3154 2921 3456 3455 2906 2616 2946 2939 2932 2752 2044 1742
4306 4154 3670 3747 3251 3244 3285 2745 2530 2492 1916 1885 2640 2788 2611 2323 2092 1942 2489 2994 3157 3652 3779 3594 3581 4126 4244 3874 3984 4221 3768 2908 3203 3780 3523 2753 2735 2907 2664 2416 2212 1772
4515 4299 4196 4023 3780 3348 3253 3202 2920 2705 2495 2967 3016 3108 3171 3028 2521 1997 2030 2685 3060 3315 3716 3603 3455 3684 3918 3661 3688 3704 3942 3662 3028 3391 3756 3528 2758 2913 2817 2200 1921 1902
4631 4533 4346 4206 3977 3830 3786 3496 2885 2996 3235 3312 2937 3155 3735 2877 2464 2306 2622 2398 2715 3230 3387 3530 3657 3495 3548 3566 3473 3458 3574 3993 3186 2984 3400 3531 3445 2814 2740 2713 2419 1920
4733 4831 4570 4268 4222 4100 4080 3878 3665 3417 3185 2922 2741 3292 3357 3575 3465 2857 2801 2738 2726 3325 3213 3359 3620 3181 3148 3397 3350 3273 3223 3396 3303 2963 2664 3132 3388 3240 2701 2748 2770 2581
4919 4849 4737 4647 4398 4323 4266 4066 3743 3636 3248 3086 2890 3449 3773 3678 3219 3204 3193 3565 3166 3097 3440 3309 3867 3341 3059 3131 3203 3144 3053 3155 3063 2711 2908 2756 2845 2913 2886 2755 2708 2668
4881 4937 4934 4816 4684 4433 4672 4454 4078 3923 3560 3241 3236 3563 3929 4055 3672 3510 3521 3564 3218 3048 3179 3073 3638 3685 3045 3050 3010 3003 2906 2690 2870 2236 2243 2691 2945 2986 3224 2959 3305 3149
4744 4924 4997 4982 4780 4593 4711 4606 4328 4326 4163 3603 3311 3285 3748 4044 4201 3699 3751 3767 3656 3302 3016 2962 3542 3569 3152 3118 3070 2918 2794 2630 3128 2754 2455 2352 2689 3081 3361 3674 3613 3518
4883 4986 5013 4859 4845 4738 4837 4828 4646 4518 4280 4017 3574 3296 3501 3934 4212 3862 3829 3900 3770 3656 3423 3463 3332 2978 2991 3042 3088 3025 2790 2726 3142 3161 3197 3092 2851 3004 3351 3550 3812 4072
4830 4865 4899 4868 4959 4920 4874 4686 4599 4480 4339 4207 3873 3417 2931 3440 3942 4042 3755 3736 3725 3880 3614 3513 3331 4508 2937 2922 2957 2922 2805 3094 3232 3287 3377 3447 3405 3353 3399 3479 3873 4142
4719 4788 4854 4872 4900 4801 4590 4680 4652 4646 4518 4362 3847 3492 3045 2963 3276 3626 3747 3816 3773 3694 3758 3500 3484 4714 3082 2957 2897 2816 2732 3358 3416 3421 3450 3724 3585 3678 3765 3847 4115 4278
4628 4895 5001 4826 4862 4746 4579 4835 4689 4490 4494 4323 3957 3681 3274 2821 2878 3224 3656 3703 3436 3422 3524 3757 3786 3590 3360 2957 2948 2897 2769 3371 3599 3500 3528 3649 3786 3870 3885 3997 3994 4253

ECMWFNIL_con_mucape_090.txt.gz
CAPE
2454 2452 2411 2154 2154 1791 2286 2870 2548 2319 2374 1716 2524 2791 2880 3014 2785 3047 2752 3598 3928 3725 3839 4090 3656 3630 3586 3773 3521 3318 4571 3386 3147 4128 4097 4079 3698 3342 2383 2280 2353 2069
2491 2692 2536 2355 2304 2266 2625 3019 2970 2839 2773 2263 1762 2844 3202 3422 2895 3244 3010 3693 3973 3668 3969 3693 4144 4100 4003 3816 4078 3801 3423 3836 3614 2885 3662 3889 4086 3643 2605 2648 2368 2245
2678 3033 2796 2344 2119 2323 1382 2370 2962 3091 2810 2021 1771 2820 3011 3162 2992 3209 3401 3580 3516 3262 4120 4030 4074 4234 3961 4257 4432 4194 3706 4059 3388 2777 3917 3983 3966 4207 3879 2526 2471 2646
3031 2916 2274 1934 1904 1964 1580 1878 2722 3034 2487 2348 1501 1315 2479 1957 2964 3192 3656 3729 3835 3731 3472 3462 3667 3561 3824 3916 4250 4077 4039 4141 3657 3782 4079 4296 4186 3872 3366 3794 3060 3240
3088 2962 2652 2331 2158 2101 1896 1892 1778 2547 2340 2274 1586 1326 2434 3261 3031 3150 3476 3560 3934 3724 3729 3818 3889 3663 4067 3996 4072 4140 3676 3842 3923 4135 3979 4312 4518 4102 3518 3500 3852 3547
3214 2912 3039 2737 2546 2622 2205 1961 2053 2183 2254 1888 1836 1261 1748 3624 2768 2920 3114 3056 3045 2993 2808 3026 3405 3235 3612 3991 4083 3957 3662 3091 3462 4019 3800 4099 3506 3760 3223 3876 3873 3709
3009 3195 3151 2978 2594 2706 2492 2296 2191 2243 2190 1759 1976 1496 1413 2088 2718 2672 3140 3164 2792 3037 2880 3017 3486 3395 3333 3779 3953 4362 4316 4060 3772 3994 4008 3832 4083 4057 3267 3629 4337 3994
3130 2897 3010 2938 2460 2603 2634 2842 2470 2390 2514 2123 2136 2204 1891 1691 2418 2500 3065 3161 3014 3174 3054 3185 3784 3936 3296 3649 4002 4081 3938 3256 3749 4708 4098 4234 4052 3925 4013 3826 4330 4231
3207 3167 3025 3000 2766 2492 2414 2398 2398 2225 2409 2229 1593 1780 2340 1995 2416 2269 2778 3234 3189 3302 3213 3121 3828 3598 3273 3320 3530 3888 3878 3498 3112 3509 4201 4116 4216 4202 3869 3856 3938 4174
3364 3187 2936 2674 2561 2333 2153 2149 2029 1854 2125 2253 1741 1678 2216 2481 2618 2510 3053 3317 3233 3318 3302 3020 3615 3286 3088 3336 3620 3779 3857 4022 3872 3485 3501 3899 4107 4084 3955 4070 3772 3864
2975 2963 2637 2781 2672 2305 2171 2058 2076 1825 1639 1732 1653 1593 1877 2220 2802 2938 3202 3418 2988 3144 3230 2990 3030 3138 3164 2930 3261 3398 3785 3824 3752 3862 3737 3781 3769 3984 4259 4181 4030 3739
2978 2914 2947 2584 2474 2341 2388 2184 2026 1837 1593 1628 1776 1709 2022 1847 2698 2893 3107 3384 2912 2890 3239 3053 2929 2968 3247 3178 3039 3160 3514 3560 3802 3809 3392 3630 3814 3830 3933 3913 3873 3930
3300 3013 2853 2518 2696 2536 2240 2137 1716 1856 1908 1787 1953 1816 1711 1898 2081 2658 2960 3349 3216 3026 3012 3217 3146 2994 3246 3497 3376 3217 3252 3403 3207 3679 3532 3392 3476 3452 3493 3661 3629 3653
3263 3163 3030 3026 2776 2840 2890 2455 1940 2140 2471 2463 2483 2230 1631 1668 2058 2290 2824 3132 3303 3043 3066 3213 3535 3297 3504 3688 3628 3435 3328 3363 3375 3440 3381 3339 3108 3262 3246 3115 3453 3477
3553 3295 3229 3312 2984 3110 2986 2718 2329 2261 2570 2754 2698 2435 1804 1336 2076 2184 2549 2863 3264 3282 3231 3144 3528 3574 3563 3829 3753 3601 3204 3211 3377 3316 3304 3175 3097 2901 2932 2998 2947 2890
3947 3684 3432 3507 3337 3296 3146 2958 2714 2441 2244 2726 2840 2577 2322 1934 1755 2523 2590 2864 3333 3847 3761 3461 3491 3705 3629 3494 3471 3620 3474 2769 3226 3432 3163 2930 3145 3044 2868 2903 2633 2464
4149 3952 3727 3710 3512 3428 3156 2977 2858 2485 2249 2601 2946 2756 2584 2606 2283 2482 2636 2708 2920 3462 3814 3575 3499 3669 3637 3544 3434 3523 3494 3246 3112 3600 3588 3438 3237 3263 3025 2621 2668 2701
4258 4283 4106 3945 3635 3475 3264 3102 2853 2693 2524 2666 2906 2904 3052 2959 2572 2509 2620 2697 2672 3043 3482 3774 3616 3363 3634 3588 3683 3732 3532 3639 3283 3371 3586 3637 3326 2837 2981 2922 2791 2475
4440 4446 4244 3999 3778 3650 3522 3256 3116 2971 2785 2714 2793 2969 3218 3258 2784 2592 2693 2766 2826 3002 3345 3782 3712 3122 3437 3620 3618 3688 3677 3618 3456 3075 3032 3484 3443 3219 2770 2798 2805 2634
4659 4577 4394 4113 3988 3991 3768 3348 3195 3272 2866 2664 2524 2930 3291 3381 3157 2760 2698 2921 2984 3251 3257 3535 3829 3301 3097 3486 3563 3552 3669 3669 4040 3529 3142 3014 3522 3601 3223 3110 3076 2910
4916 4806 4625 4333 4137 4062 3982 3610 3333 3377 3114 2584 2240 2595 3301 3535 3285 2931 2820 2843 2906 3292 3529 3388 3593 3518 3072 3134 3497 3540 3614 3601 3810 3372 3009 3035 3315 3632 3862 3549 3363 3078
4995 5019 4932 4514 4256 4056 4056 3941 3563 3465 3399 2930 2447 2279 2893 3700 3672 3098 3077 2929 2823 2620 2576 3319 3103 3564 3197 3056 3307 3503 3500 3445 3538 3464 2961 2926 3171 3305 3583 3902 3808 3583
4924 5052 5068 4795 4391 4036 4018 4002 3762 3575 3522 3255 2943 2608 2743 3480 3509 3173 3240 3130 2769 2886 2899 3021 4165 3592 3334 3143 3149 3356 3389 3315 3393 3495 3340 2997 2969 3672 3930 3845 3778 3747
4921 5058 5102 4952 4637 4130 4020 3971 3903 3638 3420 3393 3260 2898 2373 2712 3356 3422 3414 3200 2855 2913 3097 3372 3688 3438 3320 3202 3121 3092 3086 3101 3427 3586 3509 3271 3193 3282 3521 3628 3582 3880
5115 5226 5079 4848 4843 4412 3786 4056 3893 3692 3357 3459 3110 2868 2886 3418 3611 3665 3579 3440 3108 3135 3055 3349 3305 4350 3162 3133 3129 3106 3064 3157 3467 3624 3666 3510 3473 3445 3518 3724 3968 4058
4989 5234 5259 4904 5010 4816 4458 4568 4291 3674 3431 3290 3011 2759 2894 3207 3653 3701 3993 3825 3309 3105 3442 3445 3275 5528 3066 2985 2990 3002 3009 3155 3706 3695 3614 3637 3598 3587 3573 3545 3686 4128

ECMWFNIL_con_mucape_093.txt.gz
CAPE
1251 1245 969 980 1236 1377 595 590 322 997 2120 2212 2728 2571 2612 2822 2720 2774 3303 3068 2848 3068 2804 2744 2663 2515 2531 2516 2796 3042 3012 2967 2875 2998 2831 3077 2555 2557 2093 1840 1979 2196
1262 1276 1198 818 987 1768 1067 820 434 540 1545 2182 2171 2738 2471 2486 2423 2412 3053 3112 3048 2769 3193 2803 2864 2876 2686 3016 2692 2923 3158 2903 2874 3222 2929 3267 2571 2572 2875 1934 1466 1635
1219 1233 1183 844 837 1416 1646 1111 803 489 1090 1794 2185 2316 2443 2206 2199 2297 2764 2935 2986 2799 2986 3109 2764 3109 3136 3064 2919 2738 3090 2742 2815 3027 3115 3125 2852 2874 2992 2513 1624 2262
1146 1094 1096 898 806 916 1838 1548 1316 968 1084 1327 1777 2178 2122 2475 1886 2621 2316 3456 2916 2865 3135 3029 3078 3060 3060 3351 3018 3084 3032 3157 2613 2735 2644 3192 2879 3107 3123 3192 2146 1798
1120 1055 980 929 767 898 1116 1895 1740 1489 1476 1368 1297 1872 2025 2232 2075 2534 2188 3102 2874 2835 3125 3028 3045 3161 2994 3360 3185 2883 3239 2832 3027 3080 3287 3043 3098 3017 3146 3042 3005 2398
1192 1067 1031 930 779 888 782 1467 1995 1899 1817 1597 1222 1392 2008 1890 2240 1965 2408 3012 2761 2894 2957 3011 3078 2930 3169 3125 3483 3020 3087 3211 2861 2940 3177 3556 3290 3079 3133 3179 2982 2899
1252 1177 1157 997 874 898 809 839 1551 2058 1942 1863 1345 949 1848 1763 2139 1951 2449 2446 2953 2929 2862 2893 3065 2944 3128 2955 3314 3236 3087 3263 2811 2937 2888 3014 3553 3217 2850 2848 3026 2630
1310 1251 1314 1154 972 967 956 746 962 1662 1932 1824 1664 1038 976 2093 1910 2123 2214 2197 2785 2875 2743 2796 2849 2955 3138 2964 3111 3103 2989 3388 3008 2857 2798 2570 2951 3066 3305 3144 3378 2803
1354 1358 1434 1336 1120 1097 1099 876 878 1180 1702 1708 1730 1485 768 1588 1968 2193 2157 2179 2275 2685 2599 2595 2722 2710 2932 2931 2954 3165 2939 3082 3168 3308 2838 2620 2734 2758 2798 2911 3334 3468
1473 1458 1541 1501 1301 1230 1274 1121 985 1073 1539 1585 1624 1539 1153 885 2048 2070 2238 2222 2187 2318 2506 2438 2604 2588 2613 2815 2848 2982 3030 3006 2850 3169 3056 2950 2972 3027 2911 2902 2907 3186
1691 1567 1582 1624 1499 1348 1418 1369 1206 1180 1478 1610 1492 1434 1236 827 1742 1900 2272 2322 2307 2354 2386 2492 2577 2619 2626 2675 2888 2866 2964 2972 2899 2739 3086 3083 3090 3233 3778 3218 3113 2973
1950 1769 1670 1655 1624 1475 1470 1505 1481 1394 1442 1676 1510 1406 1265 931 1334 1747 1976 2382 2388 2484 2475 2402 2577 2641 2625 2607 2743 2828 2909 2952 2969 3031 2831 3015 3191 3231 3478 3413 3284 3292
2209 1950 1782 1716 1699 1576 1540 1562 1588 1615 1513 1616 1564 1355 1331 1286 1417 1562 1774 2112 2357 2445 2565 2412 2388 2676 2561 2525 2566 2693 2784 2891 2942 2984 3133 2874 2846 3119 3302 3437 3417 3402
2311 2174 1953 1790 1714 1682 1681 1656 1692 1783 1646 1564 1590 1354 1283 1454 1559 1673 1736 1950 2181 2294 2448 2470 2234 2457 2548 2367 2379 2552 2707 2791 2899 2950 2960 3021 2940 2856 2896 3037 3213 3319
2386 2324 2160 1952 1908 1894 1884 1816 1764 1818 1742 1547 1490 1386 1180 1446 1575 1825 1863 2005 2186 2176 2208 2328 2254 2086 2325 2360 2264 2355 2496 2660 2748 2856 2933 2891 2801 2816 2892 2896 2928 2970
2477 2383 2275 2154 2043 1992 1943 1878 1766 1758 1772 1583 1385 1336 1162 1364 1554 1796 1978 2064 2254 2242 2114 2162 2251 2075 2087 2225 2330 2357 2408 2460 2566 2629 2749 2856 2796 2626 2576 2694 2773 2883
2639 2442 2270 2218 2172 2086 2016 1920 1773 1676 1706 1643 1398 1294 1237 1254 1566 1702 1914 2064 2227 2328 2169 2087 2263 2322 2106 2026 2198 2331 2447 2504 2509 2484 2502 2704 2852 2785 2603 2532 2562 2587
2840 2562 2280 2235 2222 2166 2038 1963 1838 1656 1622 1631 1530 1521 1454 1287 1434 1718 1828 2002 2160 2362 2304 2153 2167 2357 2395 2159 2098 2204 2327 2510 2528 2530 2481 2489 2633 2787 2744 2572 2475 2481
2903 2634 2378 2331 2305 2240 2126 2092 2054 1741 1581 1854 1878 1786 1704 1528 1370 1666 1845 1921 2072 2344 2459 2356 2261 2272 2522 2461 2274 2246 2305 2332 2380 2444 2550 2517 2428 2412 2464 2506 2428 2323
2994 2774 2586 2455 2459 2411 2262 2171 2175 2044 1728 1800 2060 2005 1918 1786 1557 1482 1880 1964 2055 2253 2576 2626 2537 2446 2519 2658 2556 2432 2431 2399 2304 2301 2340 2561 2590 2462 2372 2385 2462 2417
2995 2826 2778 2619 2581 2570 2470 2299 2208 2210 2004 1781 2006 2123 2031 1943 1804 1584 1809 2063 2114 2186 2467 2782 2844 2787 2680 2740 2788 2672 2601 2614 2421 2420 2308 2308 2610 2740 2647 2516 2437 2455
3130 3073 2966 2807 2719 2688 2632 2473 2279 2209 2176 1935 1825 2097 2130 2041 1976 1780 1700 2029 2173 2185 2265 2572 2902 2960 2898 2838 2876 2875 2795 2767 2663 2596 2592 2460 2382 2618 2878 2820 2671 2533
3259 3174 3103 2985 2866 2776 2704 2623 2430 2234 2201 2090 1864 1887 2160 2105 2077 1974 1798 1812 2106 2232 2236 2345 2698 3037 3047 2958 2900 2956 2990 2925 2860 2791 2852 2768 2663 2585 2689 2951 3002 2876
3381 3277 3220 3149 3025 2897 2778 2702 2546 2305 2172 2178 1997 1824 2034 2200 2161 2094 1963 1810 1802 2112 2343 2306 2408 2831 3164 3120 2982 2920 2999 3048 3014 2963 2978 2894 2770 2722 2695 2941 3180 3817
3526 3406 3322 3267 3161 3020 2896 2796 2659 2428 2209 2227 2132 1880 1816 2166 2285 2204 2130 2014 1837 1763 2030 2418 2451 2540 2893 3118 3089 2925 2865 2939 3002 3024 2983 2941 2805 2652 2535 2427 2412 3175
3666 3580 3462 3384 3298 3147 2982 2891 2785 2544 2272 2216 2235 2046 1786 1922 2326 2310 2253 2202 2138 1987 1826 1852 2134 2588 2705 2830 2981 2969 2904 2838 2852 2927 2938 2939 2903 2789 2570 2332 2195 2210

ECMWFNIL_con_mucape_096.txt.gz
CAPE
379 63 542 73 0 0 0 35 291 844 1252 1489 1670 1581 1894 2311 2218 2611 2515 2484 2501 2450 2092 2013 2218 2315 2247 2406 2600 2660 2784 2520 2390 2378 2302 2131 2015 1613 1014 882 588 380
404 230 568 280 0 0 0 15 70 1105 1156 1454 1632 1701 1736 2344 2295 2670 2597 2497 2447 2453 2153 1929 2127 2110 2186 2310 2476 2667 2701 2378 2260 2540 2430 2323 2290 2130 1742 1551 1401 1306
406 379 304 430 99 3 0 0 0 1163 1326 1448 1673 1729 1742 2190 2377 2513 2717 2588 2543 2468 2450 2152 1997 1821 2024 2084 2234 2608 2518 2332 2259 2479 2492 2273 2407 2220 2022 2178 2140 1817
454 460 265 386 326 194 38 0 0 596 1414 1488 1708 1818 1826 2082 2285 2446 2613 3094 2603 2372 2487 2266 2042 1956 1794 2287 2197 2466 2428 2248 2300 2415 2591 2417 2446 2429 2111 2141 2398 2462
627 517 406 267 322 474 356 45 0 0 994 1505 1615 1842 1846 2054 2182 2293 2459 2704 2631 2460 2318 2420 2115 2228 2027 2269 2071 2132 2437 2378 2326 2426 2537 2558 2537 2498 2386 2431 2676 2767
855 596 561 348 239 405 647 315 74 0 5 1176 1549 1745 1836 1919 2056 2196 2232 2393 2607 2519 2196 2353 2251 2256 2277 2360 2323 1974 2195 2422 2520 2447 2531 2544 2577 2588 2507 2611 2690 2752
978 804 569 492 288 197 724 693 302 200 4 88 1065 1506 1688 1803 1840 1920 2047 2027 2430 2480 2346 2257 2396 2209 2283 2435 2504 2328 2217 2340 2304 2495 2559 2491 2436 2618 2612 2603 2728 2799
992 927 748 530 412 196 265 865 769 491 203 133 263 937 1443 1528 1704 1686 1758 1847 2224 2361 2349 2352 2353 2321 2326 2268 2623 2508 2358 2407 2414 2309 2431 2618 2750 2644 2662 2601 2647 2718
972 927 841 679 455 296 194 233 865 941 681 460 350 363 994 1354 1423 1566 1570 1750 2105 2262 2297 2372 2432 2402 2397 2326 2447 2635 2567 2479 2519 2401 2337 2355 2513 2833 2807 2664 2528 2491
971 911 832 742 608 388 254 180 234 887 1111 907 697 496 476 1037 1241 1361 1461 1608 1962 2174 2233 2295 2408 2479 2447 2468 2433 2596 2667 2602 2592 2586 2499 2410 2309 2392 2775 2853 2654 2645
1012 932 847 747 649 461 338 248 186 278 979 1198 1081 876 530 599 1116 1306 1433 1539 1748 2097 2204 2231 2323 2442 2495 2525 2506 2518 2654 2658 2616 2697 2711 2592 2375 2220 2532 2437 2746 2796
1110 964 903 806 704 564 424 326 273 202 361 1089 1228 1150 904 495 778 1272 1456 1529 1594 1849 2159 2216 2263 2363 2447 2514 2549 2524 2540 2568 2531 2572 2729 2766 2608 2411 2213 2222 2213 2439
1314 1198 1024 890 813 718 552 419 366 293 250 533 1089 1200 1137 895 674 954 1453 1557 1586 1618 1843 2124 2218 2290 2373 2417 2482 2550 2554 2534 2498 2432 2452 2654 2796 2760 2678 2486 2415 2295
1508 1380 1255 1057 877 835 724 537 465 414 328 344 723 1034 1105 1051 878 726 1146 1550 1636 1621 1642 1822 2053 2182 2274 2334 2351 2433 2536 2563 2530 2482 2390 2359 2534 2710 2729 2657 2720 2734
1784 1606 1442 1336 1188 983 862 721 579 542 474 420 581 844 964 998 929 817 864 1331 1638 1704 1690 1729 1846 2015 2153 2238 2271 2279 2382 2466 2484 2492 2460 2423 2418 2484 2640 2723 2746 2837
1998 1864 1704 1581 1486 1353 1120 851 752 704 681 613 591 750 877 937 934 853 801 1035 1424 1690 1769 1810 1860 1883 2053 2183 2235 2246 2287 2370 2435 2454 2474 2473 2466 2484 2528 2620 2695 2748
2218 2088 1928 1894 1818 1677 1492 1179 919 846 840 821 758 786 871 905 926 891 835 872 1137 1468 1735 1835 1935 1957 1949 2097 2241 2270 2261 2297 2355 2411 2444 2472 2452 2448 2500 2592 2635 2605
2488 2356 2286 2234 2110 1963 1724 1481 1164 986 964 996 976 924 939 927 929 941 922 901 996 1199 1473 1710 1857 1970 2026 2037 2170 2275 2276 2230 2233 2277 2333 2375 2415 2402 2374 2403 2518 2627
2742 2679 2618 2514 2353 2142 1948 1718 1423 1095 1089 1106 1134 1086 1031 1005 953 955 1012 1028 1056 1133 1275 1479 1655 1798 1994 2077 2092 2182 2247 2197 2110 2135 2179 2249 2312 2386 2400 2338 2282 2298
2932 2883 2815 2727 2622 2476 2218 1906 1648 1367 1211 1212 1237 1212 1139 1093 1022 954 1001 1111 1191 1234 1322 1428 1548 1632 1782 1970 2078 2119 2150 2170 2079 2016 2034 2095 2161 2234 2314 2374 2368 2247
3006 2971 2926 2870 2797 2712 2551 2268 1900 1607 1329 1327 1322 1310 1250 1192 1151 1090 1037 1107 1257 1354 1398 1496 1597 1665 1706 1803 1942 2037 2059 2045 2049 1967 1954 2003 2064 2109 2152 2218 2303 2361
3080 3038 2995 2958 2926 2859 2749 2524 2159 1862 1570 1469 1404 1396 1371 1292 1248 1196 1151 1089 1235 1368 1447 1539 1666 1746 1795 1808 1858 1936 1976 1939 1889 1839 1822 1869 1988 2137 2203 2214 2182 2195
3135 3054 3066 3049 3035 2996 2927 2817 2594 2106 1770 1592 1506 1466 1466 1438 1366 1303 1207 1127 1201 1365 1456 1511 1632 1756 1870 1894 1881 1902 1953 1932 1850 1735 1672 1707 1763 1877 2092 2267 2326 2284
3257 3222 3154 3133 3106 3083 3024 2954 2837 2620 2193 1758 1668 1570 1536 1550 1478 1407 1298 1154 1084 1377 1497 1556 1602 1771 1916 1994 1976 1953 1961 1978 1954 1902 1809 1728 1773 1843 1862 1980 2262 2964
3252 3275 3260 3193 3169 3126 3095 3041 2936 2812 2629 2212 1794 1699 1616 1630 1681 1582 1448 1295 1176 1306 1557 1653 1656 1760 1970 2118 2134 2086 2043 2012 1985 1993 1990 1962 1938 2027 2074 2066 2068 2726
3216 3280 3302 3264 3212 3164 3133 3090 3000 2877 2716 2596 2182 1840 1747 1664 1763 1818 1735 1602 1428 1307 1536 1685 1767 1809 1927 2172 2296 2266 2227 2147 2101 2081 2100 2160 2208 2246 2322 2342 2318 2290

ECMWFNIL_con_mucape_099.txt.gz
CAPE
66 2 0 0 0 0 0 0 64 611 1018 1213 1432 1620 1692 1780 1946 2127 2271 2282 2327 2263 2136 2226 2333 2343 2362 2338 2425 2387 2441 2400 2156 1958 1730 1647 1432 1347 809 241 33 42
77 93 185 71 0 0 0 0 0 171 471 974 1200 1385 1502 1522 1658 2063 2237 2270 2262 2274 2204 2231 2285 2311 2344 2318 2319 2392 2392 2445 2378 2176 2025 1894 1676 1592 1576 1016 525 475
84 117 103 132 46 0 0 0 0 65 354 749 1102 1296 1415 1444 1712 2085 2279 2295 2236 2276 2261 2259 2231 2184 2180 2215 2216 2344 2335 2383 2388 2318 2156 2038 1883 1866 1901 1730 1406 1468
114 102 116 149 126 2 0 0 0 100 320 582 1047 1286 1411 1494 1830 2052 2306 2750 2293 2268 2326 2321 2230 2016 2004 2102 2135 2262 2319 2330 2368 2285 2223 2157 2082 1994 2030 1952 1811 1888
226 124 116 126 161 44 0 0 0 47 497 586 878 1237 1442 1531 1850 2019 2250 2474 2421 2325 2343 2391 2269 2047 1975 1997 2023 2116 2230 2297 2352 2224 2194 2228 2196 2143 2088 2003 1851 1734
386 231 197 136 164 128 0 0 0 0 366 869 930 1176 1433 1542 1750 1964 2141 2372 2528 2438 2379 2430 2439 2261 2185 2028 1896 1939 2038 2235 2320 2240 2169 2254 2309 2308 2269 2265 2128 1891
444 317 234 187 144 148 90 0 0 0 22 695 1088 1214 1433 1542 1655 1833 2014 2196 2449 2535 2491 2515 2551 2374 2312 2185 1852 1884 1931 2137 2236 2229 2177 2222 2303 2359 2407 2418 2399 2252
484 369 287 248 185 129 224 166 22 0 0 109 978 1218 1419 1532 1604 1701 1846 2008 2223 2461 2543 2556 2603 2526 2335 2224 1984 1904 1846 1921 2138 2262 2289 2305 2322 2372 2445 2484 2494 2461
545 547 352 284 255 165 163 218 272 104 0 0 151 956 1325 1470 1533 1605 1708 1833 1962 2223 2454 2535 2542 2546 2377 2193 2092 2043 1977 1929 2075 2193 2304 2381 2418 2449 2444 2445 2472 2474
649 626 545 360 308 264 166 144 242 343 243 0 0 49 881 1353 1440 1491 1564 1700 1828 1956 2179 2362 2418 2416 2380 2247 2132 2142 2146 2092 2114 2185 2189 2232 2355 2463 2493 2470 2451 2464
643 684 654 566 391 319 253 150 140 272 430 357 81 0 36 564 1238 1375 1427 1472 1565 1670 1842 2055 2215 2285 2308 2270 2170 2122 2156 2207 2206 2234 2280 2254 2200 2236 2535 2500 2582 2584
707 712 673 663 567 392 320 234 142 130 306 579 483 196 61 60 347 988 1218 1296 1336 1408 1559 1772 1960 2108 2209 2247 2210 2176 2153 2191 2266 2301 2330 2378 2328 2180 2136 2230 2377 2536
828 859 884 849 735 635 424 301 209 126 110 338 720 640 372 205 149 303 764 997 1092 1208 1342 1543 1759 1946 2097 2209 2249 2244 2249 2255 2305 2351 2392 2437 2487 2451 2277 2197 2192 2217
920 962 1002 1021 1006 926 809 643 287 188 108 83 348 744 771 574 340 217 318 726 900 1002 1141 1324 1568 1776 1955 2102 2210 2270 2314 2352 2376 2417 2445 2454 2517 2583 2591 2546 2469 2352
1009 1066 1107 1147 1153 1148 1064 973 803 521 161 94 105 325 684 789 734 408 273 411 764 946 1036 1175 1402 1653 1818 1951 2085 2202 2288 2359 2401 2436 2447 2441 2436 2467 2533 2606 2664 2692
1063 1130 1204 1255 1267 1287 1265 1226 1115 947 702 154 97 82 234 577 755 750 613 385 522 840 1055 1150 1252 1451 1756 1870 1962 2064 2186 2286 2360 2407 2436 2440 2425 2399 2385 2389 2485 2630
1120 1204 1280 1335 1383 1401 1398 1394 1364 1263 1086 868 581 98 93 228 546 705 737 646 466 589 929 1160 1256 1320 1486 1734 1912 2008 2061 2154 2258 2339 2399 2443 2451 2451 2432 2398 2348 2355
1334 1333 1391 1444 1463 1495 1500 1514 1505 1491 1423 1288 1075 798 264 149 288 466 604 684 643 596 703 998 1217 1328 1404 1512 1706 1900 2013 2053 2114 2197 2268 2332 2389 2405 2407 2394 2373 2331
1683 1532 1563 1564 1586 1600 1619 1656 1692 1688 1660 1601 1519 1346 1042 733 255 328 452 514 616 613 628 795 1074 1253 1416 1495 1559 1681 1876 2004 2014 2060 2121 2177 2237 2290 2322 2334 2327 2327
1894 1742 1763 1742 1757 1762 1793 1891 1945 1961 1958 1922 1876 1780 1609 1284 899 514 388 461 517 499 527 628 842 1082 1313 1469 1564 1625 1703 1850 1916 1968 2010 2056 2104 2168 2225 2266 2286 2278
2095 1942 1940 1954 1975 2028 2071 2173 2234 2281 2266 2215 2158 2051 1917 1706 1429 1059 659 530 549 578 558 579 701 890 1110 1337 1498 1611 1679 1730 1783 1842 1905 1961 2016 2077 2156 2210 2231 2236
2128 2165 2203 1984 2154 2221 2326 2393 2461 2501 2546 2543 2462 2317 2118 1875 1636 1308 1007 683 652 670 692 722 735 781 914 1107 1327 1500 1636 1718 1764 1775 1804 1858 1924 1991 2070 2124 2155 2167
2475 2476 2435 2281 2296 2390 2496 2573 2648 2678 2685 2717 2739 2666 2438 2154 1792 1533 1271 982 729 755 762 792 828 862 900 970 1092 1274 1428 1572 1687 1738 1746 1768 1839 1904 1961 2005 2044 2058
2736 2656 2598 2608 2588 2636 2708 2764 2826 2857 2832 2795 2832 2855 2775 2502 2060 1732 1450 1151 946 893 851 852 886 931 990 1022 1053 1117 1202 1306 1432 1510 1582 1654 1734 1814 1882 1938 1995 2537
2615 2948 2992 2946 2910 2879 2905 2925 2950 2970 2978 2940 2922 2936 2900 2837 2746 2142 1589 1290 1103 1029 992 948 932 951 1003 1078 1134 1175 1216 1240 1265 1303 1363 1452 1552 1651 1747 1832 1884 2129
2291 2573 2953 3062 3086 3031 3020 3027 3045 3065 3048 3054 3060 3017 2992 2951 2844 2769 2396 1608 1244 1144 1100 1067 1039 1017 1035 1084 1156 1225 1283 1302 1303 1300 1307 1337 1398 1473 1558 1638 1709 1760

ECMWFNIL_con_mucape_102.txt.gz
CAPE
89 30 15 8 0 0 24 352 803 1042 1148 1304 1664 1836 1944 2022 2070 2171 2262 2350 2422 2444 2524 2520 2598 2681 2757 2754 2704 2598 2613 2453 2445 2316 1993 1463 1231 1078 726 571 718 499
124 83 182 30 3 20 0 86 420 882 1037 1158 1376 1615 1802 1890 1948 2026 2141 2240 2424 2520 2442 2497 2434 2404 2511 2577 2588 2555 2555 2475 2412 2315 2133 1796 1520 1446 1336 1262 967 350
147 122 120 48 4 0 0 0 89 372 820 1044 1184 1376 1565 1713 1787 1860 2068 2211 2278 2410 2409 2436 2417 2272 2300 2385 2430 2528 2510 2468 2394 2382 2258 2134 1718 1650 1582 1641 1557 1208
140 144 124 113 62 4 0 0 0 42 229 512 903 1104 1295 1438 1580 1706 1958 2713 2246 2319 2354 2387 2347 2220 2220 2306 2331 2382 2430 2416 2424 2288 2422 2237 2010 1854 1832 1794 1973 1817
152 130 141 147 111 57 0 0 0 0 64 279 523 910 1351 1431 1567 1657 1914 2301 2308 2265 2286 2327 2302 2227 2222 2262 2218 2279 2294 2366 2303 2269 2328 2341 2185 2096 2009 1889 1930 1979
208 145 169 144 141 94 0 0 0 0 15 121 349 864 1143 1288 1507 1664 1881 2096 2319 2270 2270 2318 2300 2269 2263 2283 2205 2087 2246 2336 2299 2238 2252 2309 2274 2191 2230 2219 2040 1999
244 146 97 108 111 109 37 0 0 0 0 116 367 624 1018 1226 1391 1619 1778 2002 2297 2398 2303 2320 2356 2328 2316 2341 2329 2040 2019 2203 2209 2151 2218 2224 2262 2204 2251 2373 2315 2226
308 190 111 80 80 94 153 2 0 0 0 135 433 561 889 1154 1306 1502 1725 1857 2148 2355 2360 2289 2316 2340 2353 2377 2426 2294 2122 2023 2108 2157 2172 2215 2149 2291 2241 2360 2416 2336
391 335 191 84 64 68 137 89 0 0 0 17 296 584 915 1068 1207 1361 1560 1717 1939 2198 2310 2300 2322 2336 2355 2393 2465 2512 2286 2106 2116 2156 2236 2252 2169 2276 2268 2267 2342 2377
452 432 316 194 95 67 77 118 78 0 0 0 41 391 830 1124 1182 1270 1386 1527 1702 1959 2131 2257 2293 2322 2348 2378 2448 2531 2529 2323 2107 2113 2179 2247 2296 2311 2296 2302 2348 2359
463 455 424 343 243 146 90 83 112 113 32 0 0 57 500 934 1230 1260 1306 1377 1517 1675 1868 2072 2210 2240 2274 2326 2381 2429 2476 2433 2292 2144 2138 2192 2224 2253 2492 2414 2428 2448
521 480 483 428 356 276 192 111 101 129 173 157 0 0 47 467 974 1184 1274 1278 1392 1504 1609 1798 2008 2114 2164 2216 2250 2257 2259 2280 2278 2226 2132 2183 2163 2094 2225 2408 2468 2535
525 547 545 536 487 389 298 218 125 91 130 272 281 53 3 29 324 836 1184 1214 1244 1333 1433 1552 1730 1895 2040 2106 2159 2160 2151 2166 2131 2178 2232 2220 2231 2222 2142 2159 2221 2310
559 562 590 610 618 636 625 624 339 150 111 127 342 376 203 65 38 190 578 1029 1126 1160 1248 1351 1476 1652 1819 1964 2088 2147 2148 2157 2181 2230 2250 2271 2300 2349 2307 2207 2208 2217
547 577 589 643 680 700 754 768 780 729 673 509 196 339 423 360 191 90 106 350 715 946 1050 1149 1264 1379 1570 1739 1946 2080 2161 2191 2206 2238 2280 2323 2328 2328 2358 2406 2344 2278
828 836 625 629 697 760 816 868 899 917 917 867 777 667 405 500 460 346 195 158 263 515 748 892 1048 1172 1331 1328 1500 1871 2073 2111 2216 2269 2289 2346 2392 2373 2302 2325 2407 2432
773 897 915 808 707 759 858 920 975 1018 1043 1052 1013 948 859 711 547 548 491 372 257 270 448 682 839 932 982 1103 1257 1416 1764 2026 2167 2226 2307 2372 2342 2422 2382 2291 2218 2363
728 922 954 873 755 822 908 973 1028 1117 1131 1180 1182 1159 1142 1040 921 734 583 573 487 390 370 480 666 715 774 904 1058 1225 1396 1848 2048 2141 2238 2268 2307 2344 2381 2352 2317 2228
819 792 756 813 907 993 1032 1126 1168 1237 1258 1308 1311 1310 1296 1289 1250 1122 969 743 571 549 444 440 527 393 602 776 896 1047 1239 1464 1928 2025 2104 2176 2262 2318 2350 2413 2429 2394
947 942 980 990 1095 1204 1277 1363 1374 1426 1430 1447 1466 1478 1464 1460 1439 1391 1350 1219 1037 759 576 517 494 332 0 685 809 931 1082 1269 1604 1937 2013 2062 2136 2223 2249 2334 2350 2347
1108 1128 1173 1185 1265 1410 1490 1549 1554 1555 1580 1585 1614 1650 1639 1660 1643 1588 1580 1547 1463 1366 1158 889 561 247 0 0 721 854 964 1104 1264 1684 1880 1962 2044 2086 2133 2242 2295 2253
1267 1320 1338 1364 1464 1626 1718 1750 1748 1721 1811 1882 1954 1977 2014 2030 1976 1920 1839 1816 1776 1685 1612 1460 1186 884 282 0 211 755 882 999 1080 1356 1687 1820 1919 1947 2044 2087 2207 2244
1522 1462 1509 1594 1657 1832 1923 1942 1921 1808 1953 2033 2132 2233 2274 2338 2315 2312 2204 2110 1973 1895 1736 1603 1498 1322 1079 750 0 28 762 890 964 1110 1377 1636 1768 1873 1943 2032 2084 2138
2181 2072 1998 1743 1821 1976 2058 2080 2096 2058 2170 2253 2211 2279 2328 2403 2484 2541 2536 2471 2341 2174 2052 1811 1610 1413 1234 1007 678 51 466 705 802 898 1114 1380 1595 1738 1820 1876 1944 2289
2478 2538 2243 2234 1972 2089 2170 2201 2241 2296 2353 2384 2395 2426 2446 2480 2500 2588 2640 2676 2675 2584 2366 2122 1822 1541 1308 1123 906 663 208 588 668 776 1002 1206 1407 1569 1689 1806 1823 2170
2405 2559 2633 2610 2501 2345 2364 2444 2486 2505 2530 2512 2516 2532 2524 2541 2585 2594 2682 2736 2733 2777 2766 2594 2243 1864 1502 1268 1087 880 670 546 624 765 996 1111 1275 1431 1560 1610 1731 1771

ECMWFNIL_con_mucape_105.txt.gz
CAPE
1727 1681 1574 1660 1731 1683 2061 2194 2241 2460 2870 2697 3003 3240 3416 3564 3681 3709 3677 3677 3549 3437 3482 3611 3897 4228 4214 4254 4473 4066 3885 3629 3257 3250 3337 3057 2683 2165 1721 2079 2326 2267
1709 1677 1712 1568 1889 1908 2132 2144 2365 2537 2962 3050 2894 3274 3513 3646 3738 3731 3882 3820 3827 3644 3828 3933 4106 4219 4279 3978 4368 4120 4062 4019 3787 2975 3334 3382 3101 2808 2087 1986 1864 2096
1621 1603 1491 1438 1275 1349 1097 1566 2111 2388 2504 2514 2705 3064 3191 3341 3420 3561 3788 3749 3585 3373 3935 4042 4110 4176 4144 4124 4328 4064 3718 4193 3776 3154 3479 3327 3031 3144 2778 2068 2000 2062
1703 1566 1310 1224 1163 1226 1175 1374 1710 2119 2087 2512 2488 2490 2696 2673 3088 3353 3588 3622 3706 3717 3700 3790 3755 3746 3982 3977 4240 3793 3836 4128 3672 3901 3708 3576 3397 2987 2796 2827 2336 2218
1617 1555 1393 1335 1251 1326 1357 1222 1033 1399 1664 1993 2177 2482 2768 2936 3091 2984 3305 3492 3717 3758 3871 3894 3921 3727 3990 3949 4113 3853 3573 3739 3889 4206 3901 3704 3764 3543 2859 2854 2791 2398
1585 1604 1556 1419 1464 1486 1165 1087 1094 1065 1220 1483 1865 1991 2172 2732 2773 2758 2912 2986 3161 3232 3121 3335 3691 3581 3676 3887 3993 3765 3381 3115 3136 4126 3982 3830 3335 3111 2845 3085 3093 2790
1447 1518 1442 1336 1290 1257 1197 1100 1138 1193 1060 1078 1571 1660 1867 2120 2424 2518 2739 2776 2658 3095 3042 3226 3762 3615 3556 3719 3844 3877 3818 3734 3477 4121 3937 3612 3693 3545 3194 3435 3486 3335
1254 1272 1334 1270 1170 1197 1216 1099 1084 1152 1217 1270 1286 1496 1739 1657 2066 2088 2496 2607 2527 3031 3346 3445 3908 3955 3531 3503 3691 3726 3756 3475 3702 4016 4008 3781 3702 3736 3658 3552 3674 3718
1194 1283 1256 1239 1118 1107 1042 948 986 1012 1065 1122 912 995 1534 1520 1852 1764 2413 2796 2718 3015 3669 3603 4000 3873 3596 3560 3613 3742 3754 3397 3153 3588 3725 3575 3727 3751 3498 3626 3617 3747
1321 1235 1061 1036 967 987 983 946 872 872 984 898 915 894 1268 1593 1686 1835 2466 2865 2779 3155 3558 3536 3823 3654 3688 3654 3738 3736 3660 3784 3675 3623 3524 3384 3370 3287 3153 3499 3427 3578
1189 1113 1070 992 901 892 925 897 885 820 824 761 797 784 1003 1504 1913 2043 2389 2722 2434 2722 3170 3476 3515 3570 3705 3396 3576 3592 3638 3554 3588 3771 3673 3614 3399 3356 3310 3448 3382 3205
1232 1107 1048 1031 953 905 885 884 897 875 806 756 706 786 950 1189 1794 1885 2118 2464 2466 2503 2860 3346 3449 3571 3712 3564 3364 3472 3577 3475 3519 3705 3546 3679 3572 3379 3367 3309 3196 3388
1244 1217 1190 1059 1092 979 911 891 850 866 842 776 731 696 770 888 1162 1638 2046 2093 2465 2478 2463 2805 3216 3262 3624 3739 3504 3464 3515 3564 3147 3342 3405 3453 3526 3309 3185 3196 3202 3180
1295 1338 1241 1243 1208 1253 1140 971 869 842 920 885 848 740 634 626 772 1169 1720 1755 2063 2167 2380 2516 3043 3124 3456 3682 3574 3365 3323 3417 3246 3069 2989 3158 3166 3287 3128 3031 3159 3159
1606 1478 1406 1422 1383 1495 1354 1196 1047 982 954 975 1041 903 634 536 565 656 1167 1530 1677 2054 2143 2300 2455 2723 2865 3176 3433 3411 3282 3100 3182 3130 2990 2964 3063 2872 2912 2984 2965 2991
1908 1680 1587 1669 1570 1590 1603 1383 1237 1158 824 1011 1010 1011 906 834 702 650 707 1178 1550 1987 2071 2035 2150 2365 2503 2156 2535 3076 3263 2755 2965 3123 2989 2800 3042 3008 2748 2904 2852 2845
1980 1824 1833 1886 1744 1666 1667 1561 1369 1267 1170 1184 983 877 1062 1264 1152 904 729 647 848 1190 1595 1693 1806 1885 1649 1512 1567 1801 2422 2937 2837 3191 3181 3037 2875 3140 2921 2570 2715 2957
1798 1954 1965 1952 1886 1842 1756 1735 1487 1405 1368 1385 1285 918 1300 1129 1104 889 1043 719 744 799 896 1182 1461 1246 1084 1029 1035 1132 1422 2227 2473 2444 2547 2753 2572 2445 2697 2702 2694 2810
2060 2129 2132 2039 2074 1976 2002 2036 1821 1673 1575 1496 1168 1001 1046 1078 1113 1127 1107 1061 988 893 750 674 999 894 695 611 644 752 886 1219 1699 2083 2053 2224 2296 2437 2451 2776 2978 3047
2242 2153 2156 2099 2214 2176 2099 2007 1857 1877 1582 1433 1165 1152 1094 1135 1226 1243 1273 1269 1260 1228 1138 1027 919 828 145 0 0 0 258 782 1501 1566 1999 1951 2150 2300 2306 2590 2948 3002
2119 2217 2253 2323 2376 2346 2254 2112 1989 1963 1733 1494 1420 1378 1492 1485 1297 1327 1374 1386 1390 1410 1396 1356 1303 1174 1012 827 386 0 0 22 1145 1247 1383 1833 2095 2274 2601 2507 2907 2900
1962 2180 2255 2336 2369 2305 2256 2214 2199 2236 2148 1827 1627 1238 1305 1345 1407 1433 1462 1507 1527 1540 1536 1537 1533 1484 1399 1270 1081 845 496 92 1026 1463 1388 1510 1970 2384 2539 2837 2798 2878
1796 1880 2192 2171 2216 2223 2245 2202 2258 2359 2260 2107 1750 1451 1490 1508 1548 1576 1588 1611 1641 1653 1677 1684 1688 1672 1635 1590 1502 1363 1170 915 1087 1555 1767 1780 1880 2471 2688 2642 2676 2816
2155 2370 2272 2249 2222 2210 2252 2098 2113 2170 2127 2092 1782 1660 1689 1692 1728 1776 1816 1854 1902 1936 1948 1944 1926 1879 1815 1742 1671 1626 1518 1364 1294 1576 1848 2060 2126 2309 2440 2498 2551 2387
1565 2357 2653 2241 2297 2251 2027 2115 2100 2184 1748 1794 1801 1814 1854 1938 1951 2015 2095 2185 2241 2282 2283 2277 2268 2268 2204 2122 2000 1869 1739 1599 1422 1521 1714 1984 2137 2202 2339 2474 2714 2537
1644 1720 2622 2834 2571 2553 2407 2367 2448 2305 2269 2005 2025 2024 2024 2050 2095 2134 2189 2285 2382 2453 2476 2531 2544 2575 2561 2500 2354 2212 2019 1811 1566 1374 1560 1783 2018 2005 2305 2630 2565 2891

ECMWFNIL_con_mucape_108.txt.gz
CAPE
2229 2393 2362 2450 2328 2069 1941 2172 2014 2011 2100 1912 2037 2222 2187 2652 2634 2954 3015 3287 3204 3238 3832 4713 4642 4676 4285 4267 4944 3936 3949 3883 3165 2504 2713 2406 1974 1692 1300 1270 1514 1401
2085 2167 2258 2178 2299 2377 2316 2249 2230 1937 2398 2352 2032 2396 2640 2565 2918 2815 2886 3053 3380 3095 3514 3858 4478 4460 4602 3920 4603 3860 3940 3457 3357 2728 2889 2885 2583 2045 1548 1583 1383 1430
2212 1963 2071 2031 1912 2337 1891 2081 2056 2038 1984 2046 1752 2191 2812 2735 2797 2944 2999 2968 3006 2633 2989 3565 4027 4120 4232 4286 4964 4170 3749 3777 3208 3051 2755 2885 2728 2511 2129 1607 1612 1463
2562 1994 1603 1395 1297 1561 1822 1640 1963 2030 1656 1892 1882 1772 1947 1637 2126 2847 3017 2979 2886 2902 2750 3027 3355 3554 3766 4066 4596 3721 3647 4143 3396 3616 3394 3226 2790 2579 2172 1897 1702 1663
2688 2284 1731 1515 1228 1281 1605 1694 1569 1789 1727 1542 1849 1902 2256 2108 2449 2463 2808 3164 2938 3015 2888 3089 3248 3218 3498 3631 4080 3943 3436 3676 3330 3777 3876 3594 3244 2725 2211 1895 1814 1669
2843 2589 2263 1833 1666 1628 1714 1894 1772 1476 1642 1290 1843 1660 2062 2645 2352 1958 2106 2404 2486 2332 2473 2650 2898 2918 2888 3371 3698 3592 3361 3091 2912 3568 3633 3498 3408 2956 2380 2219 2155 2187
2777 2750 2424 2094 1888 1805 1972 1861 1912 1643 1298 1258 1593 1697 1696 2008 2202 1928 2034 2036 1685 1893 1990 2264 2783 2711 2676 3177 3531 3699 3534 3387 3218 3866 3896 3362 3221 3140 2766 2503 2538 2478
2607 2591 2689 2212 1852 1774 2037 1830 1817 1886 1609 1508 1332 1798 1689 1466 1949 1742 2026 2003 1605 1586 1870 2034 2715 3046 2697 2863 3350 3379 3562 3327 3192 3368 3624 3346 3073 3266 3224 2918 2769 2986
2547 2591 2622 2373 1926 1671 1666 1474 1590 1802 1777 1691 1271 1136 1698 1472 1425 1388 1656 2147 2050 1815 2232 2301 2608 3121 2967 2692 2870 3120 3285 2989 2730 3092 3419 3328 2975 3058 2874 3071 3051 3034
2654 2485 2362 2280 1924 1610 1374 1309 1098 1382 1763 1744 1541 973 999 1597 1290 1244 1608 2372 2559 2244 2603 2826 2730 2979 2818 2499 2760 2939 3121 3156 2959 3003 3216 3240 2922 2740 2672 2568 2718 2996
2447 2328 2205 2151 1862 1567 1402 1230 1046 923 1339 1570 1498 1080 736 1104 1663 1538 1670 2399 2289 2105 2308 2745 2730 2719 2728 2062 2008 2246 2506 2541 2607 2880 3021 3144 2952 2901 2853 2683 2732 2716
2336 2204 2003 2027 1917 1676 1466 1345 1197 1010 978 1437 1478 1128 913 805 1442 1695 1483 2137 2322 1712 1857 2466 2719 2818 2971 2891 1927 1916 2262 2269 2162 2488 2632 2790 2998 2916 2928 2873 2882 2941
2158 2174 2085 1865 1999 1846 1570 1442 1308 1162 1047 1166 1443 1263 935 798 930 1690 1724 1720 2280 1928 1540 2045 2735 2656 2834 3236 2704 2051 1947 2446 1755 1855 2298 2484 2715 2616 2497 2677 2717 2666
2076 2268 2148 2029 1967 2144 1935 1639 1455 1364 1356 1280 1436 1450 1116 741 726 1036 1674 1761 1779 1726 1564 1480 2425 2765 2755 3108 3060 2230 1793 2245 2568 1893 1583 1881 2047 2242 2086 1938 2213 2478
2268 2225 2273 2188 2061 2178 2180 1956 1716 1669 1618 1587 1588 1540 1295 976 760 634 1008 1579 1714 1680 1542 1305 1342 2386 2423 2748 3036 2901 2046 1672 2209 2419 1837 1481 1652 1645 1713 1673 1591 1824
2482 2413 2364 2445 2226 2226 2378 2243 1912 1809 1647 1686 1705 1712 1598 1447 1246 991 753 1020 1552 1797 1703 1461 1278 1510 2405 2087 2418 2658 2639 1487 1506 2217 2332 1813 1556 1576 1239 1254 1334 1327
2594 2716 2568 2600 2514 2358 2398 2453 2158 1860 1772 1871 1884 1882 1871 1804 1647 1382 1109 931 1096 1550 1821 1624 1333 1238 1739 2037 2029 2230 2178 2439 1973 1862 2587 2709 2065 1743 1801 1088 801 1007
2752 2949 2778 2692 2728 2643 2482 2622 2337 2090 2011 2008 1963 1919 2146 1929 1844 1689 1565 1224 1011 1196 1477 1720 1630 1158 1310 1808 1779 1786 1967 1803 1867 1978 1819 2172 2343 1638 1324 1414 1199 750
2751 2525 2730 2699 2806 2797 2649 2701 2562 2288 2143 2027 1908 1987 1948 2195 2105 1911 1880 1660 1282 1219 1180 1332 1620 1340 1101 1351 1484 1415 1394 1352 883 1166 1405 1455 1560 1837 1654 1379 1465 1503
2618 2206 2092 2420 2668 2851 2769 2590 2592 2587 2101 1926 1935 1996 2083 2117 2075 2062 2060 2184 1914 1600 1502 1341 1348 1276 1115 1048 1080 1066 1048 1146 1240 624 699 885 1229 1442 1528 1704 1806 1783
2577 2484 2177 2085 2486 2829 2823 2721 2574 2564 2349 1942 1813 1884 2096 2255 2175 2133 2086 2150 2052 1901 1759 1558 1452 1132 971 928 831 746 710 682 1274 809 526 562 866 1224 1742 1785 1955 2037
2006 2227 2272 2394 2540 2670 2808 2780 2724 2728 2720 2365 1996 1720 1909 2066 2261 2103 2035 1999 1968 1926 1761 1780 1645 1170 994 855 801 773 708 622 1392 1230 956 802 829 1011 1513 2074 2303 2160
1433 1665 2655 2521 2283 2331 2508 2631 2595 2666 2801 2613 2334 1922 1699 1880 2133 2178 2197 2001 1934 1927 1935 1904 1873 1599 1125 1036 1062 1055 1015 944 1220 1402 1330 1216 1122 1241 1510 2000 2283 2598
1367 1410 1562 2326 2674 2408 2188 2353 2354 2421 1995 2473 2441 2238 1887 1738 1916 2187 2282 2252 1972 1891 1840 1985 1951 1725 1352 1114 1162 1190 1203 1172 1151 1341 1515 1504 1496 1518 1522 1713 2173 2466
1337 1141 1417 1463 2099 2170 2067 2067 1881 2151 2182 2297 2334 2289 2190 2040 1838 1960 2186 2288 2188 1979 1640 1693 1974 1822 1412 1203 1237 1291 1316 1313 1292 1296 1594 1768 1821 1840 1849 1844 2048 2616
1219 1373 1246 1175 1378 1616 2130 1848 1469 1360 1629 2300 2348 2282 2302 2090 1966 1934 2009 2186 2295 2174 2021 1760 1798 2101 1577 1338 1392 1434 1459 1490 1482 1439 1661 1910 2109 2127 2304 2291 2180 2403

ECMWFNIL_con_mucape_111.txt.gz
CAPE
2130 2260 2132 2089 1917 1490 1314 1542 1557 1897 2329 2122 2289 2515 2490 2556 2963 2487 2428 2889 2300 3644 4611 5097 4511 3827 4420 4603 4055 3589 3744 3264 2634 2122 2328 2346 2174 1753 1322 1336 1589 1505
1936 2150 2340 1876 2108 1903 1623 1510 1558 1325 1831 2045 1795 1948 1866 2068 2346 2645 2792 3040 2823 2686 4163 4400 4679 4256 3921 3899 4243 3375 3907 3648 2910 2185 2304 2445 2226 1588 1323 1425 1229 1473
2121 1950 1997 1812 1660 2002 1358 1524 1540 1399 1346 1629 1747 2027 1989 2044 2357 2493 2545 2552 2838 2351 2787 3952 4605 3963 4388 4180 5009 3787 4000 3883 2986 2520 2439 2418 2039 1814 1717 1145 1317 1410
2473 1864 1505 1421 1156 1435 1344 1368 1367 1574 880 1386 1359 1760 2052 1608 1948 2284 2620 2612 2752 2720 2568 2780 3177 3244 3840 3969 5390 3599 3639 4197 3322 3213 2895 2689 2561 2202 1808 1564 1420 1131
2761 2070 1480 1239 1018 1123 1340 1244 991 1139 1062 1019 1152 1232 1836 1758 1952 2027 2473 2778 2812 2620 2640 2601 2700 3292 3814 3693 4933 3593 3082 3355 2948 3666 4014 3208 2915 2396 2056 1689 1602 1580
3059 2581 1912 1487 1200 1089 1044 1123 1172 825 946 755 1054 932 1169 1866 1841 1839 2142 2231 2387 2192 1959 2137 2441 2640 1990 3400 4386 3350 3130 3041 3152 3190 3586 3517 3244 2780 1723 1656 1793 1806
3083 2887 2303 1588 1356 1171 1058 1126 1210 1078 871 736 949 916 931 1438 1996 1757 1784 1918 1758 1734 1534 1820 2156 2285 2283 2820 3210 3432 3339 2906 3154 3345 3354 3366 3148 3176 2422 2071 1887 2038
2724 2946 2692 1952 1406 1148 1208 920 1222 1380 1186 973 702 1103 1067 1065 1736 1753 1680 1753 1658 1684 1653 1404 2142 2391 1897 2190 2837 3141 3203 2757 2969 3728 3965 3338 3116 3166 3169 2770 2397 2503
2570 2691 2748 2304 1550 1093 981 810 1135 1547 1385 1136 805 788 1153 1143 1289 1443 1525 1769 1711 1707 1901 1821 2116 2309 2392 2276 2381 2921 3188 2831 2353 2420 3031 3061 3192 3154 3085 3125 2740 2684
2933 2192 2057 1970 1617 1157 897 802 704 1129 1526 1304 932 492 700 1258 1098 1106 1196 1757 1894 1818 1900 2007 2084 2218 2424 2406 2375 2520 2882 3106 2851 2786 2524 2536 2657 2518 2452 2483 2642 2792
2676 2292 1658 1687 1418 913 796 723 551 347 962 1231 1037 424 252 809 1041 1180 1506 1681 1721 1923 1975 2098 2171 2303 2506 2304 2176 2218 2559 2638 2786 2736 2747 2756 2710 2505 2306 2314 2351 2420
2749 2351 1750 1644 1409 1097 661 432 450 234 241 934 1057 624 193 208 873 945 948 1386 1663 1979 1999 2138 2319 2474 2590 2510 2084 1968 2150 2262 2174 2211 2155 2230 2398 2399 2410 2303 2204 2406
2407 2562 2123 1507 1488 1306 842 420 367 332 126 168 677 808 374 122 205 923 926 973 1570 1844 1602 1699 2272 2386 2846 2797 2453 1751 1634 1817 1404 1421 1520 1552 1882 1876 1885 2040 2021 2095
2350 2570 2582 2120 1551 1810 1483 831 384 246 331 168 258 589 671 300 87 237 972 927 1042 1510 1434 1171 1758 2203 2419 2689 2699 2072 1488 1274 1411 1132 1109 1312 1275 1433 1411 1304 1526 1731
2403 2316 2553 2435 2153 2041 1913 1543 1000 806 785 572 318 253 461 504 301 114 366 1074 1058 1159 1275 916 817 1544 2012 2344 2719 2732 1846 1137 1243 1402 1119 981 955 924 1093 1096 1044 1040
2870 2712 2730 2630 2402 2220 2356 2294 1923 1364 593 679 503 451 564 663 586 346 203 576 1144 1289 1227 999 506 652 1732 1597 2055 2588 2442 1247 1047 1493 1568 1149 1039 1004 801 707 750 751
2603 2708 2626 2622 2690 2458 2341 2506 2402 2009 1531 1786 1256 912 1164 1375 1211 547 301 262 575 1182 1454 1284 813 384 744 1378 1501 1904 2154 1928 1002 1112 1601 1624 1191 1185 961 552 562 603
1980 2763 3088 2713 2639 2738 2579 2580 2502 2456 2328 1978 1682 1410 2119 1319 1028 1075 1257 519 267 413 899 1430 1309 711 57 889 1268 1498 1800 2132 1192 634 668 1251 1446 1092 1049 886 560 363
1524 2070 2650 2863 2868 2765 2881 2717 2748 2619 2447 2184 1780 1835 1857 2243 2366 1615 1552 1487 943 739 401 624 1293 1068 105 0 1092 1339 1498 1615 764 570 294 355 818 1198 1046 906 765 556
1807 1656 1838 2568 2850 2688 2684 2485 2587 2754 2503 2236 2012 1921 2077 2163 2088 2350 2165 2455 1952 1535 1374 760 976 1164 1032 512 522 1205 1412 1610 1215 187 268 354 408 520 702 919 920 734
1228 1370 1400 1532 1635 2067 2476 2550 2446 2388 2440 2475 1758 1922 1986 2243 2334 2267 2415 2447 2227 2052 1781 1323 1105 1030 1162 1139 1034 997 1306 1349 1655 464 35 75 281 402 1044 750 1511 1027
852 1084 1439 1509 1476 1404 1677 2147 1977 2449 2420 2466 2198 1658 1682 1906 2603 2333 2337 2486 2471 2334 2018 1843 1397 967 966 1176 1220 1186 1091 1153 2359 1594 584 153 58 343 514 1266 1148 1158
624 671 974 1313 1505 1686 1566 1273 1264 1466 1737 1859 2326 2117 1956 2007 1680 1411 2627 2677 2452 2544 2490 2310 1977 1683 1121 1049 1129 1173 1173 1388 2351 2275 1723 1300 776 807 663 464 657 1284
668 680 692 862 904 1210 1140 1277 1497 1157 1119 1225 1496 1804 1731 1718 1648 906 1238 1603 1798 1621 1594 2681 2275 2118 1692 1446 1208 1051 1094 1821 2242 2346 2250 2001 1820 1631 1098 720 1019 1126
413 645 715 626 728 663 669 1110 1121 1512 1368 1331 1578 1644 2068 1953 2063 1796 1631 2059 1968 1810 1816 1615 2210 2277 1914 1819 1684 1511 1284 1950 2435 2261 2218 2307 2253 2176 2004 1794 1835 1804
2 230 290 480 564 563 715 1257 1498 1113 1251 1417 1342 1494 1593 1906 2228 1957 1816 1878 1874 1530 1346 1907 1565 1782 1731 1814 1892 1848 1669 1962 2392 2196 2116 2209 2446 2437 2504 2466 2174 2027

ECMWFNIL_con_mucape_114.txt.gz
CAPE
3053 2920 2800 2719 2590 2572 2856 2898 2519 2678 3324 2640 2774 2836 2718 3178 3539 3228 3020 3153 3537 3701 3924 4472 4588 4655 4608 4369 4584 4461 4325 3493 2760 3580 3497 3254 3110 2590 1597 1677 2136 2857
3078 3018 3021 2609 3198 3263 3457 2744 2699 2810 3152 3588 2767 3331 3191 3128 3230 2948 2892 3086 3699 3372 4287 4212 4340 4198 4218 4031 4576 4169 4485 4219 3666 2104 2950 3222 3558 2643 1900 1896 1609 2294
2752 2840 2576 2482 2012 2193 1427 1725 2332 2273 2254 2003 2246 2828 2842 2834 2690 3300 3255 3180 2753 2764 4681 4288 4185 4257 4000 4096 4516 3878 4016 4386 3564 2356 3063 3262 2832 3147 2536 1244 1544 1575
2664 2403 2157 1910 1935 1932 1743 1823 2197 2223 1821 2364 2122 1592 1963 1724 2723 3044 3583 3246 3427 3235 3699 3683 3801 3723 3858 4026 4764 3977 4014 4424 3825 3686 3590 3609 3274 2498 2047 2353 1798 1847
2376 2274 2194 2006 1735 2073 2020 1820 1438 1579 1444 1866 1530 2254 2793 3106 2846 2740 3196 3392 3619 3144 3506 3633 4006 3859 4198 4006 4693 4478 3797 4033 3979 3864 4016 3770 3751 3177 2373 2186 2508 2319
3076 2635 2385 2040 1986 2301 1811 1502 1520 1474 1447 1074 1667 1581 1603 2786 2384 2253 2491 2606 2442 2429 2191 2591 3187 3255 3446 4065 4518 4478 3450 3117 3451 4004 4211 4058 3131 2918 2190 2550 2721 2345
2770 2974 2110 1892 1450 1546 1754 1592 1481 1574 1253 816 1545 1430 1452 1684 2143 2162 2515 2726 2477 2596 2182 2576 3114 3022 3018 3854 4386 4863 4469 3843 3787 4065 3969 4057 4232 3770 2560 2632 3104 2705
2585 2472 2543 1958 1322 1080 1310 1454 1448 1469 1563 1347 1223 1529 1462 1400 2008 1861 2191 2426 2274 2443 2288 2529 3115 3386 2634 3124 3956 4120 3835 2846 3437 4326 4166 4016 3950 3918 3882 3468 3365 3460
2577 2904 2867 2176 1362 972 767 797 1019 1206 1309 1481 889 786 1334 1328 1928 1756 2305 2512 2287 2527 2741 2638 3543 2940 2684 2787 3167 3860 3743 3082 2535 3498 3897 3778 3856 3895 3588 3615 3566 3384
2789 3006 2352 2258 1572 969 830 678 623 733 1284 1249 927 714 969 1301 1710 1721 2444 2698 2577 2959 3164 2410 3329 2887 2690 2734 3383 3531 3524 3683 3770 3423 3482 3815 3810 3598 3384 3578 3462 3530
2124 1869 1760 2316 1858 1020 753 650 497 490 937 754 896 639 653 1001 1512 2053 2291 2632 2036 2554 2834 2669 2584 2779 3090 2558 2631 2738 3231 3241 3224 3562 3588 3566 3364 3455 3465 3490 3414 3270
2821 2094 1086 1353 1951 1323 771 704 500 273 435 964 887 716 570 840 1292 1406 1860 2464 2048 2053 2368 2738 2654 2716 3149 3178 2635 2571 2862 2952 3303 3480 3140 3364 3267 3142 3244 3123 3017 3136
2842 2251 2152 1250 1283 1264 955 702 458 268 221 599 853 809 439 213 727 1239 1397 1956 2220 2115 2048 2570 2836 2591 2990 3351 3140 2863 2757 2777 2539 2895 2993 2995 2999 2829 2449 2738 2753 2705
2237 2258 2160 1451 1487 1430 1698 826 511 429 476 577 993 906 561 176 71 709 1228 1239 1932 1810 2139 2281 2954 2788 3176 3634 3278 2879 2573 2854 2830 2593 2361 2396 2244 2435 2289 2136 2438 2451
2060 2370 2054 1600 1484 2035 2384 1645 1064 640 711 637 1014 904 617 444 122 27 838 1028 1109 1702 1975 2037 2296 2732 2690 3264 3490 3394 3102 2378 2482 2461 2240 2015 1929 1601 1643 1836 1640 1448
1893 1906 1475 1884 2390 2336 1957 2025 1861 1641 402 581 581 704 915 888 576 326 201 1038 1174 1581 1866 1856 1806 1842 2340 2233 2622 3211 3282 2363 2122 2188 1937 1748 2050 1884 1620 1447 1169 1121
2693 2257 1283 1090 1155 1842 1941 1634 1093 1221 1050 1736 1281 940 964 1993 1231 900 448 210 1104 1160 1493 1321 1468 1119 1402 1872 2001 2418 2909 3054 2674 2596 2325 2271 2111 2255 2012 1469 1119 1174
1916 2068 2204 1988 1615 1644 1603 1791 1803 1416 1318 1361 1904 1997 2457 1659 1597 1407 1179 697 319 720 1087 1180 1314 908 165 1343 1704 1934 2321 2973 2763 2336 1826 2069 1930 1638 1678 1417 1274 980
1787 1816 1933 1550 1278 1656 1915 1871 1788 1584 1862 1696 1202 1188 1158 2052 2277 2367 1956 1615 1072 1181 810 1214 1470 1100 899 54 1208 1584 1854 2205 2477 2367 1768 1177 1245 1693 1643 1739 1741 1416
859 986 1446 1779 1788 2200 1888 2150 1881 1906 2094 2061 1844 1566 1368 1179 1976 2157 2294 2895 2240 1839 2072 1872 1592 1372 1137 989 796 1140 1444 1735 2445 2018 1822 1338 993 1019 983 1505 1682 1580
574 706 858 1319 1671 1805 2023 2171 1679 1654 2000 2146 2125 1887 1578 1846 2373 1715 1829 2162 2519 2039 1894 1543 1456 978 1102 1140 1020 894 1067 1355 2154 1697 1048 819 863 856 1129 1046 1655 1695
665 603 518 654 945 1184 1431 1780 1575 1562 1680 2026 2101 2372 1960 1963 2265 2306 2215 2076 2388 2236 2031 1673 1784 1492 1040 927 956 1084 976 950 1570 1952 1491 1006 638 572 817 1535 1611 1480
531 645 565 492 519 997 1203 1471 1318 1159 1582 1964 1840 2090 1886 1871 2292 2573 2562 2282 2082 2050 1724 2767 2154 1637 1195 1068 860 1017 1014 1076 1625 2030 2082 1700 1157 1038 1012 1051 1010 1128
297 441 541 579 591 657 896 1482 1660 1419 1370 1889 1973 1991 2269 2163 2204 2164 2524 2317 1872 1873 1894 2264 2098 1855 1505 1213 1169 1170 1142 1151 1588 2065 2226 2129 1946 1743 1365 1115 1039 1180
24 224 270 399 509 585 912 684 1522 1648 1810 1836 1643 1553 1986 2159 2270 2233 2236 2518 2425 1951 1868 2206 2109 2014 1694 1482 1256 1285 1334 1265 1890 2212 2330 2377 2264 2209 2062 1870 1860 1918
0 19 53 89 208 274 554 924 741 644 870 960 1067 1077 1056 1386 1658 1853 2169 2500 2455 2440 2239 1909 1604 1750 1903 1552 1400 1353 1387 1459 1518 2350 2302 2372 2474 2487 2472 2409 2274 2292

ECMWFNIL_con_mucape_117.txt.gz
CAPE
2167 3128 2461 2727 3027 3007 2974 3204 3160 3055 3217 3066 3411 3205 2529 2926 2983 2790 3379 3472 3705 3966 3560 3782 4091 4163 4164 4386 4086 3974 2907 2506 2625 2999 2454 2792 2676 2364 2316 2114 1479 2314
2315 2867 2827 2842 2760 3194 2748 3082 2982 3080 3119 2910 3242 3095 2660 2927 2860 2739 3122 3400 3609 3779 3819 4251 4212 4174 4349 4308 4172 3585 3830 3318 2804 3240 2780 2700 2688 2308 2042 2052 1736 1692
2430 2603 2626 2349 2756 2760 3021 2761 2662 2882 3090 3123 3058 2691 2992 2854 3244 2721 3051 3275 3290 3439 3544 4363 4200 4085 4112 4218 4087 3769 3517 3946 2876 2888 2483 2541 2799 2603 2273 1974 1714 1550
2511 2520 2442 2307 2204 2520 2498 2545 2537 2502 2818 2696 2673 2914 3046 2925 2751 2785 2841 3659 3194 3308 3990 4203 4020 3862 3812 4130 4124 3679 3634 3832 3369 2875 2421 2452 2474 2256 2250 2107 2167 1522
2520 2530 2410 2258 2063 2071 1989 1935 2244 2140 2196 2238 2279 2497 2328 2328 2516 2994 3095 3136 2797 3121 4047 3891 3773 3644 3762 3828 4207 3569 3731 3747 3844 3443 3179 2422 2522 2590 2412 2106 1748 1847
2253 2331 2346 2231 2062 1837 1782 1825 1613 1940 1715 1995 2011 2357 1752 2902 2312 2558 3428 3164 2934 3298 3695 3723 3468 3856 3691 3755 4312 3956 3589 3506 3628 3659 3591 3161 2990 2448 2332 2312 2054 1626
2026 2067 2120 2176 2045 1979 1789 1730 1718 1690 1561 1648 1880 1740 1961 3142 2339 2380 2754 2721 2970 2906 3184 3300 3348 3698 3719 3759 4289 3994 3929 3606 3297 3472 3138 3767 3287 2964 2357 2226 2353 1927
2038 2027 1945 1970 1937 1785 1970 1746 1622 1540 1449 1095 1579 1498 1779 1979 2284 2384 2392 2507 2460 2470 2305 2714 3146 3347 3473 3513 3692 4130 3913 4121 3440 3265 3404 3669 3569 3277 3499 3655 3371 2161
2357 2405 2170 1932 1795 1617 1477 1586 1573 1290 1571 1376 1339 1466 1436 1405 2019 1962 2304 2424 2409 2418 2260 2347 2617 2845 2941 3090 3593 3988 3953 3704 3388 3154 3452 3394 3570 3435 3210 3146 3118 3199
2438 2607 2489 2159 1809 1558 1338 1169 1129 1329 1103 1417 1252 1269 1372 1422 1662 1741 1952 2365 2390 2421 2317 2130 2579 2592 2719 2842 3239 3480 3603 3429 3087 3054 3391 3350 3349 3408 3416 3249 3023 2960
1720 2234 2496 2453 2122 1686 1348 1065 853 920 1168 1034 1224 1137 1069 1230 1687 1638 1787 2110 2214 2184 2559 2104 2712 2536 2430 2547 2731 2996 3218 3126 3062 3197 2995 3150 3237 3271 3707 3093 3059 2971
2858 2066 1902 2092 2305 2131 1601 1100 880 456 536 1027 974 950 927 909 1219 1633 1752 2050 2058 1969 2328 2482 2202 2695 2335 2220 2454 2852 3135 3122 2945 2824 3092 3122 3207 3252 3249 3152 2992 2984
2125 1938 1994 1684 1532 1674 1608 1216 1245 1295 195 815 904 788 674 560 791 1402 1829 2006 1986 1871 1931 2389 2179 2007 2398 2658 2419 2279 2501 2920 2991 2902 2779 2934 3155 3054 2969 2885 2814 2800
2122 1872 1718 1632 1630 1826 1591 1146 1304 1124 858 664 528 854 822 584 309 754 1406 1933 1981 1783 1724 2013 2223 2096 1941 2342 2757 2665 2390 2226 2415 2731 2794 2704 2685 2758 2725 2676 2659 2573
1952 1909 1637 1675 1616 1463 1323 1077 1091 1249 1196 976 300 788 805 784 386 424 892 1416 1939 1790 1643 1721 2185 2176 2056 2162 2366 2455 2546 2579 2164 2136 2420 2593 2556 2452 2422 2362 2314 2315
1801 1349 1661 1801 1851 1716 1478 1270 1116 1333 1281 953 708 651 501 715 715 842 621 964 1394 1737 1626 1624 1800 2247 2373 2090 2308 2444 2252 2221 2371 2239 2060 2202 2256 2206 2113 2065 2041 1937
1999 1644 1458 1710 1824 1745 1653 1424 1203 1331 1225 950 1153 890 722 566 559 586 805 702 915 1247 1574 1542 1541 1890 2211 2076 2040 2312 2463 2266 2150 2200 2153 2033 1898 1772 1683 1616 1570 1568
1399 1710 1459 1390 1403 1266 1411 1381 1269 1150 1100 950 1138 1302 895 821 821 752 825 1201 1001 856 1097 1386 1471 1510 1822 2059 1970 2052 2350 2485 2308 2170 2128 1918 1686 1538 1384 1380 1324 1207
949 1266 1492 1674 1852 1988 2111 2174 1872 1602 1489 1601 1623 1728 1488 1007 799 701 920 1350 1558 1050 806 982 1194 1372 1421 1571 1826 1851 1979 2271 2286 2274 2083 2014 1808 1495 1210 1179 1201 1172
683 833 940 1170 1255 1164 1861 1905 1816 1890 2354 2360 2220 1839 1340 1367 1290 856 924 1161 1417 1537 1707 1576 1106 1012 1173 1228 1212 1395 1594 1776 2010 2161 2124 1974 1818 1673 1402 1142 1106 1096
558 581 634 804 1027 1259 1319 1456 1532 1422 1783 2157 2165 2085 1504 1264 1706 1787 1598 1744 1753 1690 1658 1716 1509 1470 1176 892 903 954 972 1354 1580 1760 1861 1902 1816 1653 1473 1220 1142 1063
642 611 601 617 637 792 1077 1178 1262 1344 1460 1885 2100 2229 2265 1794 1957 1945 1917 1888 1559 1730 1567 1426 1532 1543 1459 1207 987 957 942 908 1148 1376 1527 1507 1531 1590 1519 1285 942 916
603 618 666 663 695 703 724 1114 1195 1160 1244 1642 1914 2079 2248 1953 2031 2288 2390 2324 2192 1962 1748 1486 1492 1585 1563 1435 1256 1050 906 890 881 875 1104 1332 1240 1106 1105 1151 998 681
200 293 378 454 590 695 742 726 773 756 960 1089 1107 1304 1436 1905 2188 2194 2130 2292 2273 2068 1795 1650 1571 1655 1616 1597 1434 1394 1324 1089 883 816 831 887 1216 1028 911 897 850 1095
1 6 44 261 482 824 727 628 592 504 569 792 885 888 1087 1347 1482 1606 1791 1998 2206 2344 2501 2322 2019 1789 1510 1383 1394 1386 1424 1403 1311 1074 884 842 853 1143 1118 924 933 925
0 0 0 98 495 576 532 691 418 469 503 599 692 777 839 963 1299 1419 1577 1737 1763 1800 2251 2500 2388 2338 2099 1633 1422 1284 1322 1393 1416 1409 1251 1099 1027 994 1162 1171 997 946

ECMWFNIL_con_mucape_120.txt.gz
CAPE
1872 2118 1946 2247 1986 1833 1636 1728 2573 2377 2032 2050 2265 2482 2549 2609 2662 2627 2674 2679 2760 2977 2918 2913 2932 2882 3131 3127 3229 2624 2568 2376 2325 2337 2276 2116 2094 2084 1950 1868 1855 1850
1748 2202 2270 2370 2225 2495 2034 1946 2655 2476 2294 2337 2372 2358 2530 2523 2591 2690 2740 2814 2941 3288 3101 2936 3251 3084 3197 3407 3290 3150 2618 2393 2316 2613 2422 2150 2042 2080 2084 1865 1734 1692
1547 2392 2399 2338 2370 2560 2380 2318 2654 2533 2464 2414 2733 2499 2402 2529 2596 2622 2637 2865 2966 3137 3310 3126 3453 3374 3569 3641 3549 3116 2844 2535 2269 2310 2539 2291 2058 2098 2099 2004 1796 1778
1514 2118 2418 2284 2409 2580 2513 2580 2612 2672 2499 2404 2501 2745 2550 2422 2511 2589 2509 3542 2938 2999 3182 3518 3601 3412 3556 3784 3701 3410 3037 2954 2743 2560 2627 2478 2196 2133 2082 2033 2086 2177
1575 1834 2270 2329 2384 2524 2440 2659 2610 2679 2578 2522 2439 2465 2560 2545 2434 2500 2431 2948 2921 2895 2990 3364 3758 3489 3471 3600 3788 3502 3230 2913 3154 3091 2716 2502 2312 2160 2109 2009 2018 1961
1765 1877 2112 2221 2292 2489 2465 2374 2487 2539 2620 2534 2498 2519 2394 2521 2440 2508 2417 2641 2811 2840 2998 3220 3586 3611 3503 3376 3650 3667 3423 3250 3226 3365 3203 2921 2718 2305 2064 2071 2073 2086
2036 2046 2135 2124 2064 2264 2449 2434 2365 2282 2324 2424 2508 2568 2566 2430 2430 2465 2429 2474 2637 2734 3059 3316 3377 3537 3487 3270 3389 3660 3462 3157 3233 3287 3352 3246 3114 2740 2087 2020 1975 1942
2146 2172 2218 2175 2076 1913 1973 2035 2186 2276 2120 2127 2166 2096 2163 2316 2375 2368 2466 2426 2492 2493 2761 3263 3330 3452 3455 3260 3256 3504 3553 3359 3264 3157 3147 3224 3187 2832 2500 2203 2140 2146
2248 2198 2273 2358 2204 2030 1891 1840 1762 1727 1932 1882 1722 1656 1792 1990 1926 2029 2450 2474 2447 2396 2477 2855 3165 3272 3278 3308 3275 3472 3565 3603 3665 3559 3271 3102 2969 3008 2928 2815 2914 3070
2228 2264 2184 2297 2317 2233 2038 1924 1877 1721 1568 1478 1353 1400 1516 1657 1870 1858 1999 2450 2524 2461 2481 2646 2830 2956 2870 3146 3316 3316 3474 3471 3490 3532 3464 3219 2939 2999 3060 3001 2901 2870
1893 1859 2055 2022 2062 2101 2071 1973 1881 1738 1607 1484 1380 1151 1336 1483 1732 1897 1912 2001 2141 2223 2262 2214 2178 2429 2654 2830 3086 3146 3180 3230 3227 3222 3214 3106 2878 2833 3349 3064 3024 2936
1554 1841 2036 1962 1932 1810 1824 1820 1720 1485 1533 1434 1235 1214 1116 1216 1363 1717 1867 1920 1927 1960 1995 2029 2047 2084 2306 2521 2643 2761 2958 3081 3122 3070 2979 2898 2810 2746 2793 2999 2956 2956
1274 1443 1793 2146 2259 2126 1839 1630 1537 1372 1153 1102 1228 1022 1085 1092 1146 1282 1584 1777 1885 1930 1956 2023 2055 2057 2099 2213 2348 2468 2649 2857 2929 2853 2728 2765 2821 2822 2774 2844 2960 2913
1295 1097 1597 2261 2432 2461 2338 2190 1613 1291 1088 889 815 1067 951 937 980 1089 1220 1406 1620 1783 1887 1987 2070 2065 2062 2074 2107 2228 2392 2546 2620 2586 2509 2473 2608 2744 2760 2766 2808 2895
1368 1420 1450 2003 1981 2221 2371 2358 2145 1591 1120 877 731 511 852 885 818 754 1027 1265 1346 1460 1609 1758 1898 1942 1936 2055 2066 2033 2086 2248 2410 2491 2511 2512 2463 2474 2666 2778 2788 2806
1390 1340 1491 1587 1518 1650 1734 1920 2019 1812 1309 896 693 583 349 361 790 642 372 810 1273 1423 1459 1494 1588 1719 1864 1813 2019 2084 2012 1983 2079 2243 2397 2477 2488 2464 2436 2479 2612 2649
1105 1275 1499 1620 1643 1684 1605 1588 1549 1343 1204 995 820 744 408 490 339 748 650 536 445 1165 1486 1470 1436 1540 1718 1733 1678 1733 1870 2027 2107 2136 2126 2126 2118 2180 2269 2300 2333 2344
1258 1149 1090 1409 1387 1448 1471 1479 1510 1436 1167 1014 1087 1118 1114 1080 607 667 742 658 575 491 841 1332 1482 1422 1492 1621 1643 1566 1510 1640 1578 1647 1788 1938 2026 2065 2077 2050 2084 2177
1075 1144 1258 1430 1573 1713 1619 1410 1093 1394 1618 1580 1516 1563 1355 1176 1078 873 591 658 1018 914 822 811 1145 1369 1397 1432 1531 1544 1491 1482 1576 1548 1492 1531 1637 1747 1860 1945 1976 1924
929 961 1137 1059 1038 983 1053 1192 1288 1154 1808 2021 1946 1875 1545 1278 1135 1257 1199 959 895 1233 1330 1333 940 928 1173 1305 1366 1451 1489 1448 1460 1655 1712 1670 1614 1594 1588 1617 1698 1798
521 708 890 1041 1115 1152 1094 1068 1219 1316 1292 1538 1718 1816 1976 1870 1740 1560 1441 1565 1514 1481 1418 1399 1473 1449 1014 955 1098 1270 1391 1454 1435 1496 1730 1815 1820 1754 1677 1584 1506 1495
446 428 520 631 688 842 1051 1057 1115 1159 1191 1172 1252 1327 1372 1568 1796 1922 2038 2121 2136 2063 1911 1694 1495 1334 1448 1372 1107 1009 1098 1269 1401 1496 1548 1660 1780 1831 1827 1774 1681 1546
511 527 527 542 552 557 674 791 894 978 1006 1000 987 1153 1339 1427 1466 1504 1625 1632 1839 1995 2029 2044 2028 1844 1543 1388 1446 1414 1186 1066 1057 1128 1202 1282 1425 1543 1646 1713 1727 1698
390 457 562 641 678 718 688 688 676 640 689 862 959 1028 1071 1270 1293 1384 1494 1584 1592 1562 1584 1966 2094 2215 2309 2202 1796 1408 1436 1413 1415 1334 1128 931 915 928 1049 1370 1460 1473
160 177 241 289 368 512 648 724 723 748 782 754 693 792 927 957 1060 1248 1373 1452 1496 1516 1538 1529 1661 1864 2030 2163 2269 2179 1889 1563 1401 1427 1415 1438 1408 1329 1119 951 910 1225
0 0 0 4 234 413 293 438 616 686 699 712 713 690 672 828 877 927 1045 1256 1365 1444 1500 1524 1517 1587 1892 1946 2088 2217 2263 2096 1840 1472 1252 1265 1319 1362 1388 1412 1392 1323

ECMWFNIL_con_mucape_123.txt.gz
CAPE
1340 1546 1732 1802 1794 1621 1412 1308 1521 1629 1798 1989 1919 2050 2171 2233 2232 2255 2296 2467 2603 2574 2609 2682 2809 2872 2864 2810 2941 2778 2587 2365 2212 2132 2142 2068 2001 1975 1961 1973 1825 1661
1403 1539 1943 1879 1933 1992 1860 1549 1662 1723 1770 1832 1768 1997 2236 2278 2344 2352 2266 2385 2588 2707 2692 2726 2797 2847 2824 2788 2895 2964 2726 2510 2338 2394 2256 2198 2084 1990 1958 1890 1844 1737
1588 1577 1811 1948 1947 1924 1861 1695 1762 1912 1770 1715 1760 1934 2188 2332 2360 2466 2378 2336 2435 2627 2801 2830 2849 2896 2902 2823 2961 3013 2896 2702 2574 2513 2404 2278 2160 2117 2054 1905 1894 1813
1575 1687 1779 1898 1920 1920 1755 1631 1705 2095 2015 1834 1906 2019 2105 2300 2369 2440 2492 3062 2522 2593 2778 2952 2961 3004 3088 3126 3208 3225 3122 2998 2924 2748 2566 2368 2234 2199 2159 2138 2050 1977
1300 1413 1831 1945 1969 1990 1976 1726 1733 2039 2160 2091 2020 2185 2231 2212 2339 2400 2418 2482 2656 2650 2721 2946 3104 3098 3197 3306 3467 3484 3423 3379 3272 2935 2518 2297 2262 2281 2349 2357 2292 2110
1171 1225 1572 1966 2042 2056 2099 2055 1879 2025 2136 2184 2105 2171 2336 2288 2273 2350 2409 2420 2514 2624 2654 2764 3044 3268 3269 3253 3389 3544 3553 3491 3397 3173 2810 2644 2581 2533 2494 2412 2352 2207
1231 1230 1332 1724 1967 2057 2120 2129 2143 2088 2186 2259 2242 2168 2223 2367 2405 2358 2333 2324 2380 2549 2599 2681 2788 3099 3298 3321 3284 3399 3508 3521 3466 3255 3081 3137 3073 2968 2751 2629 2530 2346
1452 1369 1355 1526 1784 1958 2083 2145 2144 2234 2280 2334 2375 2381 2314 2254 2271 2354 2339 2295 2250 2394 2533 2617 2698 2814 3040 3223 3285 3300 3319 3372 3388 3324 3155 3038 3134 3218 3053 2815 2708 2501
1741 1658 1535 1517 1603 1720 1932 2065 2125 2118 2171 2253 2333 2384 2361 2344 2370 2382 2375 2320 2278 2282 2384 2504 2684 2749 2863 3044 3158 3253 3243 3183 3240 3271 3204 3063 2976 3034 3081 3029 2858 2524
1752 1784 1764 1648 1588 1628 1679 1804 1932 2046 2094 2119 2162 2194 2175 2156 2272 2419 2459 2386 2309 2280 2281 2365 2572 2752 2812 2964 3122 3218 3223 3053 3110 3212 3248 3238 3167 3163 3121 3024 2898 2705
1750 1780 1800 1773 1672 1622 1649 1664 1696 1732 1780 1818 1894 1984 2009 2010 1977 2020 2072 2173 2272 2256 2232 2230 2325 2561 2736 2867 3037 3146 3151 3058 3055 3141 3249 3298 3278 3251 3275 3161 2985 2762
2055 1968 1895 1873 1851 1774 1728 1718 1715 1693 1672 1625 1611 1638 1645 1674 1721 1582 1706 1933 2086 2179 2161 2149 2139 2205 2437 2614 2769 2924 2998 3010 3076 3126 3149 3181 3170 3107 3100 3115 3064 2892
2289 2231 2168 2073 2005 1948 1880 1856 1864 1886 1861 1772 1708 1712 1739 1666 1511 1400 1358 1611 1734 1911 2072 2119 2123 2122 2191 2377 2543 2630 2683 2796 2937 3025 3019 2978 2923 2883 2857 2845 2837 2794
2074 2220 2186 2055 1959 1979 1970 1932 1869 1849 1873 1853 1747 1719 1679 1624 1571 1445 1319 1372 1605 1711 1846 2005 2103 2136 2157 2216 2239 2259 2326 2464 2659 2765 2775 2756 2767 2774 2747 2693 2655 2662
1362 1578 1707 1712 1672 1712 1775 1819 1755 1711 1640 1593 1540 1541 1480 1312 1268 1378 1320 1178 1295 1579 1712 1782 1842 1900 1916 1885 1853 1911 2008 2133 2272 2425 2513 2541 2547 2571 2580 2561 2578 2631
1726 1617 1477 1330 1462 1675 1805 1874 1947 2008 1898 1617 1383 1231 1102 971 976 986 1102 1156 1064 1169 1459 1639 1712 1748 1812 1786 1794 1850 1876 1923 1986 2100 2236 2320 2348 2336 2310 2267 2335 2475
1333 1386 1239 1130 1391 1672 1778 1799 1972 2124 2163 1896 1614 1358 1075 925 812 769 748 904 964 962 1092 1295 1473 1598 1680 1769 1826 1853 1877 1861 1856 1888 1982 2117 2183 2208 2174 2151 2182 2257
1080 1051 1095 1148 1273 1465 1695 1703 1730 1949 2117 2215 1725 1260 1126 1028 1042 807 635 652 746 789 858 1054 1211 1309 1384 1499 1626 1727 1788 1810 1798 1771 1783 1869 1990 2053 2080 2115 2165 2199
894 948 981 1130 1272 1379 1442 1413 1251 1199 1469 1628 1467 1062 1037 830 910 1079 1092 933 654 674 711 697 757 1146 1286 1339 1372 1411 1493 1566 1642 1725 1738 1753 1784 1825 1889 1960 2034 2070
1085 1025 1025 1200 1228 1216 1134 1186 1179 1252 1231 1210 1405 1168 1204 1259 1405 1479 1590 1479 1271 915 871 1061 1224 1352 1144 973 1076 1271 1365 1382 1413 1474 1507 1507 1524 1583 1664 1740 1770 1741
946 958 937 951 963 958 1019 1144 1096 1059 1051 1059 1174 1196 1116 1069 1113 1148 1093 1564 1816 1880 1727 1577 1502 1450 1474 1395 1347 1123 1010 1103 1224 1291 1341 1354 1342 1340 1359 1379 1404 1446
965 908 865 904 963 908 845 888 940 928 963 1051 1111 1145 1213 1257 1262 1286 1156 1117 1410 1543 1809 1902 1946 2004 1906 1652 1449 1386 1368 1234 1048 984 1051 1193 1274 1301 1439 1518 1557 1587
684 673 682 664 700 738 872 930 815 831 861 874 991 1196 1234 1236 1238 1266 1254 1180 1122 1199 1292 1376 1443 1666 1911 2011 2046 1918 1699 1496 1401 1328 1180 1048 1042 1190 1287 1421 1577 1687
543 553 531 513 494 498 484 442 460 562 658 759 856 968 1008 1073 1015 989 1139 1216 1110 1251 1285 1268 1234 1310 1454 1593 1848 1982 2010 1922 1720 1482 1377 1334 1338 1267 1124 1070 1103 1598
375 416 438 473 502 523 496 411 415 493 563 598 584 658 728 762 774 806 917 952 1070 1186 1250 1215 1270 1294 1292 1290 1390 1535 1722 1931 1973 1880 1732 1566 1420 1368 1354 1361 1389 1379
200 235 276 305 348 385 425 464 468 368 464 587 643 632 632 626 629 597 679 748 838 955 1056 1124 1186 1212 1248 1291 1292 1268 1314 1443 1678 1743 1819 1802 1746 1715 1551 1377 1362 1366